[[{"header":{"parameterUnit":"m.s-1","parameterCategory":1,"la1":30.6,"la2":28.766,"lo1":-90.7593,"lo2":-88.6598,"dy":0.0162,"dx":0.0183,"nx":116,"ny":114,"refTime":"2024-06-25T18:00:00:Z","depth":0,"parameterNumber":2,"parameterNumberName":"U-component_of_WINDS"},"data":[0.0,0.0,0.0,0.0,0.0,0.0,0.0,0.0,0.0,0.0,0.0,0.0,0.0,0.0,0.0,0.0,0.0,0.0,0.0,0.0,0.0,0.0,0.0,0.0,0.0,0.0,0.0,0.0,0.0,0.0,0.0,0.0,0.0,0.0,0.0,0.0,0.0,0.0,0.0,0.0,0.0,0.0,0.0,0.0,0.0,0.0,0.0,0.0,0.0,0.0,0.0,0.0,0.0,0.0,0.0,0.0,0.0,0.0,0.0,0.0,0.0,0.0,0.0,0.0,0.0,0.0,0.0,0.0,0.0,0.0,0.0,0.0,0.0,0.0,0.0,0.0,0.0,0.0,0.0,0.0,0.0,0.0,0.0,0.0,0.0,0.0,0.0,0.0,0.0,0.0,0.0,0.0,0.0,0.0,0.0,0.0,0.0,0.0,0.0,0.0,0.0,0.0,0.0,0.0,0.0,0.0,0.0,0.0,0.0,0.0,0.0,0.0,0.0,0.0,0.0,0.0,0.0,0.0,0.0,0.0,0.0,0.0,0.0,0.0,0.0,0.0,0.0,0.0,0.0,0.0,0.0,0.0,0.0,0.0,0.0,0.0,0.0,0.0,0.0,0.0,0.0,0.0,0.0,0.0,0.0,0.0,0.0,0.0,0.0,0.0,0.0,0.0,0.0,0.0,0.0,0.0,0.0,0.0,0.0,0.0,0.0,0.0,0.0,0.0,0.0,0.0,0.0,0.0,0.0,0.0,0.0,0.0,0.0,0.0,0.0,0.0,0.0,0.0,0.0,0.0,0.0,0.0,0.0,0.0,0.0,0.0,0.0,0.0,0.0,0.0,0.0,0.0,0.0,0.0,0.0,0.0,0.0,0.0,0.0,0.0,0.0,0.0,0.0,0.0,0.0,0.0,0.0,0.0,0.0,0.0,0.0,0.0,0.0,0.0,0.0,0.0,0.0,0.0,0.0,0.0,0.0,0.0,0.0,0.0,0.0,0.0,0.0,0.0,0.0,0.0,0.0,0.0,0.0,0.0,0.0,0.0,0.0,0.0,0.0,0.0,0.0,0.0,0.0,0.0,0.0,0.0,0.0,0.0,0.0,0.0,0.0,0.0,0.0,0.0,0.0,0.0,0.0,0.0,0.0,0.0,0.0,0.0,0.0,0.0,0.0,0.0,0.0,0.0,0.0,0.0,0.0,0.0,0.0,0.0,0.0,0.0,0.0,0.0,0.0,0.0,0.0,0.0,0.0,0.0,0.0,0.0,0.0,0.0,0.0,0.0,0.0,0.0,0.0,0.0,0.0,0.0,0.0,0.0,0.0,0.0,0.0,0.0,0.0,0.0,0.0,0.0,0.0,0.0,0.0,0.0,0.0,0.0,0.0,0.0,0.0,0.0,0.0,0.0,0.0,0.0,0.0,0.0,0.0,0.0,0.0,0.0,0.0,0.0,0.0,0.0,0.0,0.0,0.0,0.0,0.0,0.0,0.0,0.0,0.0,0.0,0.0,0.0,0.0,0.0,0.0,0.0,0.0,0.0,0.0,0.0,0.0,0.0,0.0,0.0,0.0,0.0,0.0,0.0,0.0,0.0,0.0,0.0,0.0,0.0,0.0,0.0,0.0,0.0,0.0,0.0,0.0,0.0,0.0,0.0,0.0,0.0,0.0,0.0,0.0,0.0,0.0,0.0,0.0,0.0,0.0,0.0,0.0,0.0,0.0,0.0,0.0,0.0,0.0,0.0,0.0,0.0,0.0,0.0,0.0,0.0,0.0,0.0,0.0,0.0,0.0,0.0,0.0,0.0,0.0,0.0,0.0,0.0,0.0,0.0,0.0,0.0,0.0,0.0,0.0,0.0,0.0,0.0,0.0,0.0,0.0,0.0,0.0,0.0,0.0,0.0,0.0,0.0,0.0,0.0,0.0,0.0,0.0,0.0,0.0,0.0,0.0,0.0,0.0,0.0,0.0,0.0,0.0,0.0,0.0,0.0,0.0,0.0,0.0,0.0,0.0,0.0,0.0,0.0,0.0,0.0,0.0,0.0,0.0,0.0,0.0,0.0,0.0,0.0,0.0,0.0,0.0,0.0,0.0,0.0,0.0,0.0,0.0,0.0,0.0,0.0,0.0,0.0,0.0,0.0,0.0,0.0,0.0,0.0,0.0,0.0,0.0,0.0,0.0,0.0,0.0,0.0,0.0,0.0,0.0,0.0,0.0,0.0,0.0,0.0,0.0,0.0,0.0,0.0,0.0,0.0,0.0,0.0,0.0,0.0,0.0,0.0,0.0,0.0,0.0,0.0,0.0,0.0,0.0,0.0,0.0,0.0,0.0,0.0,0.0,0.0,0.0,0.0,0.0,0.0,0.0,0.0,0.0,0.0,0.0,0.0,0.0,0.0,0.0,0.0,0.0,0.0,0.0,0.0,0.0,0.0,0.0,0.0,0.0,0.0,0.0,0.0,0.0,0.0,0.0,0.0,0.0,0.0,0.0,0.0,0.0,0.0,0.0,0.0,0.0,0.0,0.0,0.0,0.0,0.0,0.0,0.0,0.0,0.0,0.0,0.0,0.0,0.0,0.0,0.0,0.0,0.0,0.0,0.0,0.0,0.0,0.0,0.0,0.0,0.0,0.0,0.0,0.0,0.0,0.0,0.0,0.0,0.0,0.0,0.0,0.0,0.0,0.0,0.0,0.0,0.0,0.0,0.0,0.0,0.0,0.0,0.0,0.0,0.0,0.0,0.0,0.0,0.0,0.0,0.0,0.0,0.0,0.0,0.0,0.0,0.0,0.0,0.0,0.0,0.0,0.0,0.0,0.0,0.0,0.0,0.0,0.0,0.0,0.0,0.0,0.0,0.0,0.0,0.0,0.0,0.0,0.0,0.0,0.0,0.0,0.0,0.0,0.0,0.0,0.0,0.0,0.0,0.0,0.0,0.0,0.0,0.0,0.0,0.0,0.0,0.0,0.0,0.0,0.0,0.0,0.0,0.0,0.0,0.0,0.0,0.0,0.0,0.0,0.0,0.0,0.0,0.0,0.0,0.0,0.0,0.0,0.0,0.0,0.0,0.0,0.0,0.0,0.0,0.0,0.0,0.0,0.0,0.0,0.0,0.0,0.0,0.0,0.0,0.0,0.0,0.0,0.0,0.0,0.0,0.0,0.0,0.0,0.0,0.0,0.0,0.0,0.0,0.0,0.0,0.0,0.0,0.0,0.0,0.0,0.0,0.0,0.0,0.0,0.0,0.0,0.0,0.0,0.0,0.0,0.0,0.0,0.0,0.0,0.0,0.0,0.0,0.0,0.0,0.0,0.0,0.0,0.0,0.0,0.0,0.0,0.0,0.0,0.0,0.0,0.0,0.0,0.0,0.0,0.0,0.0,0.0,0.0,0.0,0.0,0.0,0.0,0.0,0.0,0.0,0.0,0.0,0.0,0.0,0.0,0.0,0.0,0.0,0.0,0.0,0.0,0.0,0.0,0.0,0.0,0.0,0.0,0.0,0.0,0.0,0.0,0.0,0.0,0.0,0.0,0.0,0.0,0.0,0.0,0.0,0.0,0.0,0.0,0.0,0.0,0.0,0.0,0.0,0.0,0.0,0.0,0.0,0.0,0.0,0.0,0.0,0.0,0.0,0.0,0.0,0.0,0.0,0.0,0.0,0.0,0.0,0.0,0.0,0.0,0.0,0.0,0.0,0.0,0.0,0.0,0.0,0.0,0.0,0.0,0.0,0.0,0.0,0.0,0.0,0.0,0.0,0.0,0.0,0.0,0.0,0.0,0.0,0.0,0.0,0.0,0.0,0.0,0.0,0.0,0.0,0.0,0.0,0.0,0.0,0.0,0.0,0.0,0.0,0.0,0.0,0.0,0.0,0.0,0.0,0.0,0.0,0.0,0.0,0.0,0.0,0.0,0.0,0.0,0.0,0.0,0.0,0.0,0.0,0.0,0.0,0.0,0.0,0.0,0.0,0.0,0.0,0.0,0.0,0.0,0.0,0.0,0.0,0.0,0.0,0.0,0.0,0.0,0.0,0.0,0.0,0.0,0.0,0.0,0.0,0.0,0.0,0.0,0.0,0.0,0.0,0.0,0.0,0.0,0.0,0.0,0.0,0.0,0.0,0.0,0.0,0.0,0.0,0.0,0.0,0.0,0.0,0.0,0.0,0.0,0.0,0.0,0.0,0.0,0.0,0.0,0.0,0.0,0.0,0.0,0.0,0.0,0.0,0.0,0.0,0.0,0.0,0.0,0.0,0.0,0.0,0.0,0.0,0.0,0.0,0.0,0.0,0.0,0.0,0.0,0.0,0.0,0.0,0.0,0.0,0.0,0.0,0.0,0.0,0.0,0.0,0.0,0.0,0.0,0.0,0.0,0.0,0.0,0.0,0.0,0.0,0.0,0.0,0.0,0.0,0.0,0.0,0.0,0.0,0.0,0.0,0.0,0.0,0.0,0.0,0.0,0.0,0.0,0.0,0.0,0.0,0.0,0.0,0.0,0.0,0.0,0.0,0.0,0.0,0.0,0.0,0.0,0.0,0.0,0.0,0.0,0.0,0.0,0.0,0.0,0.0,0.0,0.0,0.0,0.0,0.0,0.0,0.0,0.0,0.0,0.0,0.0,0.0,0.0,0.0,0.0,0.0,0.0,0.0,0.0,0.0,0.0,0.0,0.0,0.0,0.0,0.0,0.0,0.0,0.0,0.0,0.0,0.0,0.0,0.0,0.0,0.0,0.0,0.0,0.0,0.0,0.0,0.0,0.0,0.0,0.0,0.0,0.0,0.0,0.0,0.0,0.0,0.0,0.0,0.0,0.0,0.0,0.0,0.0,0.0,0.0,0.0,0.0,0.0,0.0,0.0,0.0,0.0,0.0,0.0,0.0,0.0,0.0,0.0,0.0,0.0,0.0,0.0,0.0,0.0,0.0,0.0,0.0,0.0,0.0,0.0,0.0,0.0,0.0,0.0,0.0,0.0,0.0,0.0,0.0,0.0,0.0,0.0,0.0,0.0,0.0,0.0,0.0,0.0,0.0,0.0,0.0,0.0,0.0,0.0,0.0,0.0,0.0,0.0,0.0,0.0,0.0,0.0,0.0,0.0,0.0,0.0,0.0,0.0,0.0,0.0,0.0,0.0,0.0,0.0,0.0,0.0,0.0,0.0,0.0,0.0,0.0,0.0,0.0,0.0,0.0,0.0,0.0,0.0,0.0,0.0,0.0,0.0,0.0,0.0,0.0,0.0,0.0,0.0,0.0,0.0,0.0,0.0,0.0,0.0,0.0,0.0,0.0,0.0,0.0,0.0,0.0,0.0,0.0,0.0,0.0,0.0,0.0,0.0,0.0,0.0,0.0,0.0,0.0,0.0,0.0,0.0,0.0,0.0,0.0,0.0,0.0,0.0,0.0,0.0,0.0,0.0,0.0,0.0,0.0,0.0,0.0,0.0,0.0,0.0,0.0,0.0,0.0,0.0,0.0,0.0,0.0,0.0,0.0,0.0,0.0,0.0,0.0,0.0,0.0,0.0,0.0,0.0,0.0,0.0,0.0,0.0,0.0,0.0,0.0,0.0,0.0,0.0,0.0,0.0,0.0,0.0,0.0,0.0,0.0,0.0,0.0,0.0,0.0,0.0,0.0,0.0,0.0,0.0,0.0,0.0,0.0,0.0,0.0,0.0,0.0,0.0,0.0,0.0,0.0,0.0,0.0,0.0,0.0,0.0,0.0,0.0,0.0,0.0,0.0,0.0,0.0,0.0,0.0,0.0,0.0,0.0,0.0,0.0,0.0,0.0,0.0,0.0,0.0,0.0,0.0,0.0,0.0,0.0,0.0,0.0,0.0,0.0,0.0,0.0,0.0,0.0,0.0,0.0,0.0,0.0,0.0,0.0,0.0,0.0,0.0,0.0,0.0,0.0,0.0,0.0,0.0,0.0,0.0,0.0,0.0,0.0,0.0,0.0,0.0,0.0,0.0,0.0,0.0,0.0,0.0,0.0,0.0,0.0,0.0,0.0,0.0,0.0,0.0,0.0,0.0,0.0,0.0,0.0,0.0,0.0,0.0,0.0,0.0,0.0,0.0,0.0,0.0,0.0,0.0,0.0,0.0,0.0,-2.1882,0.0,0.0,0.0,0.0,0.0,0.0,0.0,0.0,0.0,0.0,0.0,0.0,0.0,0.0,0.0,0.0,0.0,0.0,0.0,0.0,0.0,0.0,0.0,0.0,-1.3119,-1.4063,-1.4489,-1.4943,-1.5226,-1.5309,0.0,0.0,0.0,0.0,0.0,-1.3439,-1.3834,-1.4035,-1.4003,-1.5294,-1.6307,-1.7029,-1.656,-1.548,-1.3906,0.0,0.0,0.0,0.0,0.0,0.0,0.0,0.0,0.0,0.0,0.0,0.0,0.0,0.0,0.0,0.0,0.0,0.0,0.0,0.0,0.0,0.0,0.0,0.0,0.0,0.0,0.0,0.0,0.0,0.0,0.0,0.0,0.0,0.0,0.0,0.0,0.0,0.0,0.0,0.0,0.0,0.0,0.0,0.0,0.0,0.0,0.0,0.0,0.0,0.0,0.0,0.0,0.0,0.0,0.0,0.0,0.0,0.0,0.0,0.0,0.0,0.0,0.0,0.0,0.0,0.0,0.0,0.0,0.0,0.0,0.0,-2.3888,0.0,0.0,0.0,0.0,0.0,0.0,0.0,0.0,0.0,0.0,0.0,0.0,0.0,0.0,0.0,0.0,0.0,0.0,0.0,0.0,0.0,-1.1826,-1.2906,-1.3799,-1.4676,-1.5568,-1.565,-1.5592,-1.5512,0.0,0.0,0.0,0.0,-1.5045,-1.4319,-1.5155,-1.5658,-1.5732,-1.7626,-1.9293,-2.0734,-2.0731,0.0,0.0,-1.6212,0.0,0.0,0.0,0.0,0.0,0.0,0.0,0.0,0.0,0.0,0.0,0.0,0.0,0.0,0.0,0.0,0.0,0.0,0.0,0.0,0.0,0.0,0.0,0.0,0.0,0.0,0.0,0.0,0.0,0.0,0.0,0.0,0.0,0.0,0.0,0.0,0.0,0.0,0.0,0.0,0.0,0.0,0.0,0.0,0.0,0.0,0.0,0.0,0.0,0.0,0.0,0.0,0.0,0.0,0.0,0.0,0.0,0.0,0.0,0.0,0.0,0.0,0.0,-3.1088,-3.169,-3.2342,-3.2285,-3.2614,-3.306,-2.9721,-2.7585,-2.6366,-2.5283,0.0,0.0,0.0,0.0,0.0,0.0,0.0,0.0,0.0,0.0,0.0,0.0,0.0,0.0,0.0,0.0,0.0,0.0,0.0,-1.2876,-1.4517,-1.5457,-1.6353,-1.7286,-1.7361,-1.7077,-1.6397,-1.6399,0.0,0.0,-1.5302,-1.5263,-1.514,-1.6008,-1.6779,-1.7473,-1.9928,-2.1579,-2.2465,0.0,0.0,0.0,-2.0273,-1.9138,0.0,0.0,0.0,0.0,0.0,0.0,0.0,0.0,0.0,0.0,0.0,0.0,0.0,0.0,0.0,0.0,0.0,0.0,0.0,0.0,0.0,0.0,0.0,0.0,0.0,0.0,0.0,0.0,0.0,0.0,0.0,0.0,0.0,0.0,0.0,0.0,0.0,0.0,0.0,0.0,0.0,0.0,-1.6663,-1.8453,0.0,0.0,0.0,0.0,0.0,0.0,0.0,0.0,0.0,0.0,0.0,0.0,0.0,-3.0216,-3.1485,-3.2267,-3.3368,-3.4789,-3.471,-3.5048,-3.5754,-3.5684,-3.5716,-3.5771,-3.5238,0.0,-3.0442,-2.8227,0.0,0.0,0.0,0.0,0.0,0.0,0.0,0.0,0.0,0.0,0.0,0.0,0.0,0.0,0.0,0.0,0.0,0.0,0.0,0.0,0.0,-1.661,-1.7897,-1.8343,-1.8409,-1.828,0.0,0.0,0.0,-1.6073,-1.6458,-1.6473,-1.5982,-1.7741,-1.9787,-2.2064,-2.3191,-2.4407,0.0,0.0,0.0,0.0,0.0,0.0,0.0,0.0,0.0,0.0,0.0,0.0,0.0,0.0,0.0,0.0,0.0,0.0,0.0,0.0,0.0,0.0,0.0,0.0,0.0,0.0,0.0,0.0,0.0,0.0,0.0,0.0,0.0,0.0,0.0,0.0,0.0,0.0,0.0,0.0,0.0,0.0,0.0,0.0,0.0,0.0,0.0,-1.7105,-1.9253,-2.0932,-2.1132,-2.1339,0.0,0.0,0.0,0.0,0.0,0.0,0.0,0.0,0.0,-3.1059,-3.3162,-3.4556,-3.5171,-3.6276,-3.7408,-3.8515,-3.8287,-3.8563,-3.9312,-3.9213,-3.9123,-3.9041,-3.8581,-3.7298,-3.5238,-3.188,-3.0026,-2.9145,0.0,0.0,0.0,0.0,-2.6895,-2.6895,0.0,0.0,0.0,0.0,0.0,0.0,0.0,0.0,0.0,0.0,0.0,0.0,-1.5692,-1.7776,-1.9288,-1.98,0.0,0.0,0.0,0.0,0.0,-1.694,-1.7476,-1.7581,-1.7148,-1.9854,-2.2616,0.0,0.0,0.0,0.0,0.0,0.0,0.0,0.0,0.0,0.0,0.0,0.0,0.0,0.0,0.0,0.0,0.0,0.0,0.0,0.0,0.0,0.0,0.0,0.0,0.0,0.0,0.0,0.0,0.0,0.0,0.0,0.0,0.0,0.0,0.0,0.0,0.0,0.0,0.0,0.0,0.0,0.0,0.0,0.0,0.0,0.0,0.0,0.0,0.0,0.0,-2.0227,-2.1987,-2.3872,-2.3907,-2.4202,0.0,0.0,0.0,0.0,0.0,0.0,-3.1194,-3.3067,-3.4332,-3.4819,-3.7224,-3.8488,-3.8405,-3.9656,-4.0584,-4.1161,-4.0899,-4.1096,-4.1673,-4.1531,-4.141,-4.1261,-4.0603,-3.9952,-3.905,-3.5147,-3.3073,-3.2173,-3.0779,-3.0234,-3.0234,-3.0234,-3.0234,-3.0234,0.0,0.0,0.0,0.0,0.0,0.0,0.0,0.0,0.0,0.0,0.0,-1.5612,0.0,0.0,0.0,0.0,0.0,0.0,0.0,0.0,0.0,-1.7815,-1.7777,-1.8137,-1.8859,-2.2175,0.0,0.0,0.0,0.0,0.0,0.0,0.0,0.0,0.0,0.0,0.0,0.0,0.0,0.0,0.0,0.0,0.0,0.0,0.0,0.0,0.0,0.0,0.0,0.0,0.0,0.0,0.0,0.0,0.0,0.0,0.0,0.0,0.0,0.0,0.0,0.0,0.0,0.0,0.0,0.0,0.0,0.0,0.0,0.0,0.0,0.0,0.0,0.0,0.0,0.0,0.0,0.0,0.0,-2.735,-2.691,0.0,0.0,0.0,0.0,-3.0077,-3.1718,-3.3013,-3.3857,-3.6277,-3.7621,-3.7598,-4.0003,-4.1246,-4.1108,-4.181,-4.2155,-4.2121,-4.1918,-4.1849,-4.1887,-4.1754,-4.164,-4.1571,-4.1332,-4.1172,-4.082,-3.7489,-3.5605,-3.4729,-3.3899,-3.355,-3.355,-3.355,-3.355,-3.355,0.0,0.0,0.0,-0.9284,-0.9412,-0.9522,-0.9593,-1.03,-1.1346,-1.2785,-1.4871,0.0,0.0,0.0,0.0,0.0,0.0,0.0,0.0,0.0,-2.1382,-2.0227,-2.0712,-2.1651,-2.3028,-2.4255,0.0,0.0,0.0,0.0,0.0,0.0,0.0,0.0,0.0,0.0,0.0,0.0,0.0,0.0,0.0,0.0,0.0,0.0,0.0,0.0,0.0,0.0,0.0,0.0,0.0,0.0,0.0,0.0,0.0,0.0,0.0,0.0,0.0,0.0,0.0,0.0,0.0,0.0,0.0,0.0,0.0,0.0,0.0,0.0,0.0,0.0,0.0,0.0,0.0,0.0,0.0,0.0,0.0,-3.0039,-3.0073,0.0,-3.2224,-3.2128,-3.2872,-3.5122,-3.5834,-3.6993,-3.8896,-3.9857,-4.0545,-4.0995,-4.2422,-4.3129,-4.304,-4.374,-4.4098,-4.4056,-4.3851,-4.378,-4.3749,-4.3635,-4.3479,-4.3332,-4.317,-4.269,-4.1947,-4.0725,-3.9102,-3.7242,-3.5936,-3.5404,-3.5404,-3.5404,-3.5404,-3.5404,-0.8985,-0.906,0.0,-0.9245,-0.9372,-0.9483,-0.9546,-1.0507,-1.1737,-1.3176,-1.5757,-1.8142,0.0,0.0,0.0,0.0,0.0,0.0,0.0,0.0,-2.2822,-2.1985,-2.3024,-2.4159,-2.5288,0.0,0.0,0.0,0.0,0.0,0.0,0.0,0.0,0.0,0.0,0.0,0.0,0.0,0.0,0.0,0.0,0.0,-1.9893,0.0,0.0,0.0,0.0,0.0,0.0,0.0,0.0,0.0,0.0,0.0,0.0,0.0,0.0,0.0,0.0,0.0,0.0,0.0,0.0,0.0,0.0,0.0,0.0,0.0,0.0,0.0,0.0,0.0,0.0,0.0,0.0,0.0,0.0,0.0,-3.0514,-3.2713,-3.3224,-3.4045,-3.5764,-3.5918,-3.6853,-3.9104,-3.9277,-4.0127,-4.2063,-4.2428,-4.2806,-4.329,-4.4144,-4.4576,-4.4508,-4.4972,-4.5194,-4.5192,-4.5038,-4.4955,-4.4955,-4.4821,-4.4674,-4.449,-4.4312,-4.3789,-4.3055,-4.267,-4.1557,-3.9942,-3.8496,-3.7753,-3.7514,-3.7514,-3.7331,-3.711,-0.8993,-0.9057,-0.9125,-0.9196,-0.9314,-0.9426,-0.9491,-1.0921,-1.2315,-1.322,-1.6202,0.0,0.0,0.0,0.0,0.0,0.0,0.0,0.0,-2.4038,-2.3703,-2.2947,-2.4462,-2.5365,-2.5423,0.0,0.0,0.0,0.0,0.0,0.0,0.0,0.0,0.0,0.0,0.0,0.0,0.0,0.0,0.0,0.0,0.0,-2.2281,0.0,0.0,0.0,0.0,0.0,0.0,0.0,0.0,0.0,0.0,0.0,0.0,0.0,0.0,0.0,0.0,0.0,0.0,0.0,0.0,0.0,0.0,0.0,0.0,0.0,0.0,0.0,0.0,0.0,0.0,0.0,0.0,0.0,-2.959,-3.1565,-3.374,-3.5464,-3.6348,-3.7507,-3.9246,-3.9419,-4.0104,-4.175,-4.1885,-4.2258,-4.3124,-4.3912,-4.4335,-4.4335,-4.5171,-4.5568,-4.5504,-4.5429,-4.54,-4.5408,-4.5338,-4.5307,-4.5307,-4.517,-4.5045,-4.4883,-4.4627,-4.4402,-4.4136,-4.3241,-4.285,-4.2745,-4.1569,-4.065,-3.9953,-3.9953,-3.9423,-3.8744,-0.9051,-0.9087,-0.9121,-0.9187,-0.931,-0.9416,-0.9483,-1.0912,-1.2521,-1.3978,-1.703,0.0,0.0,0.0,0.0,0.0,0.0,0.0,-2.482,0.0,-2.5129,-2.5543,-2.6005,0.0,0.0,0.0,0.0,0.0,0.0,0.0,0.0,0.0,0.0,0.0,0.0,0.0,0.0,0.0,0.0,0.0,0.0,0.0,-2.4023,0.0,0.0,0.0,0.0,0.0,0.0,0.0,0.0,0.0,0.0,0.0,0.0,0.0,0.0,0.0,0.0,0.0,0.0,0.0,0.0,0.0,0.0,0.0,0.0,0.0,0.0,0.0,0.0,0.0,0.0,0.0,0.0,-3.3437,-3.3126,-3.4662,-3.6663,-3.8934,-3.9353,-4.0142,-4.1893,-4.2066,-4.2489,-4.3528,-4.3605,-4.3989,-4.4883,-4.5133,-4.5248,-4.5248,-4.5479,-4.5586,-4.5577,-4.5504,-4.5476,-4.5477,-4.541,-4.5361,-4.538,-4.5329,-4.5235,-4.5114,-4.4931,-4.4732,-4.4472,-4.4112,-4.3899,-4.3636,-4.2023,-4.1246,-4.1046,-4.0906,-4.0297,-3.957,-0.9093,-0.913,-0.9154,-0.9187,-0.9282,-0.9478,-0.9855,-1.1091,-1.2714,-1.4709,-1.7222,0.0,0.0,0.0,0.0,0.0,0.0,0.0,-2.5056,-2.5554,-2.6071,0.0,0.0,0.0,0.0,0.0,0.0,0.0,0.0,0.0,0.0,0.0,0.0,0.0,0.0,0.0,0.0,0.0,0.0,0.0,0.0,0.0,-2.613,-2.5406,-2.3993,-2.2368,-2.2036,-2.1112,-1.9945,-1.9165,0.0,0.0,0.0,0.0,0.0,0.0,0.0,0.0,0.0,0.0,0.0,0.0,0.0,0.0,0.0,0.0,0.0,0.0,0.0,0.0,0.0,0.0,0.0,0.0,-3.4578,-3.6472,-3.7134,-3.7977,-3.9062,-4.0468,-4.1545,-4.256,-4.3541,-4.3965,-4.438,-4.4806,-4.4836,-4.5075,-4.5575,-4.5594,-4.5594,-4.5594,-4.5594,-4.5594,-4.5594,-4.5568,-4.5531,-4.5531,-4.5504,-4.5485,-4.5485,-4.5458,-4.539,0.0,-4.5143,-4.4995,-4.4846,-4.4745,-4.4649,0.0,0.0,0.0,0.0,0.0,-4.0891,-4.0388,-0.9107,-0.9183,-0.9219,-0.9226,-0.9265,-0.9588,-1.0397,-1.1358,-1.2877,-1.5278,0.0,0.0,0.0,0.0,0.0,0.0,0.0,0.0,0.0,0.0,0.0,0.0,0.0,0.0,0.0,0.0,0.0,0.0,0.0,0.0,0.0,0.0,0.0,0.0,0.0,0.0,0.0,0.0,0.0,0.0,0.0,0.0,-2.811,-2.6544,-2.5457,-2.4641,-2.3776,-2.2997,-2.226,-2.1528,0.0,0.0,0.0,0.0,0.0,0.0,0.0,0.0,0.0,0.0,0.0,0.0,0.0,0.0,0.0,0.0,0.0,0.0,0.0,0.0,0.0,0.0,0.0,0.0,-3.7268,-3.9375,-4.1069,-4.128,-4.1225,-4.1164,-4.3143,-4.4518,-4.455,-4.5247,-4.5693,-4.5622,-4.5594,-4.5594,-4.5594,0.0,0.0,0.0,0.0,-4.5594,-4.5594,-4.5594,-4.5594,-4.5594,-4.5594,-4.5594,-4.5594,-4.555,-4.5466,-4.541,-4.5292,-4.5239,-4.5213,-4.5159,-4.5136,-4.5061,-4.449,-4.3762,-4.2951,-4.1967,-4.1498,-4.1222,-0.9265,-0.9311,-0.9357,-0.9362,-0.9376,-0.9644,-1.0456,-1.1391,-1.2877,-1.5278,-1.7062,0.0,0.0,0.0,0.0,0.0,0.0,0.0,0.0,0.0,0.0,0.0,0.0,0.0,0.0,0.0,0.0,0.0,0.0,0.0,0.0,0.0,0.0,0.0,0.0,0.0,0.0,0.0,0.0,0.0,0.0,0.0,-2.8097,-2.7693,-2.7021,-2.6175,-2.5403,-2.4669,-2.3928,-2.3191,-2.2592,-2.2122,-2.1869,0.0,0.0,0.0,0.0,0.0,0.0,0.0,0.0,0.0,0.0,0.0,0.0,0.0,0.0,0.0,0.0,0.0,0.0,0.0,0.0,-3.8357,-3.9857,-4.1197,-4.2921,-4.3717,-4.4049,-4.3942,-4.4304,-4.484,-4.5469,-4.5634,-4.5695,-4.5673,-4.5631,-4.5594,-4.5594,-4.5594,-4.5594,-4.5594,-4.5594,-4.5594,-4.5594,-4.5594,-4.5594,-4.5594,0.0,0.0,-4.5594,-4.5586,-4.5531,-4.5485,-4.5448,-4.54,-4.5348,-4.5338,-4.5307,-4.5213,-4.4846,-4.4414,-4.3988,-4.3662,-4.2999,-4.2221,-0.9461,-0.9439,-0.9444,-0.9444,-0.9444,-0.9843,-1.1028,-1.1665,-1.287,-1.5278,-1.6714,0.0,0.0,0.0,0.0,0.0,0.0,0.0,0.0,0.0,0.0,0.0,0.0,0.0,0.0,0.0,0.0,0.0,0.0,0.0,0.0,0.0,0.0,0.0,0.0,0.0,0.0,0.0,0.0,0.0,0.0,0.0,-2.9198,-2.8738,-2.8017,-2.7151,-2.6375,-2.5623,-2.4893,-2.4186,-2.3765,-2.3508,-2.3251,-2.2934,-2.2532,0.0,0.0,0.0,0.0,0.0,0.0,0.0,0.0,0.0,0.0,0.0,0.0,0.0,0.0,-3.2031,0.0,0.0,-3.8027,-4.0195,-4.1599,-4.2866,-4.4171,-4.4708,-4.489,-4.4767,-4.5099,-4.549,-4.5815,-4.5821,-4.5795,-4.5754,-4.5682,-4.5648,-4.5648,-4.5622,-4.5594,-4.5594,-4.5594,-4.5594,-4.5594,-4.5594,-4.5594,-4.5594,-4.5594,-4.5594,-4.5594,-4.5594,-4.5577,-4.5559,-4.5559,-4.5532,-4.5505,-4.5505,-4.5458,-4.539,-4.5192,-4.4876,-4.4522,-4.4298,-4.3769,-4.3114,-0.9613,-0.9564,-0.9514,-0.9523,-0.9644,-1.0213,-1.1598,-1.2042,-1.3045,-1.5302,-1.6214,-1.7227,-1.8684,-1.9539,-2.0443,0.0,0.0,0.0,0.0,0.0,0.0,0.0,0.0,0.0,0.0,0.0,0.0,0.0,0.0,0.0,0.0,0.0,0.0,0.0,0.0,0.0,0.0,0.0,0.0,0.0,0.0,0.0,-3.0526,-2.9532,-2.8692,-2.7915,-2.6943,-2.6221,-2.5602,-2.4761,-2.4578,-2.4614,-2.417,-2.4099,-2.4011,-2.3275,-2.2566,0.0,0.0,0.0,0.0,0.0,0.0,0.0,0.0,0.0,-3.1658,-3.2859,-3.4236,-3.5566,-3.6797,-3.873,-4.0547,-4.1738,-4.3066,-4.4256,-4.5135,-4.5249,-4.5213,-4.5109,-4.5699,-4.608,-4.5978,-4.5922,-4.5893,-4.5819,-4.575,-4.5714,-4.5698,-4.5648,-4.5603,-4.5594,-4.5594,-4.5594,-4.5594,-4.5594,-4.5594,-4.5594,-4.5594,-4.5594,-4.5594,-4.5594,-4.5594,-4.5594,-4.5594,-4.5594,-4.5594,-4.5594,-4.5568,-4.5504,-4.5419,-4.5184,-4.4839,-4.4503,-4.4196,-4.3833,-0.9687,-0.9627,-0.9591,-0.9587,-1.0177,-1.0915,-1.1679,-1.2524,-1.3676,-1.5375,-1.5745,-1.6169,-1.7073,-1.7887,-1.9022,-2.0674,0.0,0.0,0.0,0.0,0.0,0.0,0.0,0.0,0.0,0.0,0.0,0.0,0.0,0.0,0.0,0.0,0.0,0.0,0.0,0.0,0.0,0.0,0.0,0.0,0.0,0.0,-3.1383,-2.9865,-2.9108,-2.8675,-2.7152,-2.6589,-2.6338,-2.4902,-2.4534,-2.4727,-2.4828,-2.494,-2.4903,-2.4164,0.0,-2.3802,-2.3802,-2.5409,0.0,-2.7292,-2.8766,-3.0625,0.0,0.0,-3.3797,-3.6217,-3.6873,-3.7754,-4.0176,-4.0859,-4.1836,-4.4199,-4.4726,-4.5156,-4.6035,-4.6152,-4.6152,-4.6128,-4.6177,-4.6173,-4.617,-4.6059,-4.5963,-4.5883,-4.5828,-4.5757,-4.57,-4.5698,-4.5657,-4.5594,-4.5594,-4.5594,-4.5594,-4.5594,-4.5594,-4.5594,-4.5594,-4.5594,-4.5594,-4.5594,-4.5594,-4.5594,-4.5594,-4.5594,-4.5594,-4.5594,-4.5605,-4.5577,-4.5457,-4.5292,-4.5115,-4.4789,-4.4458,-4.4117,-0.9703,-0.968,-0.9797,-1.021,-1.0585,-1.1209,-1.2424,-1.2977,-1.3667,-1.4806,-1.5386,-1.5821,-1.6163,-1.7337,-1.861,-1.9893,-2.1554,0.0,0.0,0.0,0.0,0.0,0.0,0.0,0.0,0.0,0.0,0.0,0.0,0.0,0.0,0.0,0.0,0.0,0.0,0.0,0.0,0.0,0.0,0.0,0.0,0.0,-3.0817,-2.9204,-2.855,-2.8339,-2.7167,-2.6503,0.0,0.0,-2.4626,-2.4802,-2.498,-2.5124,-2.5248,-2.5485,-2.5543,0.0,-2.6741,0.0,0.0,0.0,-3.2222,-3.3919,-3.5204,-3.6354,-3.7422,-3.8539,-3.9156,-3.9863,-4.0996,-4.1992,-4.3008,0.0,-4.5098,-4.5879,-4.625,-4.6308,-4.6308,-4.6308,-4.6282,-4.6246,-4.6204,-4.6157,-4.6084,-4.6017,-4.5919,-4.5848,-4.5812,-4.5773,-4.5722,-4.5657,-4.5657,-4.564,-4.5594,-4.5594,-4.5594,-4.5594,-4.5594,-4.5594,-4.5594,-4.5594,-4.5594,-4.5594,-4.5594,-4.5594,-4.5594,-4.5594,-4.5594,-4.5586,-4.5495,-4.54,-4.5272,-4.4888,-4.4554,-4.4221,-0.9735,-0.9909,-1.0285,-1.103,-1.1338,-1.1879,-1.3028,-1.3446,-1.3847,-1.4422,-1.5013,-1.5545,-1.5986,-1.7062,-1.8235,-1.9409,-2.1033,-2.2675,0.0,0.0,0.0,0.0,0.0,0.0,0.0,0.0,0.0,0.0,0.0,0.0,0.0,0.0,0.0,0.0,0.0,0.0,0.0,0.0,0.0,0.0,0.0,0.0,-3.0384,-2.8786,-2.8033,-2.7745,-2.687,-2.6182,0.0,0.0,-2.4723,-2.4846,-2.5044,-2.5147,-2.5382,-2.6326,-2.7101,-2.7909,-2.9121,0.0,0.0,-3.3375,-3.503,-3.6619,-3.7579,-3.8815,-3.985,-4.0119,-4.0658,-4.119,-4.1484,-4.2519,0.0,-4.3984,-4.5117,-4.6035,-4.6269,-4.6308,-4.6308,-4.6308,-4.6308,-4.6286,-4.6237,-4.6232,-4.6198,-4.6125,-4.6035,-4.5977,-4.5937,-4.5848,-4.5791,-4.5738,-4.5714,-4.5682,-4.5631,-4.5622,-4.5594,-4.5594,-4.5594,-4.5594,-4.5594,-4.5594,-4.5594,-4.5594,-4.5594,-4.5594,-4.5594,-4.5594,-4.5594,-4.5586,-4.5541,-4.5476,-4.539,-4.503,-4.4713,-4.4393,-0.9801,-1.0428,-1.1185,-1.193,-1.2704,-1.3217,-1.3198,-1.3916,-1.4477,-1.4495,-1.4513,-1.5129,-1.6688,-1.6908,-1.7622,-1.9354,-2.1033,-2.2438,-2.3471,0.0,0.0,0.0,0.0,0.0,0.0,0.0,0.0,0.0,0.0,0.0,0.0,0.0,0.0,0.0,0.0,0.0,0.0,0.0,0.0,0.0,0.0,0.0,-3.0538,-2.898,-2.7911,-2.7104,-2.6105,0.0,0.0,0.0,-2.4791,-2.484,-2.505,-2.5151,0.0,-2.6326,-2.8346,0.0,0.0,0.0,-3.536,-3.5406,-3.6736,-3.8295,-3.9296,-3.9625,-3.9967,-4.0876,-4.1087,-4.1366,-4.2207,-4.2402,-4.2988,-4.4687,-4.5,-4.5332,-4.6172,-4.6308,-4.6308,-4.6308,-4.6308,-4.6308,0.0,-4.6302,-4.6266,-4.6206,-4.6198,-4.613,-4.6003,-4.5922,-4.5866,-4.5807,-4.5727,-4.5703,-4.5701,-4.5631,-4.5594,-4.5594,-4.5594,-4.5594,-4.5594,-4.5594,-4.5594,-4.5594,-4.5594,-4.5594,-4.5594,-4.5594,-4.5594,-4.5586,-4.5541,-4.5504,-4.5476,-4.5258,-4.5033,-4.4745,-1.057,-1.0881,-1.1474,-1.2803,-1.3224,-1.3529,-1.3991,-1.4304,-1.45,-1.45,-1.497,0.0,0.0,0.0,0.0,0.0,-2.0294,-2.1695,-2.2694,-2.4374,0.0,0.0,0.0,0.0,0.0,0.0,0.0,0.0,0.0,0.0,0.0,0.0,0.0,0.0,0.0,0.0,0.0,0.0,0.0,0.0,0.0,0.0,-2.9193,-2.8084,-2.7169,-2.6365,0.0,0.0,0.0,0.0,0.0,0.0,-2.496,0.0,0.0,-2.8527,0.0,0.0,0.0,0.0,-3.731,-3.7938,-3.8949,-3.9944,-4.0379,-4.0513,-4.0507,-4.0285,-4.0263,-4.0212,-3.9922,-4.082,-4.1797,-4.2383,-4.3906,-4.5098,-4.5391,-4.5937,-4.6308,-4.6308,-4.6308,0.0,0.0,0.0,0.0,-4.6274,-4.6238,-4.6401,-4.6893,-4.6909,-4.7111,-4.7591,-4.7532,-4.7194,-4.6571,-4.6491,-4.6159,-4.5594,-4.5594,-4.5594,-4.5594,-4.5594,-4.5594,-4.5594,-4.5594,-4.5594,-4.5594,-4.5594,-4.5594,-4.5594,-4.5577,-4.5568,-4.5559,-4.5438,-4.526,-4.4992,-1.1056,-1.1619,-1.2342,-1.3337,-1.3675,0.0,0.0,0.0,0.0,0.0,0.0,0.0,0.0,0.0,0.0,0.0,0.0,-2.1221,-2.1935,0.0,0.0,0.0,0.0,0.0,0.0,0.0,0.0,0.0,0.0,0.0,0.0,0.0,0.0,0.0,0.0,0.0,0.0,0.0,0.0,0.0,0.0,0.0,-2.8037,-2.7199,-2.6563,0.0,0.0,0.0,0.0,0.0,0.0,0.0,0.0,0.0,0.0,-2.9917,-3.2019,-3.4141,0.0,-3.7373,-3.9126,-4.0058,-4.0732,-4.1195,-4.131,-4.0922,-4.0315,-3.9522,-3.9168,-3.8806,-3.8242,-3.9316,-4.0469,-4.1094,-4.3086,-4.4648,-4.4961,-4.5742,-4.6308,-4.6308,-4.6308,-4.6308,0.0,0.0,0.0,-4.6304,-4.6552,-4.693,-4.7448,-4.7749,-4.8109,-4.855,-4.8507,-4.8153,-4.7515,-4.7143,-4.6527,-4.564,-4.5603,-4.5594,-4.5594,-4.5594,-4.5594,-4.5594,-4.5594,-4.5594,-4.5594,-4.5594,-4.5594,-4.5594,-4.5594,-4.5594,-4.5586,-4.5522,-4.541,-4.5211,-1.1331,-1.2614,-1.367,0.0,0.0,0.0,0.0,0.0,0.0,0.0,0.0,0.0,0.0,0.0,0.0,0.0,0.0,0.0,0.0,0.0,0.0,0.0,0.0,0.0,0.0,0.0,0.0,0.0,0.0,0.0,0.0,0.0,0.0,0.0,0.0,0.0,0.0,0.0,0.0,0.0,0.0,0.0,-2.7167,-2.6401,0.0,0.0,0.0,0.0,0.0,0.0,0.0,0.0,0.0,0.0,0.0,0.0,0.0,-3.5865,-3.6673,-3.8757,-4.0897,-4.1744,-4.2012,-4.2066,-4.2043,-4.0793,-3.9429,-3.863,-3.7747,-3.7107,0.0,0.0,-3.8965,-4.0723,-4.248,-4.3945,-4.4805,-4.5723,-4.6308,0.0,0.0,0.0,0.0,0.0,0.0,-4.6424,0.0,-4.7633,-4.7721,-4.8447,-4.8867,-4.884,-4.8774,-4.8654,-4.847,-4.7611,-4.6688,-4.5759,-4.5689,-4.5633,-4.5594,-4.5594,-4.5594,-4.5594,-4.5594,-4.5594,-4.5594,-4.5594,-4.5594,-4.5594,-4.5594,-4.5594,-4.5586,-4.5522,-4.5457,-4.5371,0.0,0.0,0.0,0.0,0.0,0.0,0.0,0.0,0.0,0.0,0.0,0.0,0.0,0.0,0.0,0.0,0.0,0.0,0.0,0.0,0.0,0.0,0.0,0.0,0.0,0.0,0.0,0.0,0.0,0.0,0.0,0.0,0.0,0.0,0.0,0.0,0.0,0.0,0.0,0.0,0.0,0.0,-2.6605,0.0,0.0,0.0,0.0,0.0,0.0,0.0,0.0,0.0,0.0,0.0,-3.2526,0.0,0.0,-3.8507,-3.9315,-4.1424,-4.3312,-4.2963,-4.2957,-4.2726,-4.1552,-4.0006,-3.8402,-3.6964,-3.5452,-3.4385,-3.4393,0.0,0.0,-3.8008,-4.0781,0.0,-4.3906,-4.5332,0.0,0.0,0.0,-4.7266,-4.7266,-4.7851,0.0,0.0,-4.7832,-4.8163,-4.9469,-4.9678,-5.0053,-5.0684,-5.0641,-5.0237,-4.945,-4.8476,-4.7532,-4.6587,-4.6574,-4.622,-4.5594,-4.5594,-4.5594,-4.5594,-4.5594,-4.5594,-4.5594,-4.5594,-4.5594,-4.5594,-4.5594,-4.5594,-4.5594,-4.5577,-4.5522,-4.5467,0.0,0.0,0.0,0.0,0.0,0.0,0.0,0.0,0.0,0.0,0.0,0.0,0.0,0.0,0.0,0.0,0.0,0.0,0.0,0.0,0.0,0.0,0.0,0.0,0.0,0.0,0.0,0.0,0.0,0.0,0.0,0.0,0.0,0.0,0.0,0.0,0.0,0.0,0.0,0.0,0.0,0.0,0.0,0.0,0.0,0.0,0.0,0.0,0.0,0.0,0.0,-2.9852,-3.1545,-3.3218,-3.4834,-3.6199,0.0,-4.0092,-4.1304,-4.2991,-4.4291,-4.3892,-4.3305,-4.2413,-4.0799,-3.8546,-3.6311,-3.4628,-3.2904,0.0,0.0,0.0,0.0,0.0,0.0,0.0,-4.3574,-4.5195,-4.6308,0.0,-4.707,0.0,-4.7598,-4.8398,-4.9062,0.0,-4.9023,-4.918,-5.0156,-5.0505,-5.0889,-5.138,-5.1357,-5.0855,-4.9853,-4.9226,-4.8443,-4.7513,-4.7099,-4.6642,-4.6163,-4.5768,-4.5594,-4.5594,0.0,-4.5594,-4.5594,-4.5594,-4.5594,-4.5594,-4.5594,-4.5594,-4.5594,-4.5594,-4.5577,-4.5522,0.0,0.0,0.0,0.0,0.0,0.0,0.0,0.0,0.0,0.0,0.0,0.0,0.0,0.0,0.0,0.0,0.0,0.0,0.0,0.0,0.0,0.0,0.0,0.0,0.0,0.0,0.0,0.0,0.0,0.0,0.0,0.0,0.0,0.0,0.0,0.0,0.0,0.0,0.0,0.0,0.0,0.0,0.0,0.0,0.0,0.0,0.0,0.0,0.0,0.0,-3.0333,-3.216,-3.3833,-3.5603,-3.7219,-3.8084,-3.9527,-4.1208,-4.2816,-4.3896,-4.4569,-4.4503,-4.3299,-4.1646,-3.9906,-3.6874,-3.394,-3.2264,0.0,0.0,-3.0295,0.0,-3.3747,-3.6365,0.0,-4.2285,-4.3379,-4.5039,-4.6172,-4.6289,-4.7168,-4.7773,-4.7773,-4.8652,-4.9551,-5.0293,-5.0351,-5.0351,-5.0351,-5.1015,-5.1404,-5.1399,-5.1403,-5.0987,-5.0086,-4.9953,-4.9361,-4.8288,-4.7486,-4.6955,-4.671,-4.596,-4.5594,-4.5594,0.0,0.0,-4.5594,-4.5594,-4.5594,-4.5594,-4.5594,-4.5594,-4.5594,-4.5594,-4.5594,-4.5586,0.0,0.0,0.0,0.0,0.0,0.0,0.0,0.0,0.0,0.0,0.0,0.0,0.0,0.0,0.0,0.0,0.0,0.0,0.0,0.0,0.0,0.0,0.0,0.0,0.0,0.0,0.0,0.0,0.0,0.0,0.0,0.0,0.0,0.0,0.0,0.0,0.0,0.0,0.0,0.0,0.0,0.0,0.0,0.0,0.0,0.0,0.0,0.0,0.0,0.0,-3.0698,-3.2987,-3.4731,-3.693,-3.9008,-3.9823,-4.1277,-4.2854,-4.3835,-4.4768,-4.5322,-4.4665,-4.3286,-4.1477,-3.9096,-3.5908,0.0,0.0,0.0,-2.761,-2.8491,-2.9481,0.0,-3.3643,0.0,0.0,0.0,0.0,-4.5487,0.0,0.0,0.0,0.0,0.0,0.0,0.0,0.0,-5.1191,-5.1191,-5.1328,-5.1406,-5.1404,-5.1402,-5.1286,-5.1066,-5.0927,-5.0015,-4.8377,-4.8168,-4.7295,-4.5896,-4.5689,-4.5594,-4.5594,-4.5594,0.0,-4.5594,-4.5594,-4.5594,-4.5594,-4.5594,-4.5594,-4.5594,-4.5594,-4.5594,-4.5594,0.0,0.0,0.0,0.0,0.0,0.0,0.0,-1.7064,-1.8298,-1.9499,-1.9997,-2.0271,-2.0363,-2.0025,0.0,0.0,0.0,0.0,0.0,0.0,0.0,0.0,0.0,0.0,0.0,0.0,0.0,0.0,0.0,0.0,0.0,0.0,0.0,0.0,0.0,0.0,0.0,0.0,0.0,0.0,0.0,0.0,0.0,0.0,0.0,0.0,0.0,0.0,0.0,0.0,-3.0506,-3.266,-3.4827,-3.7257,-3.9457,-4.0265,-4.172,-4.3278,-4.4085,-4.4983,-4.5395,-4.4133,-4.2595,-4.0589,-3.7579,0.0,0.0,0.0,0.0,-2.6439,-2.7317,0.0,0.0,0.0,0.0,0.0,0.0,0.0,0.0,0.0,0.0,0.0,0.0,0.0,0.0,0.0,0.0,-5.1406,-5.1406,-5.1406,-5.1406,-5.1406,-5.1398,-5.1166,-5.0686,-5.0579,-4.9833,-4.8445,-4.7908,-4.7209,-4.6309,-4.5823,-4.5594,-4.5594,-4.5594,0.0,-4.5594,-4.5594,-4.5594,-4.5594,-4.5594,-4.5594,-4.5594,-4.5594,-4.5594,-4.5594,0.0,0.0,0.0,0.0,0.0,0.0,0.0,-1.8307,-1.9876,-2.0214,-2.136,-2.1922,-2.1264,-2.0521,-2.0091,0.0,0.0,0.0,0.0,0.0,0.0,0.0,0.0,0.0,0.0,0.0,0.0,0.0,0.0,0.0,0.0,0.0,0.0,0.0,0.0,0.0,0.0,0.0,0.0,0.0,0.0,0.0,0.0,0.0,0.0,0.0,0.0,0.0,0.0,0.0,-2.9717,-3.1525,-3.3712,-3.6411,-3.8931,-3.9958,-4.1343,-4.2797,-4.397,-4.4716,-4.4842,-4.3516,-4.1644,-3.9303,-3.6068,-3.2685,0.0,0.0,0.0,-2.5691,-2.6375,0.0,0.0,0.0,0.0,0.0,0.0,0.0,0.0,0.0,0.0,0.0,0.0,0.0,0.0,0.0,0.0,0.0,-5.1387,-5.1406,-5.1328,-5.1152,-5.1132,-5.0717,-4.982,-4.9764,-4.9259,-4.8258,-4.7462,-4.6955,-4.6643,-4.5928,-4.5594,-4.5594,-4.5594,0.0,0.0,-4.5594,-4.5594,-4.5594,-4.5594,-4.5594,-4.5594,-4.5594,-4.5594,-4.5594,0.0,0.0,0.0,0.0,0.0,0.0,0.0,-1.884,-2.0473,-2.1878,-2.2243,-2.2332,-2.2192,-2.1463,-2.0732,0.0,0.0,0.0,0.0,0.0,0.0,0.0,0.0,0.0,0.0,0.0,0.0,0.0,0.0,0.0,0.0,0.0,0.0,0.0,0.0,0.0,0.0,0.0,0.0,0.0,0.0,0.0,0.0,0.0,0.0,0.0,0.0,0.0,0.0,0.0,0.0,-2.9531,-3.0558,-3.3654,-3.7257,-3.8911,0.0,0.0,-4.3643,-4.383,-4.3304,-4.3158,-4.0701,-3.7649,-3.5025,0.0,0.0,0.0,-2.6075,-2.5436,-2.5511,-2.6362,0.0,0.0,0.0,0.0,0.0,0.0,0.0,0.0,0.0,0.0,0.0,0.0,0.0,0.0,0.0,0.0,-5.1367,-5.1406,-5.1074,-5.0332,-5.0312,-4.986,-4.8936,-4.8901,-4.8438,-4.7497,-4.7222,-4.6684,-4.5889,-4.5693,-4.5594,-4.5594,-4.5594,0.0,0.0,-4.5594,-4.5594,-4.5594,-4.5594,-4.5594,-4.5594,-4.5594,-4.5594,-4.5594,0.0,0.0,0.0,0.0,0.0,0.0,-1.7433,-1.8945,-2.0584,-2.2205,-2.2874,-2.2994,-2.2469,-2.217,-2.1494,-2.0217,0.0,0.0,0.0,0.0,0.0,0.0,0.0,0.0,0.0,0.0,0.0,0.0,0.0,0.0,0.0,0.0,0.0,0.0,0.0,0.0,0.0,0.0,0.0,0.0,0.0,0.0,0.0,0.0,0.0,0.0,0.0,0.0,0.0,0.0,0.0,0.0,-2.8621,-3.0371,0.0,0.0,-3.8334,-4.0112,-4.1612,-4.2544,-4.284,-4.1809,-3.9776,-3.7248,-3.4167,0.0,0.0,-2.6997,-2.5976,-2.5397,-2.5391,-2.6129,-2.7145,0.0,0.0,0.0,0.0,0.0,0.0,0.0,0.0,0.0,0.0,0.0,0.0,0.0,0.0,0.0,-4.9902,-4.9902,-4.9746,-4.9433,-4.9414,-4.8983,-4.8082,-4.8086,-4.7582,-4.6613,-4.6498,-4.621,-4.58,-4.5706,-4.564,-4.5594,-4.5594,0.0,0.0,-4.5594,-4.5594,-4.5594,-4.5594,-4.5594,-4.5594,-4.5594,-4.5594,-4.5594,0.0,0.0,0.0,0.0,0.0,-1.6614,-1.716,-1.8852,-2.0484,-2.1638,-2.2737,-2.3086,-2.2263,-2.2239,-2.1712,-2.0255,-2.0174,0.0,0.0,0.0,0.0,0.0,0.0,0.0,0.0,0.0,0.0,0.0,0.0,0.0,0.0,0.0,0.0,0.0,0.0,0.0,0.0,0.0,0.0,0.0,0.0,0.0,0.0,0.0,0.0,0.0,0.0,0.0,0.0,0.0,0.0,0.0,0.0,0.0,0.0,0.0,-3.6007,-3.8092,-3.94,-4.0662,-4.1296,-4.0073,-3.8315,-3.6045,0.0,0.0,-2.8261,-2.6563,-2.575,-2.5361,-2.5361,-2.5875,-2.6653,0.0,-2.9753,-3.1933,-3.4258,0.0,0.0,0.0,0.0,0.0,0.0,0.0,0.0,0.0,0.0,0.0,0.0,-4.8262,-4.8242,-4.8516,-4.8516,-4.8105,-4.7226,-4.7218,-4.6843,-4.6122,-4.6041,-4.5929,-4.5836,-4.573,-4.5657,-4.5594,0.0,0.0,0.0,-4.5594,-4.5594,-4.5594,-4.5594,-4.5594,-4.5594,-4.5594,-4.5594,-4.5594,0.0,0.0,0.0,0.0,0.0,0.0,-1.6413,-1.8578,-2.0174,-2.0135,-2.1627,-2.2379,-2.1507,-2.1474,-2.1153,-2.0273,-2.0201,0.0,0.0,0.0,0.0,0.0,0.0,0.0,0.0,0.0,0.0,0.0,0.0,0.0,0.0,0.0,0.0,0.0,0.0,0.0,0.0,0.0,0.0,0.0,0.0,0.0,-2.5308,0.0,0.0,0.0,0.0,0.0,0.0,0.0,0.0,0.0,0.0,0.0,0.0,0.0,-3.2929,-3.4821,-3.7334,-3.8046,-3.8046,-3.8027,-3.6122,-3.3564,0.0,-2.9121,-2.7409,-2.5673,-2.5308,-2.5308,-2.5308,-2.5308,-2.5885,-2.762,-2.8705,0.0,0.0,0.0,0.0,0.0,0.0,0.0,0.0,0.0,0.0,0.0,0.0,0.0,0.0,-4.6797,-4.6719,-4.7598,-4.7617,-4.7207,-4.6328,-4.6301,-4.6266,-4.6206,-4.6063,-4.5953,-4.5893,-4.5762,-4.5657,0.0,0.0,0.0,0.0,-4.5594,-4.5594,-4.5594,-4.5594,-4.5594,-4.5594,-4.5594,-4.5594,-4.5594,0.0,0.0,0.0,0.0,0.0,0.0,0.0,-1.7581,-1.8888,-1.995,-2.1096,-2.1718,-2.1436,-2.1464,-2.1143,-2.0276,-2.0197,0.0,0.0,0.0,0.0,0.0,0.0,0.0,0.0,0.0,0.0,0.0,0.0,0.0,0.0,0.0,0.0,0.0,0.0,0.0,0.0,0.0,0.0,0.0,0.0,-2.5308,-2.5308,0.0,0.0,0.0,0.0,0.0,0.0,0.0,0.0,0.0,0.0,0.0,0.0,-2.7717,0.0,0.0,-3.4141,-3.5391,-3.6161,-3.5545,-3.393,-3.1968,-2.9967,-2.8217,-2.6697,-2.5538,-2.5308,-2.5308,-2.5308,-2.5346,-2.5745,-2.6899,0.0,0.0,0.0,0.0,0.0,0.0,0.0,0.0,0.0,0.0,0.0,0.0,0.0,0.0,0.0,-4.6445,-4.6426,-4.6699,-4.6719,-4.6582,-4.6308,-4.6306,-4.6278,-4.6197,-4.6109,-4.6008,-4.5904,-4.5805,0.0,0.0,0.0,0.0,0.0,-4.5594,-4.5594,-4.5594,-4.5594,-4.5594,-4.5594,-4.5594,-4.5594,-4.5594,0.0,0.0,0.0,0.0,0.0,0.0,0.0,-1.6654,-1.7688,-1.8994,-1.9921,-2.0571,-2.0886,-2.0915,-2.0728,-2.0164,-2.0126,0.0,0.0,0.0,0.0,0.0,0.0,0.0,0.0,0.0,0.0,0.0,0.0,0.0,0.0,0.0,0.0,0.0,0.0,0.0,0.0,0.0,0.0,0.0,-2.5308,-2.5308,-2.5308,0.0,0.0,0.0,0.0,0.0,0.0,0.0,0.0,0.0,0.0,0.0,0.0,0.0,-2.7852,-3.0025,0.0,-3.2506,-3.3365,-3.2487,-3.1487,-3.0275,-2.8544,-2.7351,-2.6346,-2.5481,-2.5308,-2.5308,-2.5308,-2.5606,-2.6154,-2.7041,0.0,0.0,0.0,0.0,0.0,0.0,0.0,0.0,0.0,0.0,0.0,0.0,0.0,0.0,0.0,-4.6308,-4.6308,-4.6308,-4.6308,-4.6308,-4.6308,-4.6308,-4.6283,-4.6246,-4.6162,-4.608,-4.5931,-4.5841,0.0,0.0,0.0,0.0,0.0,-4.5594,-4.5594,-4.5594,-4.5594,-4.5594,-4.5594,-4.5594,-4.5594,-4.5594,0.0,0.0,0.0,0.0,0.0,0.0,0.0,-1.5838,-1.664,-1.7404,-1.8317,-1.9163,-1.9912,-1.9992,-2.001,-1.9998,0.0,0.0,0.0,0.0,0.0,0.0,0.0,0.0,0.0,0.0,0.0,-2.5308,-2.5308,-2.5308,-2.5308,0.0,0.0,0.0,0.0,0.0,0.0,0.0,0.0,0.0,-2.5308,-2.5308,0.0,0.0,0.0,0.0,0.0,0.0,0.0,0.0,0.0,0.0,0.0,0.0,0.0,0.0,0.0,0.0,0.0,-2.9506,-3.0019,-2.9223,-2.8973,-2.8511,-2.6948,-2.6544,0.0,-2.5462,-2.5308,-2.5327,-2.5385,-2.6059,-2.6958,-2.8004,0.0,0.0,0.0,0.0,0.0,0.0,0.0,0.0,0.0,0.0,0.0,0.0,0.0,0.0,0.0,-4.6308,-4.6308,-4.6308,-4.6308,-4.6308,-4.6308,-4.6308,-4.6305,-4.6294,-4.6236,-4.6123,-4.6007,-4.5861,0.0,0.0,0.0,0.0,0.0,-4.5594,-4.5594,-4.5594,-4.5594,-4.5594,-4.5594,-4.5594,-4.5594,-4.5594,0.0,0.0,0.0,0.0,0.0,0.0,0.0,0.0,0.0,0.0,-1.7814,-1.8821,-1.9014,-1.9618,-1.9998,0.0,0.0,0.0,0.0,0.0,0.0,0.0,0.0,0.0,0.0,0.0,0.0,-2.5308,-2.5308,-2.5308,-2.5308,-2.5308,0.0,0.0,0.0,0.0,0.0,0.0,0.0,0.0,-2.5308,-2.5308,0.0,0.0,0.0,0.0,-2.4375,-2.4375,0.0,0.0,0.0,0.0,0.0,0.0,0.0,0.0,-2.5442,-2.5692,-2.6096,0.0,-2.8448,-2.8242,-2.7678,-2.7082,0.0,-2.6077,0.0,0.0,0.0,-2.5558,-2.6174,-2.6556,-2.7462,0.0,0.0,0.0,0.0,0.0,0.0,0.0,0.0,0.0,0.0,0.0,0.0,0.0,0.0,0.0,0.0,-4.6308,-4.6308,-4.6308,-4.6308,-4.6308,-4.6308,-4.6308,-4.6308,-4.6305,-4.6227,-4.6164,-4.6068,-4.5933,0.0,0.0,0.0,0.0,-4.5594,-4.5594,-4.5594,-4.5594,-4.5594,-4.5594,-4.5594,-4.5594,-4.5594,-4.5594,0.0,0.0,0.0,0.0,0.0,0.0,0.0,0.0,0.0,0.0,0.0,0.0,0.0,0.0,0.0,0.0,0.0,0.0,0.0,0.0,0.0,0.0,0.0,0.0,0.0,0.0,0.0,0.0,0.0,-2.5904,0.0,0.0,0.0,0.0,0.0,0.0,0.0,0.0,0.0,0.0,-2.5308,0.0,0.0,0.0,0.0,0.0,-2.349,-2.3764,0.0,-2.4601,-2.4981,-2.5308,0.0,0.0,0.0,0.0,-2.5308,-2.5385,-2.5788,-2.6582,-2.7294,-2.7294,-2.6948,-2.6601,-2.6601,0.0,0.0,0.0,0.0,0.0,-2.6569,0.0,0.0,0.0,0.0,0.0,0.0,0.0,0.0,0.0,0.0,0.0,0.0,0.0,0.0,0.0,0.0,0.0,0.0,-4.6308,-4.6308,-4.6308,-4.6308,-4.6308,-4.6308,-4.6308,-4.6308,-4.6307,-4.6256,-4.6208,-4.6148,-4.5998,-4.5892,0.0,0.0,0.0,-4.5594,-4.5594,-4.5594,-4.5594,-4.5594,-4.5594,-4.5594,-4.5594,-4.5594,-4.5594,0.0,0.0,0.0,0.0,0.0,0.0,0.0,0.0,0.0,0.0,0.0,0.0,0.0,0.0,0.0,0.0,0.0,0.0,0.0,0.0,0.0,0.0,0.0,0.0,0.0,0.0,0.0,0.0,0.0,0.0,0.0,0.0,-2.6524,0.0,0.0,0.0,0.0,0.0,0.0,-2.5288,-2.5173,0.0,0.0,0.0,0.0,0.0,0.0,0.0,0.0,-2.4014,-2.4548,-2.5135,-2.5269,0.0,0.0,0.0,0.0,0.0,-2.6043,-2.6505,-2.6794,-2.6794,-2.6794,-2.6794,0.0,0.0,0.0,0.0,0.0,0.0,0.0,0.0,0.0,0.0,0.0,0.0,0.0,0.0,0.0,0.0,0.0,0.0,0.0,0.0,0.0,0.0,0.0,0.0,0.0,-4.6308,-4.6308,-4.6308,-4.6308,-4.6308,-4.6308,-4.6308,-4.6308,-4.6307,-4.6301,-4.6261,-4.6192,-4.6059,-4.5939,-4.5801,0.0,0.0,-4.5603,-4.5594,-4.5594,-4.5594,-4.5594,-4.5594,-4.5594,-4.5594,-4.5594,-4.5594,0.0,0.0,0.0,0.0,0.0,0.0,0.0,0.0,0.0,0.0,0.0,0.0,0.0,0.0,0.0,0.0,0.0,0.0,0.0,0.0,0.0,0.0,0.0,0.0,0.0,0.0,0.0,0.0,0.0,0.0,-2.6601,-2.6601,-2.6212,-2.55,0.0,0.0,0.0,0.0,0.0,-2.525,0.0,0.0,0.0,0.0,0.0,0.0,0.0,0.0,0.0,-2.3605,-2.4187,-2.4394,-2.5096,0.0,0.0,0.0,0.0,0.0,-2.4625,-2.6068,-2.7698,-2.7698,-2.7698,-2.7698,0.0,0.0,0.0,0.0,0.0,0.0,0.0,0.0,0.0,0.0,0.0,0.0,0.0,0.0,0.0,0.0,0.0,0.0,0.0,0.0,0.0,0.0,0.0,0.0,0.0,-4.6308,-4.6308,-4.6308,-4.6308,-4.6308,-4.6308,-4.6308,-4.6308,-4.6308,-4.6307,-4.6259,-4.6195,-4.6118,-4.6002,-4.5891,0.0,-4.5746,-4.5684,-4.5631,-4.5594,-4.5594,-4.5594,-4.5594,-4.5594,-4.5594,-4.5594,-4.5594,0.0,0.0,0.0,0.0,0.0,0.0,0.0,0.0,0.0,0.0,0.0,0.0,0.0,0.0,0.0,0.0,0.0,0.0,0.0,0.0,0.0,0.0,0.0,0.0,0.0,0.0,0.0,0.0,0.0,-2.7736,-2.7294,-2.6813,-2.6135,-2.5308,0.0,0.0,0.0,0.0,0.0,-2.5231,0.0,0.0,0.0,0.0,0.0,0.0,0.0,0.0,0.0,0.0,-2.3317,-2.4168,-2.4529,0.0,0.0,0.0,0.0,0.0,-2.4851,-2.6294,-2.8011,-2.8434,-2.8549,-2.8549,0.0,0.0,0.0,0.0,0.0,0.0,0.0,0.0,0.0,0.0,0.0,0.0,0.0,0.0,0.0,0.0,0.0,0.0,0.0,0.0,0.0,0.0,0.0,0.0,0.0,0.0,-4.6308,-4.6308,-4.6308,-4.6308,-4.6308,-4.6308,-4.6308,-4.6308,-4.6308,-4.6283,-4.6248,-4.6184,-4.608,-4.5956,0.0,-4.5758,-4.5693,-4.5631,-4.5594,-4.5594,-4.5594,-4.5594,-4.5594,-4.5594,-4.5594,-4.5594,0.0,0.0,0.0,0.0,0.0,0.0,0.0,0.0,0.0,0.0,0.0,0.0,0.0,0.0,0.0,0.0,0.0,0.0,0.0,0.0,0.0,0.0,0.0,0.0,0.0,0.0,-2.5923,-2.6601,-2.8088,-2.8396,-2.7582,-2.6909,-2.6135,0.0,0.0,0.0,0.0,0.0,-2.5192,-2.4942,0.0,0.0,0.0,0.0,0.0,0.0,0.0,0.0,0.0,0.0,0.0,0.0,0.0,0.0,0.0,-2.4048,-2.4505,-2.5212,-2.4827,-2.6274,-2.8049,-2.8665,0.0,0.0,0.0,0.0,0.0,0.0,0.0,0.0,0.0,0.0,0.0,0.0,0.0,0.0,0.0,0.0,0.0,0.0,0.0,0.0,0.0,0.0,0.0,0.0,0.0,0.0,0.0,0.0,-4.6308,-4.6308,-4.6308,-4.6308,-4.6308,-4.6308,-4.6308,-4.6308,-4.6308,-4.6305,-4.6296,-4.6223,-4.6137,-4.6013,-4.5886,-4.5798,-4.5726,-4.5648,-4.5603,-4.5594,-4.5594,-4.5594,-4.5594,-4.5594,-4.5594,-4.5594,0.0,0.0,0.0,0.0,0.0,0.0,0.0,0.0,0.0,0.0,0.0,0.0,0.0,0.0,0.0,0.0,0.0,0.0,0.0,0.0,0.0,0.0,0.0,0.0,0.0,-2.5678,-2.6544,-2.6601,-2.7525,-2.7544,-2.6697,-2.664,-2.6135,-2.5308,0.0,0.0,0.0,0.0,0.0,-2.411,-2.324,0.0,0.0,0.0,0.0,0.0,0.0,0.0,0.0,0.0,0.0,0.0,0.0,0.0,-2.4014,-2.3144,-2.4043,-2.4962,-2.3408,-2.5394,-2.7915,-2.7972,0.0,0.0,0.0,0.0,0.0,0.0,0.0,0.0,0.0,0.0,0.0,0.0,0.0,0.0,0.0,0.0,0.0,0.0,0.0,0.0,0.0,0.0,0.0,0.0,0.0,0.0,0.0,0.0,0.0,-4.6308,-4.6308,-4.6308,-4.6308,-4.6308,-4.6308,-4.6308,-4.6308,-4.6308,-4.6306,-4.6231,-4.6155,-4.6087,-4.5949,-4.5854,-4.5792,-4.5714,-4.5648,-4.5594,-4.5594,-4.5594,-4.5594,-4.5594,-4.5594,-4.5594,0.0,0.0,0.0,0.0,0.0,0.0,0.0,0.0,0.0,0.0,0.0,0.0,0.0,0.0,0.0,0.0,0.0,0.0,0.0,0.0,0.0,0.0,0.0,-2.2643,-2.4072,-2.5736,-2.6601,-2.6601,-2.6928,-2.6928,-2.6582,-2.6058,0.0,0.0,0.0,0.0,0.0,0.0,0.0,-2.3967,-2.3084,-2.2244,0.0,0.0,0.0,0.0,0.0,0.0,0.0,0.0,-2.1096,-2.162,-2.2274,-2.322,-2.3937,-2.3067,-2.3985,-2.5058,-2.3913,-2.5702,-2.7895,-2.7895,0.0,0.0,0.0,0.0,0.0,0.0,0.0,0.0,0.0,0.0,0.0,0.0,0.0,0.0,0.0,0.0,0.0,0.0,0.0,0.0,0.0,0.0,0.0,0.0,0.0,0.0,0.0,0.0,0.0,-4.6308,-4.6308,-4.6308,-4.6308,-4.6308,-4.6308,-4.6308,-4.6308,-4.6308,-4.6307,-4.6277,-4.623,-4.6151,-4.6022,-4.5922,-4.5852,-4.5792,-4.5722,-4.5657,-4.5622,-4.5594,-4.5594,-4.5594,-4.5594,-4.5594,0.0,0.0,0.0,0.0,0.0,0.0,0.0,0.0,0.0,0.0,0.0,0.0,0.0,0.0,0.0,0.0,0.0,0.0,0.0,0.0,0.0,0.0,0.0,-2.2197,-2.3663,-2.5087,-2.6063,-2.6601,-2.6601,-2.6467,-2.6173,0.0,0.0,0.0,0.0,0.0,0.0,0.0,0.0,0.0,-2.2637,-2.1814,0.0,0.0,0.0,0.0,0.0,0.0,0.0,0.0,-2.0673,-2.1177,-2.1427,-2.2312,-2.322,-2.2893,-2.3812,-2.4793,-2.424,-2.5952,-2.7953,0.0,0.0,0.0,0.0,0.0,0.0,0.0,0.0,0.0,0.0,0.0,0.0,0.0,0.0,0.0,0.0,0.0,0.0,0.0,0.0,0.0,0.0,0.0,0.0,0.0,0.0,0.0,0.0,0.0,0.0,0.0,-4.6308,-4.6308,-4.6308,-4.6308,-4.6308,-4.6308,-4.6308,-4.6308,-4.6307,-4.6302,-4.6266,-4.6184,-4.6107,-4.6013,-4.5925,-4.5854,-4.5773,-4.5693,-4.5631,-4.5594,-4.5594,-4.5594,-4.5594,-4.5594,0.0,0.0,0.0,0.0,0.0,0.0,0.0,0.0,0.0,0.0,0.0,0.0,0.0,0.0,0.0,0.0,0.0,0.0,0.0,0.0,0.0,0.0,0.0,-2.1908,-2.2778,-2.3644,-2.4894,-2.6582,-2.6582,-2.6135,-2.5288,-2.5308,0.0,0.0,0.0,0.0,0.0,0.0,0.0,0.0,-2.1752,-2.0917,-2.0211,0.0,0.0,0.0,0.0,0.0,0.0,0.0,-2.0308,-2.0442,-2.1235,-2.1485,-2.1677,-2.2547,-2.3413,-2.411,-2.4129,-2.5972,0.0,0.0,0.0,0.0,0.0,0.0,0.0,0.0,0.0,0.0,0.0,0.0,0.0,0.0,0.0,0.0,0.0,0.0,0.0,0.0,0.0,0.0,0.0,0.0,0.0,0.0,0.0,0.0,0.0,0.0,0.0,0.0,-4.6308,-4.6308,-4.6308,-4.6308,-4.6308,-4.6308,-4.6308,-4.6308,-4.6308,-4.6308,-4.6261,-4.6202,-4.6199,-4.6111,-4.5997,-4.5935,-4.5826,-4.5701,-4.5631,-4.5594,-4.5594,-4.5594,-4.5594,-4.5594,0.0,0.0,0.0,0.0,0.0,0.0,0.0,0.0,0.0,0.0,0.0,0.0,0.0,0.0,0.0,0.0,0.0,0.0,0.0,0.0,0.0,0.0,0.0,0.0,0.0,0.0,-2.3721,-2.4836,-2.5409,-2.524,0.0,0.0,0.0,-2.5234,0.0,0.0,0.0,0.0,0.0,0.0,-2.1433,-2.0852,-2.013,0.0,0.0,0.0,0.0,0.0,0.0,0.0,0.0,0.0,-2.0577,-2.1038,-2.1677,-2.2547,-2.3413,-2.436,-2.5548,-2.728,0.0,0.0,0.0,0.0,0.0,0.0,0.0,0.0,0.0,0.0,0.0,0.0,0.0,0.0,0.0,0.0,0.0,0.0,0.0,0.0,0.0,0.0,0.0,0.0,0.0,0.0,0.0,0.0,0.0,0.0,0.0,0.0,-4.6308,-4.6308,-4.6308,-4.6308,-4.6308,-4.6308,-4.6308,-4.6308,-4.6308,-4.6308,-4.6284,-4.6277,-4.6222,-4.6187,-4.6135,-4.5961,-4.5854,-4.5762,-4.569,-4.564,-4.5594,-4.5594,-4.5594,-4.5594,0.0,0.0,0.0,0.0,0.0,0.0,0.0,0.0,0.0,0.0,0.0,-1.6743,0.0,0.0,0.0,0.0,0.0,0.0,0.0,0.0,0.0,0.0,0.0,0.0,0.0,-2.235,-2.2889,0.0,0.0,0.0,0.0,0.0,0.0,-2.5172,0.0,-2.468,0.0,0.0,0.0,0.0,-2.092,-2.0507,-2.0093,0.0,0.0,0.0,0.0,0.0,0.0,0.0,0.0,0.0,-2.0257,-2.0588,-2.1227,-2.2447,-2.3163,-2.4028,-2.6043,0.0,0.0,0.0,0.0,0.0,0.0,0.0,0.0,0.0,0.0,0.0,0.0,0.0,0.0,0.0,0.0,0.0,0.0,0.0,0.0,0.0,0.0,0.0,0.0,0.0,0.0,0.0,0.0,0.0,0.0,0.0,0.0,0.0,-4.5273,-4.5273,-4.5273,-4.5273,-4.5273,-4.5273,-4.5273,-4.5273,-4.5293,-4.5976,-4.6307,-4.6303,-4.6228,-4.6199,-4.6196,-4.6003,-4.5893,-4.5824,-4.5746,-4.5682,-4.564,-4.5622,-4.5594,-4.5594,0.0,0.0,-1.4969,-1.4973,0.0,0.0,0.0,0.0,0.0,0.0,0.0,-1.62,0.0,0.0,0.0,-1.8746,0.0,0.0,0.0,0.0,0.0,0.0,0.0,0.0,0.0,0.0,0.0,0.0,0.0,0.0,0.0,0.0,-2.4314,-2.5095,0.0,-2.4486,0.0,0.0,0.0,0.0,-2.0316,-2.005,-2.0098,-2.0093,0.0,0.0,0.0,0.0,0.0,0.0,0.0,0.0,-2.0195,-2.0192,-2.0522,-2.2192,-2.274,-2.3355,0.0,0.0,0.0,0.0,0.0,0.0,0.0,0.0,0.0,0.0,0.0,0.0,0.0,0.0,0.0,0.0,0.0,0.0,0.0,0.0,0.0,0.0,0.0,0.0,0.0,0.0,0.0,0.0,0.0,0.0,0.0,0.0,0.0,-4.3691,-4.3691,-4.3691,-4.3691,-4.3691,-4.3691,-4.3691,-4.3691,-4.3691,-4.375,-4.5332,-4.6054,-4.6053,-4.6072,-4.6082,-4.6069,-4.5929,-4.5842,-4.5764,-4.5568,-4.5472,-4.5461,-4.5477,-4.5479,-4.5498,0.0,0.0,-1.4776,-1.4821,0.0,0.0,0.0,0.0,-1.5026,-1.5026,-1.5174,-1.5496,-1.6083,-1.6516,0.0,-1.7672,-1.7992,0.0,0.0,0.0,0.0,0.0,0.0,0.0,0.0,0.0,0.0,0.0,0.0,0.0,0.0,0.0,0.0,-2.4999,0.0,-2.3543,0.0,0.0,0.0,-2.0261,-2.0072,-2.0015,-2.0024,-2.0025,-2.0016,0.0,0.0,0.0,0.0,0.0,0.0,0.0,-2.0195,-2.0192,-2.0407,-2.1462,-2.2254,-2.3355,0.0,0.0,0.0,0.0,0.0,0.0,0.0,0.0,0.0,0.0,0.0,0.0,0.0,0.0,0.0,0.0,0.0,0.0,0.0,0.0,0.0,0.0,0.0,0.0,0.0,0.0,0.0,0.0,0.0,0.0,0.0,0.0,0.0,-4.3691,-4.3691,-4.3691,-4.3691,-4.3691,-4.3691,0.0,-4.3691,-4.3691,-4.3711,-4.4082,-4.4258,-4.4297,-4.4977,-4.5238,-4.5174,-4.5095,-4.5021,-4.4876,-4.4065,-4.3713,-4.3728,-4.4352,-4.4586,-4.4682,0.0,0.0,0.0,0.0,0.0,0.0,0.0,0.0,-1.4859,-1.4859,-1.4859,-1.5019,-1.5428,-1.5871,0.0,0.0,-1.7271,-1.7587,0.0,0.0,0.0,0.0,0.0,0.0,0.0,0.0,0.0,0.0,0.0,0.0,0.0,0.0,0.0,-2.4926,0.0,-2.3302,0.0,0.0,0.0,-2.0053,-2.0005,-1.9767,-1.9409,-1.939,-1.9143,-1.8802,-1.8802,0.0,0.0,0.0,0.0,0.0,0.0,0.0,-2.0371,-2.1246,-2.212,-2.3355,0.0,0.0,0.0,0.0,0.0,0.0,0.0,0.0,0.0,0.0,0.0,0.0,0.0,0.0,0.0,0.0,0.0,0.0,0.0,0.0,0.0,0.0,0.0,0.0,0.0,0.0,0.0,0.0,0.0,0.0,0.0,-4.25,-4.25,-4.25,-4.25,-4.25,-4.25,-4.25,-4.25,-4.25,-4.25,-4.25,-4.2539,-4.332,-4.3691,-4.373,-4.4179,-4.4368,-4.431,-4.4253,-4.4183,-4.4074,-4.351,-4.3252,-4.3196,-4.3585,-4.3968,-4.4355,0.0,0.0,0.0,0.0,0.0,0.0,0.0,0.0,0.0,-1.488,-1.4903,-1.4932,-1.4971,-1.5527,-1.5894,0.0,0.0,0.0,-1.7248,0.0,0.0,0.0,0.0,0.0,0.0,0.0,0.0,0.0,0.0,0.0,0.0,0.0,0.0,-2.4879,0.0,0.0,0.0,0.0,-2.0759,-1.9888,-1.9967,-1.9438,-1.8602,-1.8687,-1.8227,-1.753,-1.753,-1.7942,-1.854,-1.875,0.0,0.0,0.0,0.0,-2.0167,-2.103,-2.1793,-2.2928,0.0,0.0,0.0,0.0,0.0,0.0,0.0,0.0,0.0,0.0,0.0,0.0,0.0,0.0,0.0,0.0,0.0,0.0,0.0,0.0,0.0,0.0,0.0,0.0,0.0,0.0,0.0,0.0,0.0,0.0,-4.1172,-4.1172,-4.1191,-4.1191,-4.1191,-4.1191,-4.1191,-4.1191,-4.1191,-4.1191,-4.1191,-4.1191,-4.125,-4.2637,-4.3262,-4.3281,-4.3417,-4.3472,-4.346,-4.3418,-4.335,-4.3268,-4.3052,-4.2892,-4.2793,-4.2876,-4.3315,-4.391,0.0,0.0,0.0,0.0,0.0,0.0,0.0,0.0,0.0,0.0,-1.5704,-1.5739,-1.5757,-1.5297,-1.5006,-1.5078,-1.5241,-1.5362,0.0,0.0,0.0,0.0,0.0,0.0,0.0,0.0,0.0,0.0,0.0,0.0,0.0,0.0,0.0,-2.4898,0.0,0.0,0.0,0.0,-2.0402,-1.9026,-1.9711,-1.9107,-1.7841,-1.8512,-1.8297,-1.7585,-1.7585,-1.7661,-1.7856,-1.8631,-1.8965,0.0,0.0,0.0,0.0,0.0,0.0,0.0,0.0,0.0,0.0,0.0,0.0,0.0,0.0,0.0,0.0,0.0,0.0,0.0,0.0,0.0,0.0,0.0,0.0,0.0,0.0,0.0,0.0,0.0,0.0,0.0,0.0,0.0,0.0,0.0,0.0,0.0,-4.1112,-4.1112,-4.1132,-4.1191,-4.1191,-4.1191,-4.1191,-4.1191,-4.1191,-4.1191,-4.1191,-4.1191,-4.1211,-4.1426,-4.1523,-4.1562,-4.2266,-4.2576,-4.2569,-4.2557,-4.2524,-4.2383,-4.1557,-4.1191,-4.1202,-4.1885,-4.2182,-4.2314,0.0,0.0,0.0,0.0,0.0,0.0,0.0,0.0,0.0,0.0,0.0,-1.5861,-1.5908,-1.5633,-1.533,-1.4927,-1.4952,0.0,0.0,0.0,0.0,0.0,0.0,0.0,0.0,0.0,0.0,0.0,0.0,0.0,0.0,-2.4959,-2.6012,0.0,0.0,0.0,0.0,0.0,0.0,-1.9559,-1.9912,-1.9369,-1.8376,-1.8724,-1.8332,-1.7595,-1.7595,0.0,-1.8398,-1.8767,-1.9216,-1.9622,-1.9561,0.0,0.0,0.0,0.0,0.0,0.0,0.0,0.0,0.0,0.0,0.0,0.0,0.0,0.0,0.0,0.0,0.0,0.0,0.0,0.0,0.0,0.0,0.0,0.0,0.0,0.0,0.0,0.0,0.0,0.0,0.0,0.0,0.0,0.0,-4.1091,-4.1101,-4.1104,-4.1108,-4.1132,-4.1132,-4.1152,-4.1191,-4.1191,-4.1191,-4.1191,-4.1191,-4.1191,-4.1191,-4.1191,-4.1191,-4.1211,-4.1562,-4.1718,-4.1675,-4.167,-4.1653,-4.1574,-4.114,-4.0917,-4.0893,-4.1216,-4.1596,-4.2021,0.0,0.0,0.0,0.0,0.0,0.0,0.0,0.0,0.0,0.0,0.0,-1.6121,-1.6163,0.0,0.0,0.0,-1.4951,0.0,0.0,0.0,0.0,0.0,0.0,0.0,0.0,0.0,0.0,0.0,0.0,0.0,-2.206,-2.5219,-2.6518,0.0,-2.5874,0.0,0.0,0.0,0.0,-2.0131,-2.0346,-1.9945,-1.9273,-1.9713,-1.9354,-1.8596,-1.8596,0.0,0.0,0.0,0.0,0.0,0.0,0.0,0.0,0.0,0.0,0.0,0.0,0.0,0.0,0.0,0.0,0.0,0.0,0.0,0.0,0.0,0.0,0.0,0.0,0.0,0.0,0.0,0.0,0.0,0.0,0.0,0.0,0.0,0.0,0.0,0.0,0.0,0.0,0.0,0.0,-4.1052,-4.1074,-4.1064,-4.1076,-4.1108,-4.1109,-4.1111,-4.1171,-4.1172,-4.1172,-4.1172,-4.1191,-4.1191,-4.1191,-4.1191,-4.1191,-4.1191,-4.1191,-4.1152,-4.1092,-4.1109,-4.11,-4.1099,-4.1042,-4.098,-4.0918,-4.0872,-4.1218,-4.1714,0.0,0.0,0.0,0.0,0.0,0.0,0.0,0.0,0.0,0.0,0.0,-1.6946,-1.6929,-1.631,-1.5623,-1.4963,-1.4901,0.0,0.0,0.0,0.0,0.0,0.0,0.0,0.0,0.0,0.0,0.0,0.0,0.0,-2.123,-2.3809,-2.5485,-2.6322,-2.7117,-2.6567,-2.4936,0.0,0.0,0.0,-2.101,-2.0855,-2.0303,-2.197,-2.206,-2.1304,0.0,0.0,0.0,0.0,0.0,0.0,0.0,0.0,0.0,0.0,0.0,0.0,0.0,0.0,0.0,0.0,0.0,0.0,0.0,0.0,0.0,0.0,0.0,0.0,0.0,0.0,0.0,0.0,0.0,0.0,0.0,0.0,0.0,0.0,0.0,0.0,0.0,0.0,0.0,0.0,0.0,-4.0941,-4.0994,-4.1014,-4.102,-4.109,-4.1097,-4.1102,-4.1108,-4.111,-4.1112,-4.1112,-4.1172,-4.1191,-4.1191,-4.1191,-4.1191,-4.1191,-4.1191,-4.1152,-4.1092,-4.1092,-4.1107,-4.1097,-4.109,-4.1048,-4.0992,-4.099,-4.0976,-4.0961,0.0,0.0,0.0,0.0,0.0,0.0,0.0,0.0,0.0,0.0,0.0,0.0,0.0,-1.7102,-1.6369,-1.5609,-1.5065,0.0,0.0,0.0,0.0,0.0,0.0,0.0,0.0,0.0,0.0,0.0,0.0,-1.9345,-2.0326,-2.3364,-2.5302,-2.6252,-2.6614,-2.6174,-2.5099,-2.394,0.0,0.0,-2.2738,-2.2915,0.0,-2.3971,-2.4207,-2.3942,0.0,0.0,0.0,0.0,0.0,0.0,0.0,-1.8842,-1.7479,-1.6364,0.0,0.0,0.0,0.0,0.0,0.0,0.0,0.0,0.0,0.0,0.0,0.0,0.0,0.0,0.0,0.0,0.0,0.0,0.0,0.0,0.0,0.0,0.0,0.0,0.0,0.0,0.0,0.0,0.0,0.0,0.0,0.0,-3.9267,-3.9303,-3.9354,-3.9425,-3.9435,-3.9426,-3.9438,-3.9463,-3.9506,-3.9508,-4.0096,-4.0371,-4.0371,-4.0937,-4.1191,-4.1191,-4.1191,-4.1191,-4.1152,-4.1152,-4.1131,-4.1108,-4.1107,-4.1098,-4.1062,-4.1053,-4.1052,-4.1022,0.0,0.0,0.0,-1.741,0.0,-1.5924,-1.5392,-1.5759,-1.6383,-1.7202,0.0,0.0,0.0,0.0,-1.7034,-1.5965,-1.5378,-1.4942,-1.4685,0.0,0.0,0.0,0.0,0.0,0.0,0.0,0.0,0.0,0.0,0.0,0.0,-2.1741,-2.3559,-2.4509,-2.4819,-2.5196,0.0,0.0,0.0,-2.3285,0.0,0.0,-2.5087,0.0,-2.7019,0.0,0.0,0.0,0.0,0.0,0.0,0.0,0.0,-1.9104,-1.7052,-1.617,0.0,0.0,0.0,0.0,0.0,0.0,0.0,0.0,0.0,0.0,0.0,0.0,0.0,0.0,0.0,0.0,0.0,0.0,0.0,0.0,0.0,0.0,0.0,0.0,0.0,0.0,0.0,0.0,0.0,0.0,0.0,0.0,-3.8262,-3.8311,-3.8362,-3.8461,-3.8477,-3.8473,-3.8471,-3.8525,-3.8574,-3.8563,-3.9176,-3.9452,-3.9492,-4.0371,-4.0762,-4.0781,-4.1074,-4.1191,-4.1191,-4.1191,-4.1172,-4.1132,-4.1132,-4.113,-4.1103,-4.11,-4.1094,-4.1083,-1.9297,-1.8665,-1.8133,-1.8089,-1.744,-1.6927,-1.6908,-1.6927,-1.722,-1.7997,0.0,0.0,0.0,0.0,0.0,-1.6005,-1.5826,-1.5467,-1.4687,-1.4613,0.0,0.0,0.0,0.0,0.0,0.0,0.0,0.0,0.0,0.0,0.0,0.0,-2.0151,0.0,-2.1896,-2.37,-2.6046,0.0,-2.3881,-2.4114,0.0,-2.5903,-2.6986,0.0,0.0,0.0,-3.1429,-3.0121,0.0,0.0,0.0,0.0,0.0,-1.916,-1.6567,-1.7274,-1.7494,0.0,0.0,0.0,0.0,0.0,0.0,0.0,0.0,0.0,0.0,0.0,0.0,0.0,0.0,0.0,0.0,0.0,0.0,0.0,0.0,0.0,0.0,0.0,0.0,0.0,0.0,0.0,0.0,0.0,0.0,-3.8047,-3.8118,-3.8119,-3.8185,-3.8323,-3.8326,-3.8328,-3.8325,-3.8397,-3.8424,-3.8422,-3.8523,-3.8551,-3.8593,-3.9453,-3.9883,-3.9941,-4.0781,-4.1172,-4.1191,-4.1191,-4.1191,-4.1191,-4.1191,-4.1152,-4.1092,-4.1092,-4.1108,-4.1099,-1.9297,-1.9113,-1.8775,-1.8207,-1.7924,-1.7575,-1.7,-1.7385,-1.7851,0.0,0.0,0.0,-1.9803,-1.9334,-1.857,-1.7548,-1.6403,-1.5619,-1.541,-1.4853,-1.4516,-1.4499,-1.4499,-1.4499,0.0,0.0,0.0,0.0,0.0,0.0,0.0,0.0,0.0,0.0,-2.0715,-2.184,-2.2664,-2.3507,0.0,0.0,-2.6516,-2.8003,0.0,0.0,0.0,0.0,0.0,-3.1737,0.0,0.0,-2.8387,-2.6121,0.0,0.0,0.0,-1.7748,-1.7387,0.0,-1.8369,0.0,0.0,0.0,0.0,0.0,0.0,0.0,0.0,0.0,0.0,0.0,0.0,0.0,0.0,0.0,0.0,0.0,0.0,0.0,0.0,0.0,0.0,0.0,0.0,0.0,0.0,0.0,-3.6213,-3.624,-3.6254,-3.6294,-3.6361,-3.6435,-3.6439,-3.6447,-3.6448,-3.651,-3.6573,-3.6631,-3.7289,-3.7603,-3.7692,-3.8553,-3.9297,-3.9902,-4.0156,-4.0625,-4.1191,-4.1191,-4.1191,-4.1191,-4.1191,-4.1191,-4.1172,-4.1172,-4.1171,-4.1171,-1.9297,-1.9297,-1.926,-1.9117,-1.9098,-1.9062,-1.8951,-1.9344,-1.9638,0.0,0.0,0.0,-2.0996,-2.0619,-1.9866,-1.8702,-1.7736,-1.6763,-1.5772,-1.5252,-1.4842,-1.4512,-1.4493,-1.4493,-1.4493,0.0,0.0,0.0,0.0,0.0,0.0,0.0,0.0,0.0,-1.8784,-1.9632,-2.0185,-2.2017,0.0,0.0,-2.696,0.0,0.0,-3.1602,-3.2718,0.0,0.0,0.0,-3.266,-3.216,-3.0342,0.0,0.0,0.0,-2.0885,-1.9798,0.0,0.0,0.0,0.0,0.0,0.0,0.0,0.0,0.0,0.0,0.0,0.0,0.0,0.0,0.0,0.0,0.0,0.0,0.0,0.0,0.0,0.0,0.0,0.0,0.0,0.0,0.0,0.0,0.0,-3.55,-3.55,-3.5501,-3.5509,-3.5546,-3.5587,-3.5654,-3.5651,-3.5653,-3.5659,-3.5717,-3.5792,-3.5869,-3.6392,-3.668,-3.6741,-3.7649,-3.8336,-3.8846,-3.9199,-3.9843,-4.0664,-4.0664,-4.0879,-4.1191,-4.1191,-4.1191,-4.1191,-4.1191,-4.1191,-4.1191,0.0,-1.9363,-1.9656,-2.0382,-2.0584,-2.0914,-2.1684,-2.1794,-2.1794,0.0,-2.1886,-2.1923,-2.1923,-2.1923,-2.1335,-1.9848,-1.9462,-1.8397,-1.6249,-1.5845,-1.538,-1.4658,-1.4548,-1.4548,-1.4622,0.0,0.0,0.0,0.0,0.0,0.0,0.0,0.0,0.0,-1.6699,-1.7565,-1.8488,-2.0468,0.0,-2.4129,-2.6849,-2.857,0.0,0.0,-3.3583,0.0,-3.5212,-3.5007,-3.4314,-3.4122,-3.1872,0.0,0.0,-2.4263,-2.2878,-2.2615,-2.194,0.0,0.0,0.0,0.0,0.0,0.0,0.0,-2.3305,-2.4678,0.0,0.0,0.0,0.0,0.0,0.0,0.0,0.0,0.0,0.0,0.0,0.0,0.0,0.0,0.0,0.0,0.0,-3.55,-3.55,-3.55,-3.55,-3.5501,-3.5502,-3.5502,-3.5534,-3.5585,-3.5585,-3.5578,-3.5595,-3.567,-3.5713,-3.5786,-3.5846,-3.5894,-3.5923,-3.6752,-3.7192,-3.7332,-3.8101,-3.8943,-3.9764,-3.9863,-4.041,-4.1191,-4.1191,-4.1191,-4.1191,-4.1191,-4.1191,-4.1191,-1.9298,-1.9816,-2.0327,-2.0466,-2.1088,-2.161,-2.1776,-2.1794,-2.1794,-2.1794,-2.2354,-2.2767,-2.2767,-2.2767,-2.2621,-2.2309,-2.0446,-1.9095,-1.8636,-1.6782,-1.5625,-1.5472,-1.4842,-1.4805,-1.5454,-1.4829,0.0,0.0,0.0,0.0,0.0,0.0,0.0,0.0,-1.6435,-1.7238,-1.7662,-2.0765,0.0,-2.4024,-2.7407,0.0,-3.2295,-3.35,-3.4487,-3.5269,-3.5442,-3.5385,-3.5038,0.0,-3.1808,-2.9774,0.0,0.0,0.0,-2.3879,0.0,-2.2798,-2.2192,-2.1932,-2.183,-2.184,0.0,0.0,0.0,-2.4218,0.0,0.0,0.0,0.0,0.0,0.0,0.0,0.0,0.0,0.0,0.0,0.0,0.0,0.0,0.0,0.0,0.0,-3.55,-3.55,-3.55,-3.55,-3.5507,-3.5494,-3.5494,-3.5514,-3.552,-3.5527,-3.5528,-3.5528,-3.5584,-3.5648,-3.5713,-3.573,-3.5799,-3.59,-3.6097,-3.6551,-3.7237,-3.7402,-3.7995,-3.8918,-3.9607,-4.041,-4.1191,-4.1191,-4.1191,-4.1191,-4.1191,-4.1191,-4.1191,-1.9282,-1.9955,-2.0639,-2.107,-2.184,-2.252,-2.2951,-2.3006,-2.3006,-2.3006,-2.3694,-2.4355,-2.4749,-2.4804,-2.4474,-2.3676,-2.2464,-2.106,-1.9407,-1.8177,-1.7142,-1.6328,-1.59,-1.5704,-1.5698,-1.5307,-1.5105,0.0,0.0,0.0,0.0,0.0,0.0,0.0,0.0,-1.7509,0.0,0.0,-2.286,-2.505,-2.7376,0.0,-3.2339,-3.3224,-3.4359,-3.55,-3.55,-3.55,-3.5224,-3.3486,-3.234,0.0,0.0,-2.7994,-2.7375,0.0,-2.5133,-2.4668,0.0,0.0,-2.3741,-2.4109,0.0,0.0,0.0,0.0,-2.4719,0.0,0.0,0.0,0.0,0.0,0.0,0.0,0.0,0.0,0.0,0.0,0.0,0.0,0.0,0.0,0.0,-3.4171,-3.4198,-3.4192,-3.4192,-3.4391,-3.4834,-3.4853,-3.5045,-3.5481,-3.55,-3.5494,-3.5495,-3.5534,-3.5584,-3.5648,-3.5644,-3.5703,-3.5803,-3.5822,-3.6086,-3.6504,-3.654,-3.7067,-3.7939,-3.8366,-3.9312,-4.0546,-4.1015,-4.1191,-4.1191,-4.1191,-4.1191,-4.1191,-1.9219,-2.0034,-2.0918,-2.1648,-2.2575,-2.3437,-2.4098,-2.419,-2.4263,0.0,0.0,0.0,0.0,0.0,0.0,0.0,-2.4667,-2.34,0.0,0.0,-1.8886,-1.7429,-1.7073,-1.6677,-1.6169,-1.5864,-1.5454,0.0,0.0,0.0,0.0,0.0,0.0,0.0,0.0,0.0,0.0,0.0,0.0,-2.609,0.0,-2.9414,-3.1922,-3.2807,-3.4127,-3.55,-3.55,-3.55,-3.5224,-3.3493,0.0,-3.2461,-2.9959,-2.9147,0.0,0.0,0.0,0.0,0.0,0.0,0.0,0.0,0.0,-2.5509,0.0,0.0,0.0,-2.4409,0.0,0.0,0.0,0.0,0.0,0.0,0.0,0.0,0.0,0.0,0.0,0.0,0.0,0.0,0.0,-3.2593,-3.2564,-3.2404,-3.2551,-3.2962,-3.3654,-3.4026,-3.4526,-3.5231,-3.5404,-3.55,-3.55,-3.5495,-3.5534,-3.5591,-3.5581,-3.5621,-3.5672,-3.5737,-3.5769,-3.5782,-3.584,-3.627,-3.6935,-3.7127,-3.8028,-3.9407,-4.0526,-4.1055,-4.1191,-4.1191,-4.1191,-4.1191,-1.8992,-2.0309,-2.1452,-2.1679,-2.2969,-2.4031,-2.419,-2.419,-2.4456,0.0,0.0,0.0,0.0,0.0,0.0,0.0,0.0,0.0,-2.3749,0.0,-1.996,-1.9077,-1.7667,-1.7183,-1.7821,-1.6426,-1.6004,-1.6633,0.0,0.0,0.0,0.0,-1.6078,-1.6835,-1.8426,0.0,0.0,0.0,-2.4796,0.0,-2.7784,-3.0164,0.0,-3.3625,-3.4607,-3.55,-3.55,-3.55,-3.5231,0.0,-3.2904,-3.2583,0.0,-3.006,0.0,0.0,0.0,0.0,0.0,0.0,0.0,0.0,-2.6048,0.0,0.0,0.0,-2.4403,-2.4393,0.0,0.0,0.0,0.0,0.0,0.0,0.0,0.0,0.0,0.0,0.0,0.0,0.0,0.0,0.0,0.0,-3.1365,-3.065,-3.1309,-3.1796,-3.1892,-3.3365,-3.4244,-3.434,-3.5103,-3.55,-3.55,-3.5507,-3.5489,-3.5515,-3.5502,-3.5559,-3.5612,-3.5623,-3.5657,-3.5703,-3.5721,-3.5807,-3.6031,-3.6854,-3.7316,-3.7669,-3.937,-4.0527,-4.1191,-4.1191,-4.1191,-4.1191,-1.8824,-2.0264,-2.146,-2.158,-2.2948,-2.4064,-2.4123,-2.4565,-2.5521,0.0,0.0,0.0,0.0,0.0,0.0,0.0,0.0,-2.8301,0.0,0.0,0.0,-2.151,-2.0354,-1.9455,-1.8812,-1.814,-1.7277,-1.62,-1.5527,0.0,0.0,0.0,-1.7062,-1.8372,-2.0039,0.0,-2.2794,0.0,0.0,0.0,0.0,0.0,0.0,-3.318,-3.4248,-3.55,-3.55,-3.55,-3.5308,0.0,-3.3622,0.0,0.0,0.0,0.0,0.0,0.0,0.0,0.0,0.0,0.0,0.0,0.0,0.0,-2.6129,0.0,-2.4284,0.0,0.0,0.0,0.0,0.0,0.0,0.0,0.0,0.0,0.0,0.0,0.0,0.0,0.0,0.0,0.0,0.0,0.0,0.0,0.0,-3.033,-3.0867,-3.209,-3.3199,-3.4167,-3.4545,-3.4988,-3.55,-3.55,-3.5488,-3.5508,-3.5508,-3.5502,-3.5534,-3.554,-3.5565,-3.5595,-3.5632,-3.5689,-3.576,-3.6176,-3.6641,-3.7218,-3.8012,-3.8896,-3.9687,-3.9687,-4.0019,-4.0449,-1.9142,0.0,0.0,-2.1701,-2.2986,-2.4059,-2.4396,-2.5546,-2.7016,0.0,0.0,0.0,-3.1604,-3.2651,0.0,0.0,0.0,-3.087,0.0,0.0,-2.5448,-2.4052,-2.2795,0.0,0.0,-1.9646,-1.8434,-1.669,-1.6243,0.0,0.0,0.0,0.0,-1.9693,0.0,-2.3024,-2.4622,0.0,0.0,-2.8612,-2.9852,-3.153,-3.3304,-3.3446,-3.4337,-3.5467,-3.5493,-3.55,-3.5365,-3.4487,-3.4153,0.0,-3.3018,0.0,0.0,0.0,0.0,0.0,-3.0004,0.0,0.0,0.0,0.0,0.0,0.0,0.0,0.0,0.0,0.0,0.0,0.0,0.0,0.0,0.0,0.0,0.0,0.0,0.0,0.0,0.0,0.0,0.0,0.0,0.0,0.0,0.0,0.0,0.0,-2.9614,-3.0726,-3.2115,-3.3801,-3.409,-3.4622,-3.5481,-3.55,-3.55,-3.55,-3.55,-3.55,-3.55,-3.5495,-3.5489,-3.5496,-3.5553,-3.5606,-3.5676,-3.5674,-3.6082,-3.6722,-3.679,-3.7236,-3.792,-3.8413,-3.9002,-3.9589,-2.0211,-2.066,0.0,0.0,0.0,-2.4161,-2.5197,-2.7365,-2.8913,0.0,0.0,0.0,0.0,0.0,0.0,0.0,0.0,-3.3018,-3.136,0.0,-2.7346,-2.651,-2.4217,-2.2933,0.0,-2.0519,-1.926,-1.9187,-1.7612,-1.6853,0.0,0.0,0.0,0.0,0.0,-2.3859,-2.5513,-2.802,-2.9143,-2.9436,-3.1272,-3.3223,-3.5045,0.0,-3.5348,-3.5412,-3.5486,0.0,0.0,-3.4487,-3.4159,0.0,0.0,0.0,0.0,0.0,0.0,0.0,0.0,0.0,0.0,-3.0166,0.0,0.0,0.0,0.0,-2.419,0.0,0.0,0.0,0.0,0.0,0.0,0.0,0.0,0.0,0.0,0.0,0.0,0.0,0.0,0.0,0.0,0.0,0.0,0.0,0.0,0.0,-2.7739,-2.9473,-3.1206,-3.2891,-3.3763,-3.4622,-3.5481,-3.55,-3.55,-3.55,-3.55,-3.55,-3.55,-3.55,-3.55,-3.5507,-3.5496,-3.5534,-3.5604,-3.561,-3.5659,-3.575,-3.581,-3.5891,-3.6197,-3.7947,-3.8623,-3.8761,0.0,0.0,0.0,0.0,0.0,-2.4514,-2.6664,-2.8594,0.0,0.0,0.0,0.0,0.0,0.0,-3.7918,0.0,0.0,-3.6119,-3.3922,-3.2014,0.0,0.0,0.0,-2.5933,0.0,0.0,-2.2014,-2.0949,-1.9832,-1.9006,0.0,0.0,0.0,0.0,0.0,-2.4979,0.0,0.0,0.0,0.0,0.0,-3.4787,-3.6402,0.0,0.0,-3.7057,-3.7076,-3.6711,0.0,-3.5945,-3.5441,-3.4829,-3.4554,-3.432,-3.4006,-3.3299,-3.2951,0.0,0.0,0.0,-3.0274,-3.0222,0.0,0.0,0.0,0.0,0.0,0.0,0.0,0.0,0.0,0.0,0.0,0.0,0.0,0.0,0.0,0.0,0.0,0.0,0.0,0.0,0.0,0.0,0.0,0.0,0.0,0.0,0.0,-2.8585,-3.0067,-3.1212,-3.2602,-3.3757,-3.4622,-3.5212,-3.55,-3.55,-3.55,-3.55,-3.55,-3.55,-3.55,-3.55,-3.5494,-3.5509,-3.5528,-3.5527,-3.5562,-3.5643,-3.5654,-3.5713,-3.5853,-3.6559,-3.7187,-3.7887,-2.1626,0.0,0.0,0.0,0.0,0.0,0.0,0.0,0.0,0.0,-3.5936,0.0,-3.8264,0.0,-4.012,0.0,-3.9294,-3.834,-3.6435,-3.4802,0.0,-3.1959,-3.0081,0.0,0.0,0.0,-2.4263,-2.2657,-2.1795,-2.0978,0.0,0.0,0.0,0.0,0.0,0.0,0.0,0.0,-3.1212,0.0,0.0,-3.6187,0.0,0.0,-3.7484,-3.7766,0.0,-3.7469,-3.6955,-3.6719,-3.62,-3.5646,-3.534,-3.5117,-3.4822,-3.4169,-3.3828,-3.3508,-3.2785,-3.1903,0.0,-3.1078,-2.9641,0.0,-2.8227,0.0,0.0,0.0,0.0,0.0,0.0,0.0,0.0,0.0,0.0,0.0,0.0,0.0,0.0,0.0,0.0,0.0,0.0,0.0,-2.3542,-2.3435,0.0,0.0,0.0,0.0,-2.9159,-3.0354,-3.175,-3.3026,-3.4186,-3.4757,-3.5192,-3.55,-3.55,-3.55,-3.55,-3.55,-3.55,-3.55,-3.55,-3.5494,-3.5502,-3.5502,-3.5522,-3.5552,-3.5556,-3.5604,-3.5683,-3.5811,-3.6437,-3.7394,0.0,0.0,0.0,0.0,-2.5129,0.0,0.0,0.0,-3.3316,0.0,-3.7297,-3.9129,-3.9918,-4.0744,-4.1224,-4.1224,-4.0487,0.0,-3.8872,-3.7312,0.0,0.0,-3.2852,-3.1201,-3.0393,0.0,0.0,0.0,-2.352,0.0,0.0,0.0,0.0,0.0,-2.464,0.0,-2.6869,-3.009,-3.198,-3.3116,-3.5775,-3.7399,-3.8271,-3.8452,-3.8136,-3.7595,-3.7755,-3.7772,-3.7619,-3.6865,-3.6495,-3.6241,-3.5412,-3.5029,-3.4889,-3.4812,-3.4649,-3.445,-3.4245,-3.3506,-3.276,-3.264,0.0,0.0,0.0,0.0,-2.6851,0.0,0.0,0.0,0.0,0.0,0.0,0.0,0.0,0.0,0.0,0.0,0.0,0.0,0.0,0.0,0.0,0.0,-2.2245,-2.3116,-2.339,0.0,0.0,0.0,-2.8497,-3.0208,-3.1199,-3.2481,-3.4103,-3.416,-3.4622,-3.55,-3.55,-3.55,-3.55,-3.55,-3.55,-3.55,-3.55,-3.55,-3.55,-3.55,-3.5508,-3.5509,-3.5509,-3.5547,-3.5618,-3.5747,-3.6393,-3.7314,-2.402,-2.4974,-2.616,0.0,-2.7898,-2.867,0.0,0.0,0.0,0.0,-3.9352,-4.0799,-4.1607,-4.2396,-4.2873,-4.2873,-4.2139,0.0,0.0,0.0,0.0,-3.689,-3.5073,-3.3702,-3.2889,-3.0503,0.0,-2.688,0.0,0.0,-2.2703,0.0,0.0,0.0,0.0,0.0,-2.7622,-2.9664,-3.2401,-3.5501,-3.6842,-3.7933,0.0,0.0,-3.8876,-3.8814,-3.9196,-3.8852,-3.821,-3.8104,-3.7192,-3.6061,-3.5894,-3.5342,-3.4749,-3.4668,-3.4498,-3.4316,-3.4173,-3.3432,-3.2716,-3.2627,-3.1678,-3.0779,0.0,0.0,0.0,0.0,0.0,0.0,0.0,0.0,0.0,0.0,0.0,0.0,0.0,0.0,0.0,0.0,0.0,0.0,0.0,-2.1123,-2.1774,-2.1459,-2.2716,0.0,0.0,0.0,0.0,-2.8376,-3.0503,-3.2128,-3.3158,-3.3799,-3.4562,-3.542,-3.5486,-3.55,-3.55,-3.55,-3.55,-3.55,-3.55,-3.55,-3.55,-3.55,-3.5507,-3.5501,-3.5501,-3.5509,-3.5534,-3.5678,-3.6279,-3.7186,-2.5077,0.0,0.0,-2.9905,0.0,0.0,-3.2137,0.0,0.0,-3.8909,-4.0322,0.0,-4.269,-4.3222,-4.3515,-4.3515,-4.3075,0.0,-4.168,0.0,0.0,-3.9111,-3.7514,-3.6068,-3.4908,-3.2504,0.0,-2.7798,0.0,0.0,-2.3006,0.0,0.0,0.0,0.0,-2.5346,0.0,-3.0485,-3.3532,-3.6409,-3.7621,0.0,0.0,-3.9007,-3.9045,-3.9101,-3.9401,-3.9195,-3.8744,-3.847,-3.7732,-3.6791,-3.6106,-3.5495,-3.4963,-3.4577,-3.434,-3.4185,-3.4086,-3.364,-3.3219,-3.3141,-3.2522,-3.1916,-3.1916,-3.1641,-3.1397,0.0,0.0,0.0,0.0,0.0,0.0,0.0,0.0,0.0,0.0,0.0,0.0,0.0,0.0,0.0,0.0,-2.0418,-2.0783,-2.076,-2.2074,0.0,0.0,0.0,0.0,-2.7599,-2.9448,-3.0993,-3.222,-3.3091,-3.3964,-3.4836,-3.5254,-3.5467,-3.55,-3.55,-3.55,-3.55,-3.55,-3.55,-3.55,-3.55,-3.55,-3.55,-3.55,-3.5494,-3.5509,-3.5584,-3.6176,-3.7073,0.0,0.0,0.0,0.0,0.0,0.0,0.0,-3.5579,0.0,-3.99,0.0,-4.1827,-4.3332,-4.3515,-4.3515,-4.3515,0.0,-4.3185,-4.2506,-4.2359,-4.1992,-4.1279,-3.9811,-3.8267,-3.6652,-3.4302,0.0,0.0,0.0,0.0,0.0,0.0,0.0,0.0,0.0,0.0,0.0,-3.1843,-3.4761,0.0,-3.8118,-3.8792,-3.8807,-3.8925,-3.8925,-3.8881,-3.8939,-3.9073,-3.9133,-3.8462,-3.8132,-3.7796,-3.6329,-3.5696,-3.5349,-3.4636,-3.4266,-3.4061,-3.3998,-3.3934,-3.3868,-3.3802,-3.3275,-3.2748,-3.2748,-3.2228,-3.1709,-3.1709,-3.1709,-3.1237,0.0,0.0,0.0,0.0,0.0,0.0,0.0,0.0,0.0,0.0,0.0,0.0,0.0,-1.9908,-1.9707,-2.0472,0.0,0.0,0.0,0.0,0.0,-2.7428,-2.8363,-2.9692,-3.1429,0.0,-3.3224,-3.4093,-3.4983,-3.5446,-3.55,-3.55,-3.55,-3.55,-3.55,-3.55,-3.55,-3.55,-3.55,-3.55,-3.55,-3.55,-3.55,-3.55,-3.6164,-3.7153,0.0,0.0,0.0,0.0,0.0,-3.7187,-3.7451,-3.7927,-3.9148,-4.1552,-4.1992,-4.2451,-4.3387,-4.3515,-4.3515,-4.3515,-4.3515,0.0,0.0,0.0,0.0,-4.2103,-4.1168,-3.9921,-3.8322,-3.656,-3.4045,0.0,-2.8631,-2.6696,0.0,0.0,0.0,0.0,0.0,0.0,-2.8803,-3.232,0.0,-3.6431,-3.8062,-3.8723,-3.8719,-3.8735,-3.8753,-3.8753,-3.8735,-3.8851,-3.896,-3.8869,-3.8359,-3.7739,-3.7483,-3.6456,-3.5312,-3.5164,-3.4557,-3.3934,-3.3921,-3.3868,-3.3802,-3.3788,-3.3697,-3.3587,-3.3587,-3.3476,-3.3385,-3.3385,-3.3385,-3.3091,-3.2142,0.0,0.0,0.0,0.0,0.0,0.0,0.0,0.0,0.0,0.0,0.0,0.0,0.0,0.0,0.0,0.0,0.0,0.0,0.0,0.0,0.0,-2.8164,0.0,0.0,0.0,-3.3096,-3.4033,-3.4954,-3.5446,-3.55,-3.55,-3.55,-3.55,-3.55,-3.55,-3.55,-3.55,-3.55,-3.55,-3.55,-3.55,-3.55,-3.55,-3.6476,-3.7832,0.0,0.0,0.0,0.0,0.0,0.0,0.0,-4.043,0.0,-4.2158,-4.2304,-4.2598,-4.3423,-4.3515,-4.3515,-4.3515,-4.3515,-4.3515,-4.3515,-4.313,-4.291,-4.291,-4.2158,0.0,-3.935,-3.7331,-3.4688,-3.1397,-2.898,-2.677,0.0,0.0,0.0,0.0,0.0,-2.7622,0.0,0.0,0.0,-3.7033,-3.8212,-3.8707,-3.8707,-3.8707,-3.8707,-3.8707,-3.8707,-3.8735,-3.881,-3.8822,-3.8567,-3.8147,-3.7767,-3.709,-3.6348,-3.5943,-3.5179,-3.4472,-3.4472,-3.4146,-3.3807,-3.3807,-3.3807,-3.3807,-3.3807,-3.3807,-3.3807,-3.3807,-3.3807,-3.3421,-3.2192,-3.0344,0.0,0.0,0.0,0.0,0.0,0.0,0.0,0.0,0.0,0.0,0.0,0.0,0.0,0.0,0.0,0.0,0.0,0.0,0.0,0.0,0.0,0.0,0.0,0.0,0.0,-3.3288,-3.4684,-3.5376,-3.5453,-3.5474,-3.55,-3.55,-3.55,-3.55,-3.55,-3.55,-3.55,-3.55,-3.55,-3.55,-3.55,-3.55,-3.6558,-3.7988,0.0,-3.636,0.0,0.0,-3.8706,0.0,-4.1648,-4.2314,-4.2561,-4.2561,-4.2561,-4.28,-4.3441,-4.3515,-4.3515,-4.3515,-4.3515,-4.3515,-4.3515,-4.3515,-4.3515,-4.3515,-4.2892,-4.1882,-4.0432,-3.8212,-3.555,0.0,-2.9836,0.0,0.0,0.0,-2.385,-2.4143,0.0,0.0,0.0,0.0,-3.6138,-3.7566,-3.8377,-3.8707,-3.8707,-3.8707,-3.8707,-3.8707,-3.8707,-3.8707,-3.8707,-3.8707,-3.8707,-3.8597,-3.7936,-3.7639,-3.7382,-3.6725,-3.5954,-3.5243,-3.5059,-3.4546,-3.4009,-3.3844,-3.3807,-3.3807,-3.3807,-3.3807,-3.3807,-3.3807,-3.3807,-3.3311,-3.1709,-3.0356,0.0,0.0,0.0,0.0,0.0,0.0,0.0,0.0,0.0,0.0,0.0,0.0,0.0,0.0,0.0,0.0,0.0,0.0,0.0,0.0,0.0,-2.7819,-2.9436,0.0,-3.2263,-3.2575,-3.4216,-3.5124,-3.5379,-3.5453,-3.5493,-3.55,-3.55,-3.55,-3.55,-3.55,-3.55,-3.55,-3.55,-3.55,-3.55,-3.55,-3.6558,-3.8007,0.0,0.0,0.0,0.0,0.0,0.0,-4.1832,-4.2755,-4.3404,-4.3404,-4.3404,-4.3423,-4.3496,-4.3515,-4.3515,-4.3515,-4.3515,-4.3515,-4.3515,-4.3515,-4.3515,-4.3515,-4.3441,-4.2965,-4.2084,-4.0414,-3.834,0.0,0.0,0.0,0.0,0.0,-2.6649,-2.7457,0.0,0.0,0.0,-3.5128,-3.6703,-3.7566,-3.8377,-3.8707,-3.8707,-3.8707,-3.8707,-3.8707,-3.8707,-3.8707,-3.8707,-3.8707,-3.8707,-3.8689,-3.8615,-3.8098,-3.7492,-3.7419,-3.6813,-3.6009,-3.5206,-3.4949,-3.4711,-3.399,-3.3807,-3.3807,-3.3807,-3.3807,-3.3807,-3.3807,-3.3807,-3.3311,-3.1709,-3.1286,-3.043,0.0,0.0,0.0,0.0,0.0,0.0,0.0,0.0,0.0,0.0,0.0,0.0,0.0,0.0,0.0,0.0,0.0,0.0,-2.5557,0.0,-2.7391,-2.8334,-3.0199,-3.1561,-3.2422,-3.3517,-3.4469,-3.5315,-3.5372,-3.5446,-3.55,-3.55,-3.55,-3.55,-3.55,-3.55,-3.55,-3.55,-3.55,-3.55,-3.55,-3.6558,-3.8007,0.0,0.0,0.0,0.0,0.0,0.0,0.0,-4.3209,-4.3515,-4.3515,-4.3515,-4.3515,-4.3515,-4.3515,-4.3515,-4.3515,-4.3515,-4.3515,-4.3515,-4.3515,-4.3515,-4.3515,-4.3515,-4.3112,-4.2323,-4.1203,-3.9441,0.0,0.0,0.0,0.0,0.0,-2.8741,0.0,0.0,-3.3587,-3.4926,-3.6391,-3.7477,-3.8248,-3.8579,-3.8707,-3.8707,-3.8707,-3.8707,-3.8707,-3.8707,-3.8707,-3.8707,-3.8707,-3.8707,-3.8707,-3.8707,-3.8487,-3.8212,-3.8212,-3.7658,-3.6942,-3.6597,-3.5775,-3.4931,-3.4601,-3.4174,-3.3807,-3.3807,-3.3807,-3.3807,-3.3807,-3.3807,-3.3311,-3.1709,-3.1397,-3.0772,0.0,0.0,0.0,0.0,0.0,0.0,0.0,0.0,0.0,0.0,0.0,0.0,0.0,0.0,-2.0031,-2.1702,0.0,0.0,-2.6135,0.0,-2.7439,-2.8856,-3.0155,-3.1287,-3.2241,-3.3286,-3.4272,-3.5185,-3.5293,-3.5369,-3.5446,-3.5446,-3.546,-3.55,-3.55,-3.55,-3.55,-3.55,-3.55,-3.55,-3.55,-3.6558,-3.8007,-4.1323,0.0,-4.1884,0.0,-4.2746,-4.2759,-4.3579,-4.3575,-4.348,-4.3497,-4.3515,-4.3515,-4.3515,-4.3515,-4.3515,-4.3515,-4.3515,-4.3515,-4.3515,-4.3515,-4.3515,-4.3515,-4.3515,0.0,-4.2671,-4.1864,-4.0506,-3.8576,-3.6083,0.0,0.0,-3.1678,-3.1751,0.0,-3.4761,-3.6248,-3.7404,-3.8212,-3.8891,-3.9423,-3.9423,-3.9423,-3.9423,-3.9423,-3.9423,-3.9368,-3.9148,-3.9056,-3.9019,-3.8781,-3.8707,-3.8707,-3.8707,-3.8707,-3.8707,-3.8707,-3.8303,-3.7804,-3.7566,-3.6633,-3.561,-3.5133,-3.4564,-3.41,-3.3844,-3.3807,-3.3807,-3.3807,-3.3807,-3.3311,-3.1709,-3.1397,-3.087,-2.9262,0.0,0.0,0.0,0.0,0.0,0.0,0.0,-2.3878,0.0,0.0,0.0,0.0,0.0,-2.0546,-2.1739,0.0,0.0,0.0,0.0,0.0,0.0,-3.0044,-3.1123,-3.2064,-3.3061,-3.4065,-3.502,-3.5168,-3.5273,-3.5335,-3.5357,-3.5412,-3.5467,-3.5493,-3.55,-3.55,-3.55,-3.55,-3.55,-3.55,-3.6558,-3.8007,-4.3011,-4.3502,-4.4013,-4.4502,-4.4202,-4.3983,-4.4344,-4.3816,-4.3411,-4.3497,-4.3515,-4.3515,-4.3515,-4.3515,-4.3515,-4.3515,-4.3515,-4.3515,-4.3515,-4.3515,-4.3515,0.0,0.0,-4.3515,-4.3496,-4.269,-4.1882,-4.1058,0.0,0.0,-3.6229,-3.6211,-3.6211,-3.634,-3.8744,-3.9827,-3.99,-4.0726,-4.1058,-4.1058,-4.1058,-4.1058,-4.1058,-4.1058,-4.1058,-4.0967,-4.0175,-3.9882,-3.9753,-3.8964,-3.8707,-3.8707,-3.8707,-3.8707,-3.8707,-3.8707,-3.8689,-3.8505,-3.7731,-3.7492,-3.707,-3.5408,-3.5004,-3.4784,-3.399,-3.3807,-3.3807,-3.3807,-3.3807,-3.3311,-3.1709,-3.1397,-3.087,-2.9262,0.0,0.0,0.0,0.0,0.0,0.0,-2.419,-2.3878,-2.3079,0.0,0.0,0.0,0.0,0.0,-2.1794,0.0,0.0,-2.5356,-2.6244,0.0,-2.7911,-2.9636,-3.0962,-3.1912,-3.2793,-3.3769,-3.4803,-3.5018,-3.5149,-3.5209,-3.5278,-3.533,-3.5412,-3.5467,-3.55,-3.55,-3.55,-3.55,-3.55,-3.55,-3.6558,-3.8007,-4.3037,-4.353,-4.4048,-4.4537,-4.4665,-4.4831,-4.5163,-4.5113,-4.5059,-4.5131,-4.4654,-4.4323,-4.4323,-4.3828,-4.3515,0.0,-4.3515,-4.3515,0.0,-4.3515,-4.3515,-4.3515,-4.3515,-4.3515,-4.3515,-4.324,-4.2708,-4.1919,0.0,0.0,0.0,-3.8487,-3.8744,-3.8799,-4.0139,-4.0726,-4.0728,-4.0985,-4.1095,-4.1095,-4.1095,-4.1095,-4.1095,-4.1095,-4.1095,-4.1058,-4.0802,-4.0726,-4.0689,-4.0416,-4.0325,-4.0249,-3.968,-3.9148,-3.8707,-3.8707,-3.8707,-3.8652,-3.8395,-3.7933,-3.7364,-3.6835,-3.5862,-3.4931,-3.4674,-3.4192,-3.3807,-3.3807,-3.3807,-3.3476,-3.2412,-3.177,-3.1048,-2.9989,-2.9354,0.0,0.0,0.0,0.0,0.0,0.0,-2.4098,0.0,-2.43,0.0,0.0,0.0,0.0,0.0,0.0,0.0,0.0,-2.7019,0.0,-2.9444,-3.007,-3.1092,-3.2524,-3.2883,-3.3635,-3.4668,-3.4781,-3.4908,-3.5073,-3.5122,-3.5223,-3.5331,-3.5398,-3.5427,-3.5446,-3.5474,-3.55,-3.55,-3.55,-3.6558,-3.8007,-4.3786,-4.4185,-4.4675,-4.5121,-4.5249,-4.5417,-4.5805,-4.5728,-4.5698,-4.5828,-4.5461,-4.5149,-4.5149,-4.469,0.0,-4.3551,-4.3515,-4.3515,-4.3515,-4.3515,-4.3515,-4.3515,-4.3515,-4.3515,-4.3515,-4.3515,0.0,-4.2745,-4.1937,-4.0875,-3.9625,-4.0414,-4.0799,-4.0836,-4.1644,-4.2011,-4.2011,-4.2011,-4.2011,-4.2011,-4.2011,-4.2011,-4.2011,-4.2011,-4.2011,-4.1974,-4.1645,-4.1535,-4.1515,-4.1187,-4.1095,-4.1003,-4.0506,-3.9808,-3.9093,-3.8799,-3.8707,-3.8707,-3.8707,-3.8322,-3.7878,-3.7584,-3.6707,-3.5775,-3.5151,-3.438,-3.3807,-3.3807,-3.3807,-3.355,-3.2748,-3.1935,-3.114,-3.0338,-2.9519,-2.8436,-2.6822,0.0,0.0,0.0,0.0,0.0,0.0,-2.5548,0.0,0.0,0.0,0.0,0.0,0.0,0.0,-2.7016,-2.7824,0.0,-3.0191,-3.0833,-3.1704,-3.2779,-3.3191,-3.3762,-3.4427,-3.4528,-3.4668,-3.4821,-3.4936,-3.5053,-3.5185,-3.5281,-3.5346,-3.5369,-3.5439,-3.546,-3.5498,-3.582,-3.6815,-3.8046,-4.4951,-4.531,-4.5709,0.0,-4.5876,0.0,-4.6269,-4.5886,-4.5653,-4.59,-4.5957,-4.5993,-4.5993,-4.5938,-4.5296,-4.3808,0.0,0.0,0.0,-4.3515,-4.3515,-4.3515,-4.3515,-4.3515,-4.3515,-4.3515,-4.3515,-4.3515,-4.2745,-4.2011,-4.1279,-4.2029,-4.2378,-4.2415,-4.3167,-4.3515,-4.3515,-4.3515,-4.3515,-4.3515,-4.3515,-4.3515,-4.3515,-4.3515,-4.3515,-4.3387,-4.2653,-4.2378,-4.2268,-4.1517,-4.126,-4.126,-4.1187,-4.0671,-3.99,-3.9038,-3.8744,-3.8707,-3.8707,-3.8707,-3.8524,-3.7768,-3.7547,-3.7088,-3.5463,-3.4454,-3.388,-3.388,-3.3844,-3.3568,-3.2821,-3.1971,-3.1146,-3.0411,-2.9555,-2.8455,-2.6895,0.0,0.0,0.0,0.0,0.0,0.0,-2.6638,-2.6675,0.0,0.0,0.0,0.0,0.0,-2.7181,-2.786,-2.8656,-2.95,-3.0356,-3.1849,-3.2658,-3.2796,-3.3672,-3.4086,-3.4099,-3.4281,-3.4416,-3.4495,-3.4701,-3.4851,-3.4992,-3.5115,-3.5218,-3.5296,-3.5361,-3.5417,-3.5578,-3.6409,-3.7288,-3.82,0.0,0.0,-4.5503,-4.5709,-4.6003,-4.6336,-4.6708,-4.6913,-4.7081,-4.7308,-4.6976,-4.6724,-4.6724,-4.6232,-4.5755,-4.5369,-4.4764,-4.4158,-4.3551,-4.3515,-4.3515,-4.3515,-4.3515,-4.3515,-4.3515,-4.3515,-4.3515,-4.3515,-4.3296,-4.3112,-4.2928,-4.313,-4.3222,-4.3222,-4.3423,-4.3515,-4.3515,-4.3515,-4.3515,-4.3515,-4.3515,-4.3515,-4.3515,-4.3515,-4.3515,-4.3478,-4.3277,-4.3222,-4.3185,-4.3002,-4.2928,-4.2818,-4.2213,-4.1882,-4.1442,-4.0029,-3.9184,-3.8707,-3.8707,-3.8707,-3.8652,-3.8469,-3.7936,-3.7235,-3.6211,-3.5334,-3.4729,-3.4729,-3.4215,-3.3733,-3.355,-3.2357,-3.1342,-3.1146,-2.9934,-2.8656,-2.7658,-2.7512,0.0,0.0,-2.6319,-2.6392,-2.6583,-2.7163,-2.7512,0.0,0.0,0.0,0.0,-2.9005,-2.9152,-2.873,-2.95,-3.0601,-3.2014,-3.2399,-3.2926,-3.354,-3.3763,-3.3895,-3.3947,-3.4049,-3.4161,-3.4281,-3.4476,-3.4626,-3.4699,-3.4879,-3.501,-3.5082,-3.5201,-3.5656,-3.627,-3.6588,-3.7636,-3.8942,-4.4709,-4.4923,-4.515,-4.531,-4.5709,-4.6137,-4.6442,-4.6858,-4.7218,-4.7457,-4.7324,-4.7272,-4.7354,-4.7011,-4.6668,-4.6433,-4.5352,-4.4525,-4.4085,-4.3699,-4.3515,-4.3515,-4.3515,-4.3515,-4.3515,-4.3515,-4.3515,-4.3515,-4.3515,-4.3515,-4.3515,-4.3515,-4.3515,-4.3515,-4.3515,-4.3515,-4.3515,-4.3515,-4.3515,-4.3515,-4.3515,-4.3515,-4.3515,-4.3515,-4.3515,-4.3515,-4.3515,-4.3515,-4.3515,-4.3515,-4.3515,-4.3423,-4.2983,-4.2598,-4.2139,-4.124,-4.0175,-3.9166,-3.8799,-3.8707,-3.8707,-3.8707,-3.8102,-3.7382,-3.696,-3.6193,-3.5481,-3.5078,-3.4656,-3.4247,-3.3862,-3.2467,-3.1397,-3.1397,-3.0063,-2.8712,-2.7915,-2.7798,0.0,-2.7703,-2.7703,-2.7978,-2.8723,-2.9182,-2.945,-2.945,-2.9843,0.0,-3.0099,-3.0503,-3.0375,-2.9574,-3.0693,-3.172,-3.2583,-3.2949,-3.3366,-3.3807,-3.3807,-3.3815,-3.3873,-3.3921,-3.3998,-3.4074,-3.4245,-3.4351,-3.442,-3.4628,-3.4761,-3.4831,-3.5001,-3.5593,-3.6427,-3.6941,-3.7967,-3.9169,-4.4615,-4.4709,-4.4831,-4.4951,-4.5283,-4.5632,-4.5862,-4.6297,-4.6683,-4.6926,-4.7214,-4.7475,-4.7648,-4.771,-4.7559,-4.7119,-4.579,-4.4949,-4.4875,-4.4086,-4.3646,-4.3646,-4.3535,-4.348,-4.348,-4.3479,-4.3515,-4.3515,-4.3515,-4.3515,-4.3515,-4.3515,-4.3515,-4.3515,-4.3515,-4.3515,-4.3515,-4.3515,-4.3515,-4.3515,-4.3515,-4.3515,-4.3515,-4.3515,-4.3515,-4.3515,-4.3515,-4.3515,-4.3515,-4.3515,-4.3515,-4.3515,-4.3515,-4.302,-4.2451,-4.2341,-4.1332,-4.0065,-3.9129,-3.8799,-3.8707,-3.8707,-3.8193,-3.7676,-3.7676,-3.707,-3.6266,-3.5536,-3.5188,-3.4784,-3.4119,-3.2559,-3.1397,-3.1397,-3.0063,-2.8767,-2.8081,0.0,-2.8411,-2.9097,-2.9299,-2.9898,-3.1268,-3.1397,-3.1397,-3.1397,-3.1397,-3.1397,-3.1397,-3.1525,-3.1274,-3.0577,-3.1885,-3.2656,-3.2784,-3.3458,-3.3807,-3.3807,-3.3807,-3.3807,-3.3788,-3.3855,-3.3881,-3.3895,-3.4023,-3.4099,-3.4173,-3.4351,-3.4484,-3.458,-3.4884,-3.5542,-3.6434,-3.7395,-3.8346,-3.923,-4.4615,-4.4709,-4.4803,-4.4831,-4.5059,-4.531,-4.5468,-4.5819,-4.6168,-4.6332,-4.6719,-4.7017,-4.7044,-4.7345,-4.7521,-4.7416,-4.6687,-4.6033,-4.5663,-4.4784,-4.4273,-4.4273,-4.3724,-4.3429,-4.3429,-4.3463,-4.3515,-4.3515,-4.3515,-4.3515,-4.3515,-4.3515,-4.3515,-4.3515,-4.3515,-4.3515,-4.3515,-4.3515,-4.3515,-4.3515,-4.3515,-4.3515,-4.3515,-4.3515,-4.3515,-4.3515,-4.3515,-4.3515,-4.3515,-4.3515,-4.3515,-4.3515,-4.3515,-4.3423,-4.3167,-4.2506,-4.2121,-4.1607,-4.012,-3.9221,-3.8707,-3.8707,-3.8615,-3.8505,-3.8505,-3.7881,-3.729,-3.7144,-3.5991,-3.4968,-3.4839,-3.2944,-3.1397,-3.1397,-3.0063,-2.8968,-2.8822,0.0,-2.9879,-3.0008,-3.0613,-3.114,-3.1378,-3.1397,-3.1397,-3.1397,-3.1397,-3.1397,-3.1397,-3.2045,-3.2362,-3.2234,-3.2472,-3.2931,-3.3605,-3.3733,-3.3807,-3.3807,-3.3807,-3.3807,-3.3807,-3.382,-3.382,-3.3815,-3.3895,-3.3934,-3.3959,-3.4099,-3.4197,-3.4355,-3.5233,-3.6115,-3.7002,-3.8069,-3.9005,-3.9798,-4.4615,-4.4654,-4.4682,-4.4682,-4.4858,-4.5005,-4.5059,-4.5363,-4.5606,-4.576,-4.602,-4.6273,-4.6507,-4.6695,-4.6898,-4.7151,-4.6802,-4.651,-4.6392,-4.5377,-4.4767,-4.4767,-4.4064,-4.3541,-4.3233,-4.3376,-4.3446,-4.3446,-4.348,-4.3515,-4.3515,-4.3515,-4.3515,-4.3515,-4.3515,-4.3515,-4.3515,-4.3515,-4.3515,-4.3515,-4.3515,-4.3515,-4.3515,-4.3515,-4.3515,-4.3515,-4.3515,-4.3515,-4.3515,-4.3515,-4.3515,-4.3515,-4.3515,-4.3515,-4.3441,-4.3057,-4.2323,-4.1405,-4.0212,-3.9625,-3.9239,-3.8817,-3.8707,-3.8707,-3.8707,-3.8414,-3.801,-3.7584,-3.6886,-3.6083,-3.5169,-3.3752,-3.254,-3.2118,-3.1054,0.0,0.0,-3.0613,-3.0999,-3.1439,-3.1825,-3.2228,-3.2651,-3.2687,-3.2687,-3.2687,-3.2687,-3.2687,-3.2687,-3.3036,-3.3256,-3.3256,-3.3256,-3.3421,-3.3807,-3.3807,-3.3807,-3.3807,-3.3807,-3.3807,-3.3807,-3.3807,-3.3807,-3.3788,-3.3829,-3.386,-3.3842,-3.3947,-3.4011,-3.4123,-3.512,-3.6037,-3.6957,-3.7926,-3.8872,-3.9686,-4.4902,-4.4869,-4.4818,-4.4632,-4.4682,-4.4748,-4.4748,-4.4951,-4.5123,-4.523,-4.5398,-4.5632,-4.5938,-4.6038,-4.6193,-4.6584,-4.6501,-4.6477,-4.6607,-4.5735,-4.5201,-4.5171,-4.444,-4.3808,-4.3301,-4.3451,-4.3469,-4.3323,-4.3429,-4.348,-4.348,-4.3497,-4.3515,-4.3515,-4.3515,-4.3515,-4.3515,-4.3515,-4.3515,-4.3515,-4.3515,-4.3515,-4.3515,-4.3515,-4.3515,-4.3515,-4.3515,-4.3515,-4.3515,-4.3515,-4.3515,-4.3515,-4.3515,-4.3515,-4.3515,-4.3515,-4.2635,-4.1479,-4.0671,-4.0175,-3.9753,-3.9129,-3.8836,-3.8707,-3.8707,-3.8707,-3.8524,-3.7915,-3.7621,-3.7107,-3.5811,-3.4761,-3.3825,-3.3005,0.0,0.0,0.0,-3.1549,-3.1916,-3.2528,-3.2766,-3.3128,-3.3733,-3.3807,-3.3807,-3.3807,-3.3807,-3.3807,-3.3807,-3.3807,-3.3807,-3.3807,-3.3807,-3.3807,-3.3807,-3.3807,-3.3807,-3.3807,-3.3807,-3.3807,-3.3807,-3.3807,-3.3807,-3.3807,-3.3807,-3.3807,-3.3788,-3.3873,-3.3997,-3.4249,-3.5185,-3.611,-3.701,-3.7907,-3.8723,-3.9389,-4.5754,-4.5618,-4.5399,-4.4733,-4.4598,-4.4598,-4.4598,-4.4737,-4.4831,-4.4831,-4.5059,-4.523,-4.5257,-4.5494,-4.5658,-4.5709,-4.5811,-4.5811,-4.5709,-4.5605,-4.5523,-4.5374,-4.4796,-4.4252,-4.3846,-4.3928,-4.3682,-4.3123,-4.3305,-4.3412,-4.3412,-4.3463,-4.3515,-4.3515,-4.3515,-4.3515,-4.3515,-4.3515,-4.3515,-4.3515,-4.3515,-4.3515,-4.3515,-4.3515,-4.3515,-4.3515,-4.3515,-4.3515,-4.3515,-4.3515,-4.3515,-4.3515,-4.3515,-4.3515,-4.3515,-4.3515,-4.3423,-4.3149,-4.2341,-4.1038,-3.9882,-3.9827,-3.9239,-3.8707,-3.8707,-3.8707,-3.8689,-3.8615,-3.801,-3.7456,-3.7345,-3.6009,-3.4656,-3.3844,0.0,0.0,-3.1507,-3.2045,-3.2528,-3.2583,-3.3256,-3.3733,-3.3788,-3.3807,-3.3807,-3.3807,-3.3807,-3.3807,-3.3807,-3.3807,-3.3807,-3.3807,-3.3807,-3.3807,-3.3807,-3.3807,-3.3807,-3.3807,-3.3807,-3.3807,-3.3807,-3.3807,-3.3807,-3.3807,-3.3807,-3.3807,-3.3807,-3.382,-3.4247,-3.5018,-3.5947,-3.6818,-3.7638,-3.8576,-3.8966,-3.905,-4.643,-4.638,-4.6143,-4.5399,-4.528,-4.5128,-4.4682,-4.4654,-4.4682,-4.4682,-4.4748,-4.4858,-4.4923,-4.5032,-4.515,-4.5336,-4.531,-4.531,-4.5363,-4.5283,-4.5079,-4.4778,-4.48,-4.4504,-4.386,-4.4168,-4.4235,-4.4088,-4.3897,-4.387,-4.4017,-4.3631,-4.3445,-4.3515,-4.3515,-4.3515,-4.3515,-4.3515,-4.3515,-4.3515,-4.3515,-4.3515,-4.3515,-4.3515,-4.3515,-4.3515,-4.3515,-4.3515,-4.3515,-4.3515,-4.3515,-4.3515,-4.3515,-4.3515,-4.3515,-4.3515,-4.3515,-4.3441,-4.313,-4.2231,-4.1277,-4.0781,-4.0047,-3.9441,-3.9441,-3.9056,-3.8707,-3.8707,-3.8469,-3.8083,-3.7584,-3.6978,-3.6285,-3.5477,0.0,-3.4596,-3.3738,-3.3903,-3.3903,-3.3403,-3.3605,-3.3807,-3.3807,-3.3807,-3.3807,-3.3807,-3.3807,-3.3807,-3.3807,-3.3807,-3.3807,-3.3807,-3.3807,-3.3807,-3.3807,-3.3807,-3.3807,-3.3807,-3.3807,-3.3807,-3.3807,-3.3807,-3.3807,-3.3807,-3.3807,-3.3807,-3.3844,-3.4325,-3.4729,-3.5151,-3.6534,-3.7279,-3.7647,-3.8501,-3.8837,-3.8877,-4.7192,-4.7141,-4.6921,-4.6177,-4.6058,-4.5872,-4.5376,-4.5077,-4.4942,-4.4942,-4.475,-4.4626,-4.4737,-4.4737,-4.4803,-4.5005,-4.494,-4.4896,-4.5005,-4.494,-4.4793,-4.4665,-4.4927,-4.4736,-4.3999,-4.4389,-4.4556,-4.4462,-4.4309,-4.4341,-4.4555,-4.4198,-4.3926,-4.3723,-4.3759,-4.363,-4.341,-4.341,-4.341,-4.341,-4.3445,-4.3463,-4.3463,-4.3497,-4.3515,-4.3515,-4.3515,-4.3515,-4.3515,-4.3515,-4.3515,-4.3515,-4.3515,-4.3515,-4.3515,-4.3515,-4.3515,-4.3515,-4.3515,-4.3094,-4.2488,-4.168,-4.0873,-4.0212,-3.9955,-3.946,-3.9019,-3.8762,-3.8707,-3.8524,-3.7988,-3.7878,-3.7621,-3.6813,-3.667,-3.6376,-3.5518,-3.5408,-3.5096,-3.4284,-3.4192,-3.4082,-3.3825,-3.3807,-3.3807,-3.3807,-3.3807,-3.3807,-3.3807,-3.3807,-3.3807,-3.3807,-3.3807,-3.3807,-3.3807,-3.3807,-3.3807,-3.3807,-3.3807,-3.3807,-3.3807,-3.3807,-3.3807,-3.3807,-3.3807,-3.3935,-3.4229,-3.4766,-3.5316,-3.5885,-3.7052,-3.7658,-3.7951,-3.8505,-3.8719,-3.878,-4.8041,-4.7889,-4.7699,-4.6938,-4.6802,-4.6802,-4.6786,-4.6177,-4.572,-4.5703,-4.5043,-4.4615,-4.4615,-4.4615,-4.4615,-4.4615,-4.4615,-4.4615,-4.4615,-4.4615,-4.4776,-4.5177,-4.5194,-4.4948,-4.4404,-4.4662,-4.4546,-4.4008,-4.448,-4.4778,-4.4923,-4.5233,-4.4974,-4.4193,-4.4343,-4.3962,-4.3233,-4.3214,-4.3214,-4.3214,-4.3359,-4.3394,-4.3412,-4.3463,-4.3515,-4.3515,-4.3515,-4.3515,-4.3515,-4.3515,-4.3515,-4.3515,-4.3515,-4.3515,-4.3515,-4.3515,-4.3515,-4.3515,-4.3515,-4.3515,-4.3296,-4.2506,-4.1699,-4.0893,-4.0102,-3.99,-3.968,-3.8891,-3.8707,-3.8707,-3.8707,-3.8707,-3.8432,-3.7639,-3.7511,-3.7235,-3.6413,-3.6303,-3.5991,-3.5114,-3.5023,-3.4692,-3.3899,-3.3807,-3.3807,-3.3807,-3.3807,-3.3807,-3.3807,-3.3807,-3.3807,-3.3807,-3.3807,-3.3807,-3.3807,-3.3807,-3.3807,-3.3807,-3.3807,-3.3807,-3.3807,-3.3807,-3.3807,-3.3807,-3.3807,-3.4266,-3.5004,-3.5023,-3.6009,-3.7492,-3.7511,-3.7991,-3.8707,-3.8707,-3.8707,-3.8707,-4.8731,-4.868,-4.8443,-4.7716,-4.7581,-4.7411,-4.687,-4.6599,-4.6295,-4.5771,-4.5517,-4.5162,-4.4666,-4.4615,-4.4615,-4.4615,-4.4615,-4.4615,-4.4615,-4.4615,-4.4654,-4.4776,-4.4886,-4.4848,-4.4663,-4.4939,-4.5104,-4.5115,-4.4892,-4.4963,-4.5325,-4.4947,-4.4782,-4.4829,-4.4867,-4.482,-4.4625,-4.3969,-4.3753,-4.3792,-4.3267,-4.3123,-4.3215,-4.3358,-4.3429,-4.3429,-4.348,-4.3515,-4.3515,-4.3515,-4.3515,-4.3515,-4.3515,-4.3515,-4.3515,-4.3515,-4.3515,-4.3515,-4.3515,-4.3515,-4.3441,-4.3185,-4.2543,-4.1882,-4.1644,-4.1148,-4.0506,-3.9717,-3.9533,-3.9368,-3.8799,-3.8707,-3.8615,-3.8377,-3.834,-3.8065,-3.7272,-3.7144,-3.685,-3.6009,-3.5917,-3.5826,-3.5569,-3.5,-3.4637,-3.4637,-3.4119,-3.3807,-3.3807,-3.3807,-3.3807,-3.3807,-3.3807,-3.3807,-3.3807,-3.3807,-3.3807,-3.3807,-3.3807,-3.3807,-3.3807,-3.3807,-3.3807,-3.3825,-3.4399,-3.4784,-3.5096,-3.6266,-3.7052,-3.7566,-3.812,-3.8487,-3.8707,-3.8707,-3.8707,-3.8707,-4.9001,-4.9001,-4.8866,-4.8426,-4.8359,-4.8189,-4.7733,-4.7428,-4.709,-4.665,-4.6329,-4.5974,-4.55,-4.5196,-4.5026,-4.5026,-4.4784,-4.4615,-4.4615,-4.4615,-4.4615,-4.4615,-4.4682,-4.4737,-4.4737,-4.494,-4.5167,-4.5363,-4.5138,-4.5197,-4.5545,-4.5299,-4.516,-4.5136,-4.5262,-4.5186,-4.4905,-4.4342,-4.4106,-4.4109,-4.3688,-4.3608,-4.3727,-4.3668,-4.367,-4.3689,-4.3521,-4.3445,-4.3463,-4.3497,-4.348,-4.3464,-4.3376,-4.334,-4.334,-4.334,-4.334,-4.3358,-4.3446,-4.3445,-4.3463,-4.3497,-4.313,-4.269,-4.2378,-4.1919,-4.135,-4.0543,-4.012,-3.9753,-3.9258,-3.8909,-3.8707,-3.8707,-3.8707,-3.8524,-3.8028,-3.7955,-3.7694,-3.6868,-3.6776,-3.6652,-3.6321,-3.5826,-3.55,-3.55,-3.5055,-3.4798,-3.4798,-3.4734,-3.472,-3.472,-3.4678,-3.4678,-3.472,-3.472,-3.4403,-3.3807,-3.3807,-3.3807,-3.3807,-3.4137,-3.427,-3.4321,-3.5151,-3.5683,-3.6083,-3.7088,-3.7694,-3.801,-3.8505,-3.8707,-3.8707,-3.8707,-3.8707,-3.8707,-4.9001,-4.9001,-4.9001,-4.9001,-4.9001,-4.9001,-4.9001,-4.8443,-4.7956,-4.7889,-4.7327,-4.687,-4.6802,-4.6194,-4.5805,-4.5805,-4.5111,-4.4699,-4.4699,-4.4649,-4.4615,-4.4615,-4.4615,-4.4615,-4.4615,-4.4737,-4.4858,-4.4978,-4.523,-4.5415,-4.5555,-4.5938,-4.58,-4.5276,-4.551,-4.5212,-4.456,-4.4467,-4.4364,-4.4256,-4.437,-4.4506,-4.4564,-4.4183,-4.4129,-4.4174,-4.3634,-4.345,-4.3468,-4.3446,-4.341,-4.3341,-4.3141,-4.3049,-4.3067,-4.3067,-4.3067,-4.3086,-4.3287,-4.3359,-4.3376,-4.3445,-4.3463,-4.3278,-4.258,-4.2415,-4.2194,-4.137,-4.0618,-4.0084,-3.9994,-3.9334,-3.8768,-3.8784,-3.8728,-3.8692,-3.8707,-3.8707,-3.8432,-3.7694,-3.7603,-3.7327,-3.6578,-3.645,-3.6376,-3.6303,-3.6303,-3.6303,-3.6303,-3.6175,-3.6095,-3.6095,-3.6027,-3.6027,-3.6098,-3.6098,-3.5392,-3.4027,-3.4027,-3.4027,-3.4045,-3.4784,-3.5133,-3.5169,-3.6028,-3.6831,-3.7511,-3.7584,-3.8043,-3.8707,-3.8707,-3.8707,-3.8707,-3.8707,-3.8707,-3.8707,-4.9001,-4.9001,-4.9001,-4.9001,-4.9001,-4.9001,-4.9001,-4.8866,-4.8562,-4.7973,-4.7753,-4.7445,-4.6853,-4.665,-4.6549,-4.6549,-4.5889,-4.5466,-4.5466,-4.4936,-4.4615,-4.4615,-4.4615,-4.4615,-4.4615,-4.4626,-4.4709,-4.4831,-4.4913,-4.5059,-4.5283,-4.5389,-4.5494,-4.5651,-4.5725,-4.5786,-4.5763,-4.4907,-4.4596,-4.4616,-4.4026,-4.3875,-4.4019,-4.4288,-4.4471,-4.4527,-4.3976,-4.386,-4.3846,-4.3249,-4.3087,-4.3105,-4.2881,-4.2787,-4.2768,-4.2727,-4.2747,-4.2806,-4.2844,-4.292,-4.305,-4.316,-4.3196,-4.3196,-4.3225,-4.3239,-4.3003,-4.213,-4.182,-4.1473,-4.0748,-3.9946,-3.9431,-3.9461,-3.8946,-3.8575,-3.8692,-3.8707,-3.8634,-3.8469,-3.8432,-3.8377,-3.8193,-3.7606,-3.6978,-3.634,-3.6303,-3.6303,-3.6303,-3.6175,-3.6095,-3.6095,-3.5982,-3.5954,-3.6012,-3.597,-3.5878,-3.5752,-3.5752,-3.5752,-3.5752,-3.5936,-3.6028,-3.6064,-3.6886,-3.7345,-3.7547,-3.8175,-3.8542,-3.8707,-3.8707,-3.8707,-3.8707,-3.8707,-3.8707,-3.8707,-4.9001,-4.9001,-4.9001,-4.9001,-4.9001,-4.9001,-4.9001,-4.9001,-4.8866,-4.8494,-4.8443,-4.8291,-4.7885,-4.7547,-4.7175,-4.6819,-4.6447,-4.6227,-4.6227,-4.5855,-4.5512,-4.5128,-4.5111,-4.4942,-4.4615,-4.4615,-4.4626,-4.4709,-4.4709,-4.4793,-4.4913,-4.4978,-4.5167,-4.5415,-4.5494,-4.558,-4.5692,-4.5122,-4.4889,-4.488,-4.4516,-4.446,-4.4558,-4.463,-4.4739,-4.4791,-4.4335,-4.4315,-4.4349,-4.3518,-4.3246,-4.3134,-4.2443,-4.2195,-4.2169,-4.2145,-4.2148,-4.2213,-4.2398,-4.2518,-4.2614,-4.2804,-4.288,-4.2994,-4.3358,-4.341,-4.323,-4.2757,-4.2303,-4.1795,-4.1234,-4.0473,-3.9963,-4.0085,-3.9495,-3.9065,-3.9161,-3.8896,-3.8707,-3.8707,-3.864,-3.8593,-3.8562,-3.8178,-3.7772,-3.7381,-3.7344,-3.7378,-3.7441,-3.7299,-3.7171,-3.7143,-3.6973,-3.6875,-3.6908,-3.6808,-3.689,-3.7096,-3.6456,-3.6164,-3.6208,-3.6611,-3.6824,-3.6923,-3.7716,-3.8065,-3.8102,-3.8524,-3.8707,-3.8707,-3.8707,-3.8707,-3.8707,-3.8707,-3.8707,-3.8707,-4.9001,-4.9001,-4.9001,-4.9001,-4.9001,-4.9001,-4.9001,-4.9001,-4.9001,-4.9001,-4.9001,-4.9001,-4.9001,-4.846,-4.7851,-4.7225,-4.7056,-4.6989,-4.6989,-4.6853,-4.6532,-4.5923,-4.5889,-4.5602,-4.5004,-4.4852,-4.4733,-4.4615,-4.4615,-4.4615,-4.4615,-4.4709,-4.4831,-4.4951,-4.5086,-4.5123,-4.515,-4.514,-4.5059,-4.4995,-4.5086,-4.5203,-4.5267,-4.4972,-4.4953,-4.5019,-4.461,-4.4587,-4.4607,-4.3857,-4.3561,-4.3312,-4.2189,-4.1784,-4.1713,-4.1528,-4.1493,-4.1565,-4.1903,-4.2011,-4.2092,-4.2353,-4.2474,-4.2634,-4.3087,-4.3178,-4.3123,-4.3105,-4.2412,-4.1774,-4.1641,-4.0956,-4.0454,-4.0601,-4.011,-3.9756,-3.9836,-3.9292,-3.886,-3.886,-3.8651,-3.8446,-3.835,-3.835,-3.8366,-3.8396,-3.843,-3.8478,-3.8596,-3.8433,-3.8303,-3.8241,-3.7969,-3.7793,-3.781,-3.7685,-3.7703,-3.7862,-3.6731,-3.6287,-3.6474,-3.7134,-3.7509,-3.7641,-3.8318,-3.8627,-3.8627,-3.8643,-3.8643,-3.8643,-3.8645,-3.8627,-3.8627,-3.8627,-3.8627,-3.8627,-4.9001,-4.9001,-4.9001,-4.9001,-4.9001,-4.9001,-4.9001,-4.9001,-4.9001,-4.9001,-4.9001,-4.9001,-4.9001,-4.8917,-4.8815,-4.8714,-4.8139,-4.7736,-4.7736,-4.7158,-4.6752,-4.665,-4.665,-4.6599,-4.6498,-4.5872,-4.5229,-4.4615,-4.4615,-4.4615,-4.4615,-4.4626,-4.4709,-4.4831,-4.4858,-4.4913,-4.5005,-4.4896,-4.4831,-4.4831,-4.4858,-4.4858,-4.4896,-4.5074,-4.5234,-4.5243,-4.4659,-4.4198,-4.3903,-4.3682,-4.374,-4.3731,-4.2649,-4.2306,-4.2114,-4.1249,-4.1059,-4.1094,-4.1146,-4.1237,-4.1396,-4.1675,-4.174,-4.1852,-4.2277,-4.2673,-4.29,-4.2727,-4.2464,-4.2235,-4.205,-4.1347,-4.0873,-4.1071,-4.0597,-4.0275,-4.0452,-3.9949,-3.9552,-3.9552,-3.8866,-3.835,-3.8152,-3.8135,-3.8118,-3.8069,-3.8118,-3.8152,-3.8186,-3.8103,-3.8019,-3.7951,-3.7649,-3.7467,-3.7468,-3.7262,-3.7225,-3.732,-3.7108,-3.731,-3.7825,-3.7934,-3.7988,-3.8023,-3.8251,-3.8356,-3.8356,-3.8417,-3.8449,-3.8433,-3.837,-3.8356,-3.8356,-3.8356,-3.8356,-3.8372,-4.9001,-4.9001,-4.9001,-4.9001,-4.9001,-4.9001,-4.9001,-4.9001,-4.9001,-4.9001,-4.9001,-4.9001,-4.9001,-4.9001,-4.9001,-4.9001,-4.8714,-4.8528,-4.8528,-4.8206,-4.7851,-4.7445,-4.7411,-4.7225,-4.6802,-4.6481,-4.6143,-4.5821,-4.5004,-4.4615,-4.4615,-4.4615,-4.4626,-4.4682,-4.4682,-4.4737,-4.4776,-4.4709,-4.4682,-4.4682,-4.4682,-4.4682,-4.4709,-4.4896,-4.5005,-4.5052,-4.4905,-4.4793,-4.4632,-4.4123,-4.3984,-4.3888,-4.2879,-4.2238,-4.1751,-4.1302,-4.0908,-4.0638,-4.0782,-4.0894,-4.0965,-4.1175,-4.1226,-4.13,-4.149,-4.1817,-4.211,-4.2272,-4.2169,-4.1959,-4.1657,-4.1354,-4.1208,-4.1301,-4.0935,-4.0712,-4.0922,-4.042,-3.9873,-3.9473,-3.9075,-3.8574,-3.7899,-3.7756,-3.7703,-3.7721,-3.7756,-3.7809,-3.7931,-3.7862,-3.7774,-3.7631,-3.7374,-3.7129,-3.6937,-3.6834,-3.6774,-3.6814,-3.6814,-3.715,-3.7756,-3.7756,-3.7826,-3.7931,-3.8001,-3.8052,-3.8121,-3.8153,-3.8203,-3.8236,-3.8154,-3.8087,-3.8018,-3.8018,-3.807,-3.8138]},{"header":{"parameterUnit":"m.s-1","parameterCategory":1,"la1":30.6,"la2":28.766,"lo1":-90.7593,"lo2":-88.6598,"dy":0.0162,"dx":0.0183,"nx":116,"ny":114,"refTime":"2024-06-25T18:00:00:Z","depth":0,"parameterNumber":3,"parameterNumberName":"V-component_of_WINDS"},"data":[0.0,0.0,0.0,0.0,0.0,0.0,0.0,0.0,0.0,0.0,0.0,0.0,0.0,0.0,0.0,0.0,0.0,0.0,0.0,0.0,0.0,0.0,0.0,0.0,0.0,0.0,0.0,0.0,0.0,0.0,0.0,0.0,0.0,0.0,0.0,0.0,0.0,0.0,0.0,0.0,0.0,0.0,0.0,0.0,0.0,0.0,0.0,0.0,0.0,0.0,0.0,0.0,0.0,0.0,0.0,0.0,0.0,0.0,0.0,0.0,0.0,0.0,0.0,0.0,0.0,0.0,0.0,0.0,0.0,0.0,0.0,0.0,0.0,0.0,0.0,0.0,0.0,0.0,0.0,0.0,0.0,0.0,0.0,0.0,0.0,0.0,0.0,0.0,0.0,0.0,0.0,0.0,0.0,0.0,0.0,0.0,0.0,0.0,0.0,0.0,0.0,0.0,0.0,0.0,0.0,0.0,0.0,0.0,0.0,0.0,0.0,0.0,0.0,0.0,0.0,0.0,0.0,0.0,0.0,0.0,0.0,0.0,0.0,0.0,0.0,0.0,0.0,0.0,0.0,0.0,0.0,0.0,0.0,0.0,0.0,0.0,0.0,0.0,0.0,0.0,0.0,0.0,0.0,0.0,0.0,0.0,0.0,0.0,0.0,0.0,0.0,0.0,0.0,0.0,0.0,0.0,0.0,0.0,0.0,0.0,0.0,0.0,0.0,0.0,0.0,0.0,0.0,0.0,0.0,0.0,0.0,0.0,0.0,0.0,0.0,0.0,0.0,0.0,0.0,0.0,0.0,0.0,0.0,0.0,0.0,0.0,0.0,0.0,0.0,0.0,0.0,0.0,0.0,0.0,0.0,0.0,0.0,0.0,0.0,0.0,0.0,0.0,0.0,0.0,0.0,0.0,0.0,0.0,0.0,0.0,0.0,0.0,0.0,0.0,0.0,0.0,0.0,0.0,0.0,0.0,0.0,0.0,0.0,0.0,0.0,0.0,0.0,0.0,0.0,0.0,0.0,0.0,0.0,0.0,0.0,0.0,0.0,0.0,0.0,0.0,0.0,0.0,0.0,0.0,0.0,0.0,0.0,0.0,0.0,0.0,0.0,0.0,0.0,0.0,0.0,0.0,0.0,0.0,0.0,0.0,0.0,0.0,0.0,0.0,0.0,0.0,0.0,0.0,0.0,0.0,0.0,0.0,0.0,0.0,0.0,0.0,0.0,0.0,0.0,0.0,0.0,0.0,0.0,0.0,0.0,0.0,0.0,0.0,0.0,0.0,0.0,0.0,0.0,0.0,0.0,0.0,0.0,0.0,0.0,0.0,0.0,0.0,0.0,0.0,0.0,0.0,0.0,0.0,0.0,0.0,0.0,0.0,0.0,0.0,0.0,0.0,0.0,0.0,0.0,0.0,0.0,0.0,0.0,0.0,0.0,0.0,0.0,0.0,0.0,0.0,0.0,0.0,0.0,0.0,0.0,0.0,0.0,0.0,0.0,0.0,0.0,0.0,0.0,0.0,0.0,0.0,0.0,0.0,0.0,0.0,0.0,0.0,0.0,0.0,0.0,0.0,0.0,0.0,0.0,0.0,0.0,0.0,0.0,0.0,0.0,0.0,0.0,0.0,0.0,0.0,0.0,0.0,0.0,0.0,0.0,0.0,0.0,0.0,0.0,0.0,0.0,0.0,0.0,0.0,0.0,0.0,0.0,0.0,0.0,0.0,0.0,0.0,0.0,0.0,0.0,0.0,0.0,0.0,0.0,0.0,0.0,0.0,0.0,0.0,0.0,0.0,0.0,0.0,0.0,0.0,0.0,0.0,0.0,0.0,0.0,0.0,0.0,0.0,0.0,0.0,0.0,0.0,0.0,0.0,0.0,0.0,0.0,0.0,0.0,0.0,0.0,0.0,0.0,0.0,0.0,0.0,0.0,0.0,0.0,0.0,0.0,0.0,0.0,0.0,0.0,0.0,0.0,0.0,0.0,0.0,0.0,0.0,0.0,0.0,0.0,0.0,0.0,0.0,0.0,0.0,0.0,0.0,0.0,0.0,0.0,0.0,0.0,0.0,0.0,0.0,0.0,0.0,0.0,0.0,0.0,0.0,0.0,0.0,0.0,0.0,0.0,0.0,0.0,0.0,0.0,0.0,0.0,0.0,0.0,0.0,0.0,0.0,0.0,0.0,0.0,0.0,0.0,0.0,0.0,0.0,0.0,0.0,0.0,0.0,0.0,0.0,0.0,0.0,0.0,0.0,0.0,0.0,0.0,0.0,0.0,0.0,0.0,0.0,0.0,0.0,0.0,0.0,0.0,0.0,0.0,0.0,0.0,0.0,0.0,0.0,0.0,0.0,0.0,0.0,0.0,0.0,0.0,0.0,0.0,0.0,0.0,0.0,0.0,0.0,0.0,0.0,0.0,0.0,0.0,0.0,0.0,0.0,0.0,0.0,0.0,0.0,0.0,0.0,0.0,0.0,0.0,0.0,0.0,0.0,0.0,0.0,0.0,0.0,0.0,0.0,0.0,0.0,0.0,0.0,0.0,0.0,0.0,0.0,0.0,0.0,0.0,0.0,0.0,0.0,0.0,0.0,0.0,0.0,0.0,0.0,0.0,0.0,0.0,0.0,0.0,0.0,0.0,0.0,0.0,0.0,0.0,0.0,0.0,0.0,0.0,0.0,0.0,0.0,0.0,0.0,0.0,0.0,0.0,0.0,0.0,0.0,0.0,0.0,0.0,0.0,0.0,0.0,0.0,0.0,0.0,0.0,0.0,0.0,0.0,0.0,0.0,0.0,0.0,0.0,0.0,0.0,0.0,0.0,0.0,0.0,0.0,0.0,0.0,0.0,0.0,0.0,0.0,0.0,0.0,0.0,0.0,0.0,0.0,0.0,0.0,0.0,0.0,0.0,0.0,0.0,0.0,0.0,0.0,0.0,0.0,0.0,0.0,0.0,0.0,0.0,0.0,0.0,0.0,0.0,0.0,0.0,0.0,0.0,0.0,0.0,0.0,0.0,0.0,0.0,0.0,0.0,0.0,0.0,0.0,0.0,0.0,0.0,0.0,0.0,0.0,0.0,0.0,0.0,0.0,0.0,0.0,0.0,0.0,0.0,0.0,0.0,0.0,0.0,0.0,0.0,0.0,0.0,0.0,0.0,0.0,0.0,0.0,0.0,0.0,0.0,0.0,0.0,0.0,0.0,0.0,0.0,0.0,0.0,0.0,0.0,0.0,0.0,0.0,0.0,0.0,0.0,0.0,0.0,0.0,0.0,0.0,0.0,0.0,0.0,0.0,0.0,0.0,0.0,0.0,0.0,0.0,0.0,0.0,0.0,0.0,0.0,0.0,0.0,0.0,0.0,0.0,0.0,0.0,0.0,0.0,0.0,0.0,0.0,0.0,0.0,0.0,0.0,0.0,0.0,0.0,0.0,0.0,0.0,0.0,0.0,0.0,0.0,0.0,0.0,0.0,0.0,0.0,0.0,0.0,0.0,0.0,0.0,0.0,0.0,0.0,0.0,0.0,0.0,0.0,0.0,0.0,0.0,0.0,0.0,0.0,0.0,0.0,0.0,0.0,0.0,0.0,0.0,0.0,0.0,0.0,0.0,0.0,0.0,0.0,0.0,0.0,0.0,0.0,0.0,0.0,0.0,0.0,0.0,0.0,0.0,0.0,0.0,0.0,0.0,0.0,0.0,0.0,0.0,0.0,0.0,0.0,0.0,0.0,0.0,0.0,0.0,0.0,0.0,0.0,0.0,0.0,0.0,0.0,0.0,0.0,0.0,0.0,0.0,0.0,0.0,0.0,0.0,0.0,0.0,0.0,0.0,0.0,0.0,0.0,0.0,0.0,0.0,0.0,0.0,0.0,0.0,0.0,0.0,0.0,0.0,0.0,0.0,0.0,0.0,0.0,0.0,0.0,0.0,0.0,0.0,0.0,0.0,0.0,0.0,0.0,0.0,0.0,0.0,0.0,0.0,0.0,0.0,0.0,0.0,0.0,0.0,0.0,0.0,0.0,0.0,0.0,0.0,0.0,0.0,0.0,0.0,0.0,0.0,0.0,0.0,0.0,0.0,0.0,0.0,0.0,0.0,0.0,0.0,0.0,0.0,0.0,0.0,0.0,0.0,0.0,0.0,0.0,0.0,0.0,0.0,0.0,0.0,0.0,0.0,0.0,0.0,0.0,0.0,0.0,0.0,0.0,0.0,0.0,0.0,0.0,0.0,0.0,0.0,0.0,0.0,0.0,0.0,0.0,0.0,0.0,0.0,0.0,0.0,0.0,0.0,0.0,0.0,0.0,0.0,0.0,0.0,0.0,0.0,0.0,0.0,0.0,0.0,0.0,0.0,0.0,0.0,0.0,0.0,0.0,0.0,0.0,0.0,0.0,0.0,0.0,0.0,0.0,0.0,0.0,0.0,0.0,0.0,0.0,0.0,0.0,0.0,0.0,0.0,0.0,0.0,0.0,0.0,0.0,0.0,0.0,0.0,0.0,0.0,0.0,0.0,0.0,0.0,0.0,0.0,0.0,0.0,0.0,0.0,0.0,0.0,0.0,0.0,0.0,0.0,0.0,0.0,0.0,0.0,0.0,0.0,0.0,0.0,0.0,0.0,0.0,0.0,0.0,0.0,0.0,0.0,0.0,0.0,0.0,0.0,0.0,0.0,0.0,0.0,0.0,0.0,0.0,0.0,0.0,0.0,0.0,0.0,0.0,0.0,0.0,0.0,0.0,0.0,0.0,0.0,0.0,0.0,0.0,0.0,0.0,0.0,0.0,0.0,0.0,0.0,0.0,0.0,0.0,0.0,0.0,0.0,0.0,0.0,0.0,0.0,0.0,0.0,0.0,0.0,0.0,0.0,0.0,0.0,0.0,0.0,0.0,0.0,0.0,0.0,0.0,0.0,0.0,0.0,0.0,0.0,0.0,0.0,0.0,0.0,0.0,0.0,0.0,0.0,0.0,0.0,0.0,0.0,0.0,0.0,0.0,0.0,0.0,0.0,0.0,0.0,0.0,0.0,0.0,0.0,0.0,0.0,0.0,0.0,0.0,0.0,0.0,0.0,0.0,0.0,0.0,0.0,0.0,0.0,0.0,0.0,0.0,0.0,0.0,0.0,0.0,0.0,0.0,0.0,0.0,0.0,0.0,0.0,0.0,0.0,0.0,0.0,0.0,0.0,0.0,0.0,0.0,0.0,0.0,0.0,0.0,0.0,0.0,0.0,0.0,0.0,0.0,0.0,0.0,0.0,0.0,0.0,0.0,0.0,0.0,0.0,0.0,0.0,0.0,0.0,0.0,0.0,0.0,0.0,0.0,0.0,0.0,0.0,0.0,0.0,0.0,0.0,0.0,0.0,0.0,0.0,0.0,0.0,0.0,0.0,0.0,0.0,0.0,0.0,0.0,0.0,0.0,0.0,0.0,0.0,0.0,0.0,0.0,0.0,0.0,0.0,0.0,0.0,0.0,0.0,0.0,0.0,0.0,0.0,0.0,0.0,0.0,0.0,0.0,0.0,0.0,0.0,0.0,0.0,0.0,0.0,0.0,0.0,0.0,0.0,0.0,0.0,0.0,0.0,0.0,0.0,0.0,0.0,0.0,0.0,0.0,0.0,0.0,0.0,0.0,0.0,0.0,0.0,0.0,0.0,0.0,0.0,0.0,0.0,0.0,0.0,0.0,0.0,0.0,0.0,0.0,0.0,0.0,0.0,0.0,0.0,0.0,0.0,0.0,0.0,0.0,0.0,0.0,0.0,0.0,0.0,0.0,0.0,0.0,0.0,0.0,0.0,0.0,0.0,0.0,0.0,0.0,0.0,0.0,0.0,0.0,0.0,0.0,0.0,0.0,0.0,0.0,0.0,0.0,0.0,0.0,0.0,0.0,0.0,0.0,0.0,0.0,0.0,0.0,0.0,0.0,0.0,0.0,0.0,0.0,0.0,0.0,0.0,0.0,0.0,0.0,0.0,0.0,0.0,0.0,0.0,0.0,0.0,0.0,0.0,0.0,0.0,0.0,0.0,0.0,0.0,0.0,0.0,0.0,0.0,0.0,0.0,0.0,0.0,0.0,0.0,0.0,0.0,0.0,0.0,0.0,0.0,-0.7776,0.0,0.0,0.0,0.0,0.0,0.0,0.0,0.0,0.0,0.0,0.0,0.0,0.0,0.0,0.0,0.0,0.0,0.0,0.0,0.0,0.0,0.0,0.0,0.0,0.252,0.2575,0.2636,0.2534,0.2377,0.222,0.0,0.0,0.0,0.0,0.0,0.069,0.0952,0.1151,0.1287,0.1726,0.2129,0.2469,0.2567,0.2521,0.2343,0.0,0.0,0.0,0.0,0.0,0.0,0.0,0.0,0.0,0.0,0.0,0.0,0.0,0.0,0.0,0.0,0.0,0.0,0.0,0.0,0.0,0.0,0.0,0.0,0.0,0.0,0.0,0.0,0.0,0.0,0.0,0.0,0.0,0.0,0.0,0.0,0.0,0.0,0.0,0.0,0.0,0.0,0.0,0.0,0.0,0.0,0.0,0.0,0.0,0.0,0.0,0.0,0.0,0.0,0.0,0.0,0.0,0.0,0.0,0.0,0.0,0.0,0.0,0.0,0.0,0.0,0.0,0.0,0.0,0.0,0.0,-0.8606,0.0,0.0,0.0,0.0,0.0,0.0,0.0,0.0,0.0,0.0,0.0,0.0,0.0,0.0,0.0,0.0,0.0,0.0,0.0,0.0,0.0,0.2866,0.2876,0.2807,0.2803,0.2921,0.2689,0.2435,0.218,0.0,0.0,0.0,0.0,0.1003,0.1017,0.1343,0.1628,0.1845,0.2281,0.2776,0.3307,0.3562,0.0,0.0,0.2877,0.0,0.0,0.0,0.0,0.0,0.0,0.0,0.0,0.0,0.0,0.0,0.0,0.0,0.0,0.0,0.0,0.0,0.0,0.0,0.0,0.0,0.0,0.0,0.0,0.0,0.0,0.0,0.0,0.0,0.0,0.0,0.0,0.0,0.0,0.0,0.0,0.0,0.0,0.0,0.0,0.0,0.0,0.0,0.0,0.0,0.0,0.0,0.0,0.0,0.0,0.0,0.0,0.0,0.0,0.0,0.0,0.0,0.0,0.0,0.0,0.0,0.0,0.0,-1.0251,-1.0912,-1.1413,-1.1631,-1.187,-1.2074,-1.0854,-1.004,-0.9564,-0.9171,0.0,0.0,0.0,0.0,0.0,0.0,0.0,0.0,0.0,0.0,0.0,0.0,0.0,0.0,0.0,0.0,0.0,0.0,0.0,0.3255,0.3536,0.3462,0.3383,0.3399,0.3218,0.2915,0.2469,0.2177,0.0,0.0,0.1457,0.1453,0.1508,0.1842,0.2135,0.2397,0.3023,0.3466,0.3734,0.0,0.0,0.0,0.3575,0.3375,0.0,0.0,0.0,0.0,0.0,0.0,0.0,0.0,0.0,0.0,0.0,0.0,0.0,0.0,0.0,0.0,0.0,0.0,0.0,0.0,0.0,0.0,0.0,0.0,0.0,0.0,0.0,0.0,0.0,0.0,0.0,0.0,0.0,0.0,0.0,0.0,0.0,0.0,0.0,0.0,0.0,0.0,-0.2901,-0.3212,0.0,0.0,0.0,0.0,0.0,0.0,0.0,0.0,0.0,0.0,0.0,0.0,0.0,-0.7254,-0.8216,-0.9062,-0.9963,-1.0927,-1.1614,-1.2196,-1.2661,-1.2856,-1.2999,-1.3019,-1.2826,0.0,-1.1042,-1.0274,0.0,0.0,0.0,0.0,0.0,0.0,0.0,0.0,0.0,0.0,0.0,0.0,0.0,0.0,0.0,0.0,0.0,0.0,0.0,0.0,0.0,0.3854,0.3824,0.369,0.3454,0.3182,0.0,0.0,0.0,0.1956,0.2021,0.2059,0.2051,0.2454,0.2913,0.3396,0.3777,0.4084,0.0,0.0,0.0,0.0,0.0,0.0,0.0,0.0,0.0,0.0,0.0,0.0,0.0,0.0,0.0,0.0,0.0,0.0,0.0,0.0,0.0,0.0,0.0,0.0,0.0,0.0,0.0,0.0,0.0,0.0,0.0,0.0,0.0,0.0,0.0,0.0,0.0,0.0,0.0,0.0,0.0,0.0,0.0,0.0,0.0,0.0,0.0,-0.2747,-0.3287,-0.355,-0.3655,-0.3715,0.0,0.0,0.0,0.0,0.0,0.0,0.0,0.0,0.0,-0.6992,-0.7694,-0.8416,-0.9096,-1.0103,-1.0903,-1.15,-1.2302,-1.2903,-1.3249,-1.3598,-1.3854,-1.3969,-1.3805,-1.3391,-1.2826,-1.1603,-1.0929,-1.0608,0.0,0.0,0.0,0.0,-0.9822,-0.9822,0.0,0.0,0.0,0.0,0.0,0.0,0.0,0.0,0.0,0.0,0.0,0.0,0.4223,0.435,0.432,0.4073,0.0,0.0,0.0,0.0,0.0,0.24,0.2514,0.2608,0.2601,0.3122,0.3658,0.0,0.0,0.0,0.0,0.0,0.0,0.0,0.0,0.0,0.0,0.0,0.0,0.0,0.0,0.0,0.0,0.0,0.0,0.0,0.0,0.0,0.0,0.0,0.0,0.0,0.0,0.0,0.0,0.0,0.0,0.0,0.0,0.0,0.0,0.0,0.0,0.0,0.0,0.0,0.0,0.0,0.0,0.0,0.0,0.0,0.0,0.0,0.0,0.0,0.0,-0.3136,-0.363,-0.3968,-0.4108,-0.424,0.0,0.0,0.0,0.0,0.0,0.0,-0.5958,-0.6353,-0.6907,-0.7719,-0.8508,-0.9107,-0.9531,-1.0626,-1.1303,-1.156,-1.2455,-1.3007,-1.319,-1.3695,-1.4057,-1.4308,-1.4179,-1.4148,-1.4117,-1.2792,-1.2037,-1.171,-1.1202,-1.1042,-1.1042,-1.1042,-1.1042,-1.1042,0.0,0.0,0.0,0.0,0.0,0.0,0.0,0.0,0.0,0.0,0.0,0.4848,0.0,0.0,0.0,0.0,0.0,0.0,0.0,0.0,0.0,0.2881,0.2875,0.2974,0.3156,0.381,0.0,0.0,0.0,0.0,0.0,0.0,0.0,0.0,0.0,0.0,0.0,0.0,0.0,0.0,0.0,0.0,0.0,0.0,0.0,0.0,0.0,0.0,0.0,0.0,0.0,0.0,0.0,0.0,0.0,0.0,0.0,0.0,0.0,0.0,0.0,0.0,0.0,0.0,0.0,0.0,0.0,0.0,0.0,0.0,0.0,0.0,0.0,0.0,0.0,0.0,0.0,0.0,0.0,-0.4485,-0.4624,0.0,0.0,0.0,0.0,-0.5337,-0.5593,-0.5895,-0.6275,-0.6723,-0.7185,-0.7607,-0.8321,-0.8955,-0.9396,-1.0327,-1.0951,-1.1237,-1.197,-1.2347,-1.2358,-1.2865,-1.3229,-1.3507,-1.398,-1.4328,-1.4505,-1.3552,-1.2959,-1.2683,-1.2338,-1.2211,-1.2211,-1.2211,-1.2211,-1.2211,0.0,0.0,0.0,0.4354,0.4117,0.3908,0.3731,0.3851,0.406,0.4324,0.4922,0.0,0.0,0.0,0.0,0.0,0.0,0.0,0.0,0.0,0.3698,0.3498,0.3559,0.3745,0.4035,0.4277,0.0,0.0,0.0,0.0,0.0,0.0,0.0,0.0,0.0,0.0,0.0,0.0,0.0,0.0,0.0,0.0,0.0,0.0,0.0,0.0,0.0,0.0,0.0,0.0,0.0,0.0,0.0,0.0,0.0,0.0,0.0,0.0,0.0,0.0,0.0,0.0,0.0,0.0,0.0,0.0,0.0,0.0,0.0,0.0,0.0,0.0,0.0,0.0,0.0,0.0,0.0,0.0,0.0,-0.4859,-0.5134,0.0,-0.5646,-0.5629,-0.5796,-0.6193,-0.6318,-0.6606,-0.7165,-0.7342,-0.7698,-0.8247,-0.8679,-0.902,-0.9345,-1.0149,-1.0587,-1.0679,-1.1494,-1.1833,-1.1876,-1.2358,-1.2828,-1.3248,-1.3767,-1.4232,-1.4597,-1.4421,-1.4087,-1.3601,-1.308,-1.2886,-1.2886,-1.2886,-1.2886,-1.2886,0.4981,0.4843,0.0,0.4435,0.4209,0.4001,0.3796,0.402,0.4301,0.4569,0.5349,0.5916,0.0,0.0,0.0,0.0,0.0,0.0,0.0,0.0,0.4076,0.3877,0.406,0.426,0.4487,0.0,0.0,0.0,0.0,0.0,0.0,0.0,0.0,0.0,0.0,0.0,0.0,0.0,0.0,0.0,0.0,0.0,0.4822,0.0,0.0,0.0,0.0,0.0,0.0,0.0,0.0,0.0,0.0,0.0,0.0,0.0,0.0,0.0,0.0,0.0,0.0,0.0,0.0,0.0,0.0,0.0,0.0,0.0,0.0,0.0,0.0,0.0,0.0,0.0,0.0,0.0,0.0,0.0,-0.4731,-0.5328,-0.5709,-0.6003,-0.6266,-0.6293,-0.6498,-0.6895,-0.6926,-0.7166,-0.7654,-0.772,-0.7934,-0.8317,-0.8531,-0.8766,-0.9005,-0.9559,-0.9916,-1.0019,-1.0605,-1.0949,-1.0949,-1.1487,-1.197,-1.2495,-1.3178,-1.3754,-1.4249,-1.4536,-1.4411,-1.3997,-1.3869,-1.3741,-1.3654,-1.3654,-1.3587,-1.3507,0.5088,0.4931,0.4763,0.4623,0.438,0.4135,0.3931,0.4302,0.465,0.4795,0.5737,0.0,0.0,0.0,0.0,0.0,0.0,0.0,0.0,0.4591,0.4366,0.4046,0.4341,0.4501,0.4511,0.0,0.0,0.0,0.0,0.0,0.0,0.0,0.0,0.0,0.0,0.0,0.0,0.0,0.0,0.0,0.0,0.0,0.5892,0.0,0.0,0.0,0.0,0.0,0.0,0.0,0.0,0.0,0.0,0.0,0.0,0.0,0.0,0.0,0.0,0.0,0.0,0.0,0.0,0.0,0.0,0.0,0.0,0.0,0.0,0.0,0.0,0.0,0.0,0.0,0.0,0.0,-0.3404,-0.4436,-0.5344,-0.5935,-0.6327,-0.6614,-0.6876,-0.6906,-0.7071,-0.7409,-0.7433,-0.7451,-0.7604,-0.7743,-0.7818,-0.7818,-0.7914,-0.8137,-0.8382,-0.8676,-0.8928,-0.9187,-0.943,-0.9579,-0.9579,-1.0117,-1.0659,-1.1243,-1.2219,-1.2942,-1.3494,-1.3738,-1.3871,-1.394,-1.467,-1.4745,-1.4492,-1.4492,-1.4349,-1.4102,0.4901,0.4793,0.4685,0.4555,0.4391,0.4205,0.4001,0.4326,0.4713,0.5053,0.6031,0.0,0.0,0.0,0.0,0.0,0.0,0.0,0.5163,0.0,0.4601,0.4504,0.4585,0.0,0.0,0.0,0.0,0.0,0.0,0.0,0.0,0.0,0.0,0.0,0.0,0.0,0.0,0.0,0.0,0.0,0.0,0.0,0.6634,0.0,0.0,0.0,0.0,0.0,0.0,0.0,0.0,0.0,0.0,0.0,0.0,0.0,0.0,0.0,0.0,0.0,0.0,0.0,0.0,0.0,0.0,0.0,0.0,0.0,0.0,0.0,0.0,0.0,0.0,0.0,0.0,-0.2558,-0.3591,-0.4563,-0.5479,-0.6254,-0.6718,-0.7078,-0.7387,-0.7417,-0.7492,-0.7675,-0.7689,-0.7756,-0.7864,-0.7907,-0.7928,-0.7928,-0.7968,-0.8038,-0.8088,-0.8382,-0.8531,-0.8634,-0.8878,-0.9023,-0.9027,-0.9377,-0.9821,-1.0364,-1.1047,-1.1829,-1.27,-1.2962,-1.3264,-1.3654,-1.401,-1.4051,-1.4033,-1.4436,-1.4518,-1.4402,0.4822,0.4753,0.4664,0.4555,0.4403,0.4307,0.4323,0.4509,0.4865,0.5499,0.6247,0.0,0.0,0.0,0.0,0.0,0.0,0.0,0.5641,0.5083,0.4773,0.0,0.0,0.0,0.0,0.0,0.0,0.0,0.0,0.0,0.0,0.0,0.0,0.0,0.0,0.0,0.0,0.0,0.0,0.0,0.0,0.0,0.7647,0.7616,0.7364,0.6999,0.6684,0.6229,0.5696,0.5293,0.0,0.0,0.0,0.0,0.0,0.0,0.0,0.0,0.0,0.0,0.0,0.0,0.0,0.0,0.0,0.0,0.0,0.0,0.0,0.0,0.0,0.0,0.0,0.0,-0.1472,-0.2271,-0.3126,-0.4327,-0.5403,-0.6183,-0.6627,-0.7074,-0.7482,-0.7555,-0.7676,-0.785,-0.7906,-0.7897,-0.7985,-0.7988,-0.7988,-0.7988,-0.7988,-0.7988,-0.7988,-0.8137,-0.8233,-0.8233,-0.8382,-0.8482,-0.8482,-0.8733,-0.908,0.0,-1.006,-1.0699,-1.1389,-1.1624,-1.1912,0.0,0.0,0.0,0.0,0.0,-1.448,-1.4551,0.4754,0.4692,0.4622,0.4563,0.4394,0.4395,0.4738,0.4734,0.504,0.598,0.0,0.0,0.0,0.0,0.0,0.0,0.0,0.0,0.0,0.0,0.0,0.0,0.0,0.0,0.0,0.0,0.0,0.0,0.0,0.0,0.0,0.0,0.0,0.0,0.0,0.0,0.0,0.0,0.0,0.0,0.0,0.0,0.8728,0.8433,0.8241,0.8036,0.7725,0.7278,0.6753,0.6198,0.0,0.0,0.0,0.0,0.0,0.0,0.0,0.0,0.0,0.0,0.0,0.0,0.0,0.0,0.0,0.0,0.0,0.0,0.0,0.0,0.0,0.0,0.0,0.0,-0.1139,-0.1762,-0.2287,-0.3702,-0.497,-0.5739,-0.6255,-0.6703,-0.7255,-0.747,-0.7646,-0.7942,-0.7988,-0.7988,-0.7988,0.0,0.0,0.0,0.0,-0.7988,-0.7988,-0.7988,-0.7988,-0.7988,-0.7988,-0.7988,-0.7988,-0.8237,-0.8478,-0.8775,-0.9266,-0.9616,-0.992,-1.0167,-1.0265,-1.0507,-1.2495,-1.3379,-1.3491,-1.3991,-1.434,-1.4597,0.4394,0.4342,0.4289,0.4279,0.4199,0.4269,0.4655,0.4704,0.504,0.598,0.64,0.0,0.0,0.0,0.0,0.0,0.0,0.0,0.0,0.0,0.0,0.0,0.0,0.0,0.0,0.0,0.0,0.0,0.0,0.0,0.0,0.0,0.0,0.0,0.0,0.0,0.0,0.0,0.0,0.0,0.0,0.0,0.9028,0.9132,0.9172,0.9109,0.8592,0.8075,0.7573,0.698,0.6239,0.549,0.5124,0.0,0.0,0.0,0.0,0.0,0.0,0.0,0.0,0.0,0.0,0.0,0.0,0.0,0.0,0.0,0.0,0.0,0.0,0.0,0.0,-0.0377,-0.0696,-0.1079,-0.1546,-0.2148,-0.3129,-0.4764,-0.5538,-0.6103,-0.6542,-0.7024,-0.7391,-0.7643,-0.7892,-0.7988,-0.7988,-0.7988,-0.7988,-0.7988,-0.7988,-0.7988,-0.7988,-0.7988,-0.7988,-0.7988,0.0,0.0,-0.7988,-0.8038,-0.8233,-0.8482,-0.8577,-0.8928,-0.9381,-0.943,-0.9579,-0.992,-1.1389,-1.2474,-1.3239,-1.3767,-1.4231,-1.4641,0.4004,0.4055,0.4094,0.4094,0.4045,0.4204,0.4809,0.4757,0.5005,0.598,0.627,0.0,0.0,0.0,0.0,0.0,0.0,0.0,0.0,0.0,0.0,0.0,0.0,0.0,0.0,0.0,0.0,0.0,0.0,0.0,0.0,0.0,0.0,0.0,0.0,0.0,0.0,0.0,0.0,0.0,0.0,0.0,0.9805,0.9825,0.9818,0.9748,0.9307,0.8854,0.8329,0.7597,0.6899,0.6217,0.5475,0.4927,0.4456,0.0,0.0,0.0,0.0,0.0,0.0,0.0,0.0,0.0,0.0,0.0,0.0,0.0,0.0,0.0,0.0,0.0,-0.0041,-0.0175,-0.0408,-0.0655,-0.0867,-0.1268,-0.2156,-0.372,-0.4392,-0.4982,-0.5727,-0.6287,-0.6742,-0.7144,-0.7593,-0.7793,-0.7793,-0.7942,-0.7988,-0.7988,-0.7988,-0.7988,-0.7988,-0.7988,-0.7988,-0.7988,-0.7988,-0.7988,-0.7988,-0.7988,-0.8088,-0.8187,-0.8187,-0.8336,-0.8588,-0.8588,-0.8733,-0.908,-1.0019,-1.1189,-1.2452,-1.3227,-1.4011,-1.4688,0.3678,0.3804,0.3929,0.3957,0.397,0.423,0.4968,0.4865,0.504,0.597,0.6102,0.6291,0.68,0.7136,0.739,0.0,0.0,0.0,0.0,0.0,0.0,0.0,0.0,0.0,0.0,0.0,0.0,0.0,0.0,0.0,0.0,0.0,0.0,0.0,0.0,0.0,0.0,0.0,0.0,0.0,0.0,0.0,1.0511,1.0277,1.0195,1.016,0.9806,0.9447,0.8972,0.8045,0.7456,0.6913,0.5747,0.5177,0.4831,0.4209,0.3954,0.0,0.0,0.0,0.0,0.0,0.0,0.0,0.0,0.0,0.1175,0.0896,0.0373,0.0,0.0,0.0,0.0,0.0,-0.0188,-0.0338,-0.0345,-0.0691,-0.1381,-0.2463,-0.3045,-0.3728,-0.463,-0.5334,-0.5889,-0.6439,-0.7042,-0.7394,-0.7494,-0.7793,-0.7939,-0.7988,-0.7988,-0.7988,-0.7988,-0.7988,-0.7988,-0.7988,-0.7988,-0.7988,-0.7988,-0.7988,-0.7988,-0.7988,-0.7988,-0.7988,-0.7988,-0.7988,-0.8137,-0.8382,-0.8931,-0.9965,-1.1336,-1.2446,-1.3565,-1.4507,0.3538,0.3587,0.3682,0.38,0.406,0.4424,0.4927,0.5028,0.5301,0.5998,0.5906,0.5885,0.6256,0.6533,0.6783,0.6968,0.0,0.0,0.0,0.0,0.0,0.0,0.0,0.0,0.0,0.0,0.0,0.0,0.0,0.0,0.0,0.0,0.0,0.0,0.0,0.0,0.0,0.0,0.0,0.0,0.0,0.0,1.0539,1.0029,1.0129,1.0472,0.9916,0.9579,0.9294,0.8242,0.753,0.6945,0.6018,0.5444,0.4953,0.4342,0.0,0.4143,0.4143,0.4366,0.0,0.4353,0.4139,0.3794,0.0,0.0,0.1439,0.0988,0.0402,0.0,0.0,0.0,0.0,0.0,-0.0049,-0.0049,-0.005,-0.0101,-0.0252,-0.0654,-0.1764,-0.2672,-0.3026,-0.3979,-0.478,-0.5329,-0.6084,-0.6736,-0.7238,-0.7494,-0.7743,-0.7988,-0.7988,-0.7988,-0.7988,-0.7988,-0.7988,-0.7988,-0.7988,-0.7988,-0.7988,-0.7988,-0.7988,-0.7988,-0.7988,-0.7988,-0.7988,-0.7988,-0.8041,-0.8088,-0.863,-0.9266,-1.0002,-1.1531,-1.2748,-1.3752,0.3376,0.344,0.3578,0.3868,0.4037,0.4317,0.491,0.4998,0.5161,0.5628,0.5695,0.5758,0.5903,0.6332,0.6659,0.6777,0.7107,0.0,0.0,0.0,0.0,0.0,0.0,0.0,0.0,0.0,0.0,0.0,0.0,0.0,0.0,0.0,0.0,0.0,0.0,0.0,0.0,0.0,0.0,0.0,0.0,0.0,1.0199,0.9665,0.9587,0.9723,0.9288,0.8997,0.0,0.0,0.7295,0.682,0.5968,0.5426,0.5022,0.4608,0.4504,0.0,0.4685,0.0,0.0,0.0,0.4529,0.4052,0.3429,0.2582,0.1716,0.1093,0.0555,0.0174,0.0045,0.0,0.0,0.0,0.0,0.0,0.0,0.0,-0.0051,-0.0152,-0.0808,-0.1463,-0.2068,-0.2924,-0.3677,-0.4228,-0.5181,-0.5934,-0.6489,-0.6892,-0.7344,-0.7743,-0.7743,-0.7842,-0.7988,-0.7988,-0.7988,-0.7988,-0.7988,-0.7988,-0.7988,-0.7988,-0.7988,-0.7988,-0.7988,-0.7988,-0.7988,-0.7988,-0.7988,-0.8038,-0.8432,-0.8825,-0.9365,-1.114,-1.2408,-1.3414,0.3222,0.3376,0.3604,0.4015,0.4141,0.4368,0.492,0.5027,0.5126,0.5374,0.552,0.5658,0.5818,0.6231,0.6547,0.6683,0.7063,0.7258,0.0,0.0,0.0,0.0,0.0,0.0,0.0,0.0,0.0,0.0,0.0,0.0,0.0,0.0,0.0,0.0,0.0,0.0,0.0,0.0,0.0,0.0,0.0,0.0,0.9763,0.918,0.8906,0.8781,0.8633,0.8475,0.0,0.0,0.7031,0.6657,0.5782,0.5317,0.5049,0.479,0.4779,0.4921,0.5135,0.0,0.0,0.5398,0.504,0.4496,0.3825,0.2927,0.2045,0.1182,0.071,0.0315,0.0045,0.0,0.0,0.0,0.0,0.0,0.0,0.0,0.0,0.0,-0.0152,-0.0505,-0.111,-0.1867,-0.2573,-0.3124,-0.4028,-0.4832,-0.5539,-0.6087,-0.6639,-0.7244,-0.7394,-0.7593,-0.7892,-0.7942,-0.7988,-0.7988,-0.7988,-0.7988,-0.7988,-0.7988,-0.7988,-0.7988,-0.7988,-0.7988,-0.7988,-0.7988,-0.7988,-0.8038,-0.8287,-0.8531,-0.8874,-1.0551,-1.1824,-1.2834,0.3079,0.3426,0.381,0.4225,0.4499,0.4745,0.4967,0.522,0.5395,0.5401,0.5354,0.5544,0.6115,0.6196,0.6349,0.6664,0.7063,0.7102,0.6647,0.0,0.0,0.0,0.0,0.0,0.0,0.0,0.0,0.0,0.0,0.0,0.0,0.0,0.0,0.0,0.0,0.0,0.0,0.0,0.0,0.0,0.0,0.0,0.9336,0.8687,0.8168,0.7868,0.8137,0.0,0.0,0.0,0.6788,0.6453,0.5582,0.5203,0.0,0.479,0.503,0.0,0.0,0.0,0.6195,0.5925,0.5777,0.5382,0.4304,0.3336,0.2401,0.1338,0.0717,0.0316,0.0046,0.0,0.0,0.0,0.0,0.0,0.0,0.0,0.0,0.0,0.0,0.0,0.0,-0.0758,-0.1464,-0.2017,-0.2573,-0.3327,-0.4379,-0.4979,-0.5632,-0.6387,-0.6936,-0.7341,-0.7596,-0.7892,-0.7988,-0.7988,-0.7988,-0.7988,-0.7988,-0.7988,-0.7988,-0.7988,-0.7988,-0.7988,-0.7988,-0.7988,-0.7988,-0.8038,-0.8287,-0.8382,-0.8531,-0.962,-1.0708,-1.178,0.3031,0.3288,0.3618,0.4206,0.4489,0.4741,0.5075,0.5242,0.5331,0.5331,0.5467,0.0,0.0,0.0,0.0,0.0,0.6496,0.6529,0.6161,0.6303,0.0,0.0,0.0,0.0,0.0,0.0,0.0,0.0,0.0,0.0,0.0,0.0,0.0,0.0,0.0,0.0,0.0,0.0,0.0,0.0,0.0,0.0,0.8233,0.7921,0.7567,0.725,0.0,0.0,0.0,0.0,0.0,0.0,0.5163,0.0,0.0,0.5126,0.0,0.0,0.0,0.0,0.6495,0.6179,0.5908,0.5436,0.4467,0.35,0.2522,0.1495,0.0922,0.0483,0.0087,0.0,0.0,0.0,0.0,0.0,0.0,0.0,0.0,0.0,0.0,0.0,0.0,0.0,0.0,-0.1161,-0.1716,-0.2432,-0.3331,-0.3898,-0.4692,-0.5685,-0.631,-0.6895,-0.748,-0.7728,-0.7932,-0.7988,-0.7988,-0.7988,-0.7988,-0.7988,-0.7988,-0.7988,-0.7988,-0.7988,-0.7988,-0.7988,-0.7988,-0.7988,-0.8088,-0.8137,-0.8187,-0.873,-0.9517,-1.0542,0.2885,0.3195,0.3583,0.4141,0.4493,0.0,0.0,0.0,0.0,0.0,0.0,0.0,0.0,0.0,0.0,0.0,0.0,0.6135,0.5673,0.0,0.0,0.0,0.0,0.0,0.0,0.0,0.0,0.0,0.0,0.0,0.0,0.0,0.0,0.0,0.0,0.0,0.0,0.0,0.0,0.0,0.0,0.0,0.7578,0.7383,0.7118,0.0,0.0,0.0,0.0,0.0,0.0,0.0,0.0,0.0,0.0,0.5343,0.5682,0.602,0.0,0.659,0.6767,0.6524,0.6133,0.5515,0.457,0.3535,0.2466,0.151,0.094,0.0466,0.0083,0.0,0.0,0.0,0.0,0.0,0.0,0.0,0.0,0.0,0.0,0.0,0.0,0.0,0.0,-0.0657,-0.0965,-0.1485,-0.2227,-0.2816,-0.3575,-0.4621,-0.5419,-0.6233,-0.6995,-0.7361,-0.763,-0.7842,-0.7939,-0.7988,-0.7988,-0.7988,-0.7988,-0.7988,-0.7988,-0.7988,-0.7988,-0.7988,-0.7988,-0.7988,-0.7988,-0.7988,-0.8038,-0.8283,-0.8775,-0.9558,0.2668,0.3174,0.3695,0.0,0.0,0.0,0.0,0.0,0.0,0.0,0.0,0.0,0.0,0.0,0.0,0.0,0.0,0.0,0.0,0.0,0.0,0.0,0.0,0.0,0.0,0.0,0.0,0.0,0.0,0.0,0.0,0.0,0.0,0.0,0.0,0.0,0.0,0.0,0.0,0.0,0.0,0.0,0.7279,0.7043,0.0,0.0,0.0,0.0,0.0,0.0,0.0,0.0,0.0,0.0,0.0,0.0,0.0,0.6364,0.6508,0.6834,0.7073,0.6985,0.6419,0.5631,0.4697,0.3434,0.2239,0.1307,0.0741,0.0364,0.0,0.0,0.0,0.0,0.0,0.0,0.0,0.0,0.0,0.0,0.0,0.0,0.0,0.0,0.0,-0.0354,0.0,-0.0624,-0.1145,-0.1692,-0.2401,-0.3201,-0.4321,-0.5329,-0.622,-0.6744,-0.7238,-0.7606,-0.7902,-0.7995,-0.7988,-0.7988,-0.7988,-0.7988,-0.7988,-0.7988,-0.7988,-0.7988,-0.7988,-0.7988,-0.7988,-0.7988,-0.8038,-0.8283,-0.8528,-0.8973,0.0,0.0,0.0,0.0,0.0,0.0,0.0,0.0,0.0,0.0,0.0,0.0,0.0,0.0,0.0,0.0,0.0,0.0,0.0,0.0,0.0,0.0,0.0,0.0,0.0,0.0,0.0,0.0,0.0,0.0,0.0,0.0,0.0,0.0,0.0,0.0,0.0,0.0,0.0,0.0,0.0,0.0,0.6142,0.0,0.0,0.0,0.0,0.0,0.0,0.0,0.0,0.0,0.0,0.0,0.5735,0.0,0.0,0.679,0.6932,0.7118,0.7199,0.6661,0.6037,0.5246,0.4138,0.3236,0.2391,0.1452,0.1083,0.0788,0.03,0.0,0.0,0.0,0.0,0.0,0.0,0.0,0.0,0.0,0.0,0.0,0.0,0.0,0.0,0.0,-0.0104,-0.0263,-0.0594,-0.0976,-0.1584,-0.2435,-0.3208,-0.4174,-0.5416,-0.6759,-0.7528,-0.7744,-0.8055,-0.815,-0.7988,-0.7988,-0.7988,-0.7988,-0.7988,-0.7988,-0.7988,-0.7988,-0.7988,-0.7988,-0.7988,-0.7988,-0.7988,-0.8088,-0.8283,-0.8581,0.0,0.0,0.0,0.0,0.0,0.0,0.0,0.0,0.0,0.0,0.0,0.0,0.0,0.0,0.0,0.0,0.0,0.0,0.0,0.0,0.0,0.0,0.0,0.0,0.0,0.0,0.0,0.0,0.0,0.0,0.0,0.0,0.0,0.0,0.0,0.0,0.0,0.0,0.0,0.0,0.0,0.0,0.0,0.0,0.0,0.0,0.0,0.0,0.0,0.0,0.0,0.5264,0.5562,0.5857,0.6142,0.6383,0.0,0.7024,0.7237,0.7339,0.7263,0.6658,0.5942,0.5067,0.4018,0.3118,0.234,0.1663,0.1293,0.0,0.0,0.0,0.0,0.0,0.0,0.0,0.0,0.0,0.0,0.0,0.0,0.0,0.0,0.0,0.0,0.0,0.0,-0.0054,-0.0219,-0.0496,-0.0999,-0.1626,-0.2242,-0.3222,-0.4745,-0.6153,-0.7132,-0.7525,-0.7882,-0.8119,-0.814,-0.8019,-0.7988,-0.7988,0.0,-0.7988,-0.7988,-0.7988,-0.7988,-0.7988,-0.7988,-0.7988,-0.7988,-0.7988,-0.8088,-0.8283,0.0,0.0,0.0,0.0,0.0,0.0,0.0,0.0,0.0,0.0,0.0,0.0,0.0,0.0,0.0,0.0,0.0,0.0,0.0,0.0,0.0,0.0,0.0,0.0,0.0,0.0,0.0,0.0,0.0,0.0,0.0,0.0,0.0,0.0,0.0,0.0,0.0,0.0,0.0,0.0,0.0,0.0,0.0,0.0,0.0,0.0,0.0,0.0,0.0,0.0,0.5348,0.5671,0.5966,0.6278,0.6563,0.6715,0.697,0.722,0.755,0.7493,0.7259,0.68,0.5989,0.5067,0.4106,0.3186,0.2373,0.1973,0.0,0.0,0.1025,0.0,0.0479,0.0397,0.0,0.0092,0.0047,0.0049,0.005,0.0,0.0,0.0,0.0,0.0,0.0,0.0,0.0,0.0,0.0,-0.0223,-0.0505,-0.0841,-0.1514,-0.2616,-0.4107,-0.5305,-0.6334,-0.7109,-0.7574,-0.791,-0.8184,-0.8052,-0.7988,-0.7988,0.0,0.0,-0.7988,-0.7988,-0.7988,-0.7988,-0.7988,-0.7988,-0.7988,-0.7988,-0.7988,-0.8038,0.0,0.0,0.0,0.0,0.0,0.0,0.0,0.0,0.0,0.0,0.0,0.0,0.0,0.0,0.0,0.0,0.0,0.0,0.0,0.0,0.0,0.0,0.0,0.0,0.0,0.0,0.0,0.0,0.0,0.0,0.0,0.0,0.0,0.0,0.0,0.0,0.0,0.0,0.0,0.0,0.0,0.0,0.0,0.0,0.0,0.0,0.0,0.0,0.0,0.0,0.5413,0.5817,0.6163,0.6512,0.6878,0.6977,0.7278,0.7556,0.7729,0.7492,0.7128,0.6775,0.5939,0.5001,0.4152,0.3655,0.0,0.0,0.0,0.2173,0.1587,0.1352,0.0,0.0771,0.0,0.0,0.0,0.0,0.0248,0.0,0.0,0.0,0.0,0.0,0.0,0.0,0.0,0.0,0.0,-0.0056,-0.0224,-0.0505,-0.157,-0.252,-0.3291,-0.4792,-0.5809,-0.6476,-0.7252,-0.765,-0.7732,-0.7902,-0.7988,-0.7988,-0.7988,0.0,-0.7988,-0.7988,-0.7988,-0.7988,-0.7988,-0.7988,-0.7988,-0.7988,-0.7988,-0.7988,0.0,0.0,0.0,0.0,0.0,0.0,0.0,0.5176,0.5616,0.6031,0.6401,0.644,0.6008,0.5554,0.0,0.0,0.0,0.0,0.0,0.0,0.0,0.0,0.0,0.0,0.0,0.0,0.0,0.0,0.0,0.0,0.0,0.0,0.0,0.0,0.0,0.0,0.0,0.0,0.0,0.0,0.0,0.0,0.0,0.0,0.0,0.0,0.0,0.0,0.0,0.0,0.5379,0.5759,0.618,0.6569,0.6913,0.7055,0.7356,0.7631,0.7773,0.7628,0.7291,0.6891,0.6223,0.5479,0.4697,0.0,0.0,0.0,0.0,0.275,0.239,0.0,0.0,0.0,0.0,0.0,0.0,0.0,0.0,0.0,0.0,0.0,0.0,0.0,0.0,0.0,0.0,0.0,0.0,0.0,-0.0056,-0.0168,-0.0897,-0.1619,-0.2379,-0.3537,-0.4744,-0.5948,-0.6733,-0.7319,-0.7749,-0.7925,-0.7988,-0.7988,-0.7988,0.0,-0.7988,-0.7988,-0.7988,-0.7988,-0.7988,-0.7988,-0.7988,-0.7988,-0.7988,-0.7988,0.0,0.0,0.0,0.0,0.0,0.0,0.0,0.5099,0.5652,0.5892,0.6353,0.652,0.6198,0.5667,0.5079,0.0,0.0,0.0,0.0,0.0,0.0,0.0,0.0,0.0,0.0,0.0,0.0,0.0,0.0,0.0,0.0,0.0,0.0,0.0,0.0,0.0,0.0,0.0,0.0,0.0,0.0,0.0,0.0,0.0,0.0,0.0,0.0,0.0,0.0,0.0,0.524,0.5559,0.5982,0.642,0.6865,0.7001,0.7243,0.7546,0.7753,0.7684,0.7403,0.7038,0.6503,0.5918,0.523,0.4739,0.0,0.0,0.0,0.3268,0.3151,0.0,0.0,0.0,0.0,0.0,0.0,0.0,0.0,0.0,0.0,0.0,0.0,0.0,0.0,0.0,0.0,0.0,0.0,0.0,0.0,0.0,-0.0279,-0.0775,-0.1522,-0.2445,-0.3661,-0.5179,-0.6091,-0.6913,-0.7648,-0.7892,-0.7988,-0.7988,-0.7988,0.0,0.0,-0.7988,-0.7988,-0.7988,-0.7988,-0.7988,-0.7988,-0.7988,-0.7988,-0.7988,0.0,0.0,0.0,0.0,0.0,0.0,0.0,0.4523,0.5081,0.5888,0.5882,0.5853,0.5998,0.5701,0.5169,0.0,0.0,0.0,0.0,0.0,0.0,0.0,0.0,0.0,0.0,0.0,0.0,0.0,0.0,0.0,0.0,0.0,0.0,0.0,0.0,0.0,0.0,0.0,0.0,0.0,0.0,0.0,0.0,0.0,0.0,0.0,0.0,0.0,0.0,0.0,0.0,0.5174,0.5423,0.5972,0.6569,0.6861,0.0,0.0,0.7695,0.7531,0.7247,0.7174,0.6583,0.5879,0.5469,0.0,0.0,0.0,0.4042,0.383,0.3585,0.3412,0.0,0.0,0.0,0.0,0.0,0.0,0.0,0.0,0.0,0.0,0.0,0.0,0.0,0.0,0.0,0.0,0.0,0.0,0.0,0.0,-0.0274,-0.0598,-0.0961,-0.2082,-0.3069,-0.3895,-0.5485,-0.6457,-0.6909,-0.7646,-0.7988,-0.7988,-0.7988,0.0,0.0,-0.7988,-0.7988,-0.7988,-0.7988,-0.7988,-0.7988,-0.7988,-0.7988,-0.7988,0.0,0.0,0.0,0.0,0.0,0.0,0.3845,0.433,0.4871,0.5562,0.5783,0.5786,0.555,0.5374,0.5012,0.4367,0.0,0.0,0.0,0.0,0.0,0.0,0.0,0.0,0.0,0.0,0.0,0.0,0.0,0.0,0.0,0.0,0.0,0.0,0.0,0.0,0.0,0.0,0.0,0.0,0.0,0.0,0.0,0.0,0.0,0.0,0.0,0.0,0.0,0.0,0.0,0.0,0.5047,0.5355,0.0,0.0,0.6759,0.7028,0.7291,0.7406,0.7409,0.7184,0.679,0.6275,0.5756,0.0,0.0,0.4578,0.4289,0.4079,0.3993,0.3818,0.3604,0.0,0.0,0.0,0.0,0.0,0.0,0.0,0.0,0.0,0.0,0.0,0.0,0.0,0.0,0.0,0.0,0.0,0.0,0.0,-0.0108,-0.0321,-0.0577,-0.1364,-0.2286,-0.3413,-0.4733,-0.5879,-0.6845,-0.7444,-0.7842,-0.7988,-0.7988,0.0,0.0,-0.7988,-0.7988,-0.7988,-0.7988,-0.7988,-0.7988,-0.7988,-0.7988,-0.7988,0.0,0.0,0.0,0.0,0.0,0.3173,0.353,0.4029,0.4518,0.4995,0.5354,0.5409,0.5063,0.4905,0.4664,0.4282,0.3899,0.0,0.0,0.0,0.0,0.0,0.0,0.0,0.0,0.0,0.0,0.0,0.0,0.0,0.0,0.0,0.0,0.0,0.0,0.0,0.0,0.0,0.0,0.0,0.0,0.0,0.0,0.0,0.0,0.0,0.0,0.0,0.0,0.0,0.0,0.0,0.0,0.0,0.0,0.0,0.6349,0.6674,0.6903,0.717,0.7282,0.7021,0.6756,0.6356,0.0,0.0,0.4951,0.4684,0.4454,0.4301,0.4301,0.4185,0.4013,0.0,0.3686,0.3356,0.2583,0.0,0.0,0.0,0.0,0.0,0.0,0.0,0.0,0.0,0.0,0.0,0.0,0.0,0.0,0.0,0.0,-0.0105,-0.0258,-0.0876,-0.1738,-0.2871,-0.418,-0.5436,-0.6595,-0.7294,-0.7743,-0.7988,0.0,0.0,0.0,-0.7988,-0.7988,-0.7988,-0.7988,-0.7988,-0.7988,-0.7988,-0.7988,-0.7988,0.0,0.0,0.0,0.0,0.0,0.0,0.3079,0.3506,0.3899,0.4188,0.44,0.4528,0.4596,0.4369,0.4184,0.4102,0.3858,0.0,0.0,0.0,0.0,0.0,0.0,0.0,0.0,0.0,0.0,0.0,0.0,0.0,0.0,0.0,0.0,0.0,0.0,0.0,0.0,0.0,0.0,0.0,0.0,0.0,0.4491,0.0,0.0,0.0,0.0,0.0,0.0,0.0,0.0,0.0,0.0,0.0,0.0,0.0,0.5806,0.6101,0.6583,0.6709,0.6709,0.6705,0.6369,0.5918,0.0,0.5135,0.4833,0.4556,0.4491,0.4491,0.4491,0.4491,0.4477,0.4405,0.429,0.0,0.0,0.0,0.0,0.0,0.0,0.0,0.0,0.0,0.0,0.0,0.0,0.0,0.0,0.0,0.0,0.0,0.0,0.0,0.0,-0.0808,-0.1464,-0.2017,-0.3929,-0.5236,-0.6042,-0.7095,-0.7743,0.0,0.0,0.0,0.0,-0.7988,-0.7988,-0.7988,-0.7988,-0.7988,-0.7988,-0.7988,-0.7988,-0.7988,0.0,0.0,0.0,0.0,0.0,0.0,0.0,0.3417,0.3757,0.4218,0.4364,0.4443,0.4459,0.4318,0.4134,0.3987,0.388,0.0,0.0,0.0,0.0,0.0,0.0,0.0,0.0,0.0,0.0,0.0,0.0,0.0,0.0,0.0,0.0,0.0,0.0,0.0,0.0,0.0,0.0,0.0,0.0,0.4491,0.4491,0.0,0.0,0.0,0.0,0.0,0.0,0.0,0.0,0.0,0.0,0.0,0.0,0.4887,0.0,0.0,0.602,0.624,0.6376,0.6268,0.5983,0.5637,0.5284,0.4975,0.4707,0.4532,0.4491,0.4491,0.4491,0.4384,0.4251,0.408,0.0,0.0,0.0,0.0,0.0,0.0,0.0,0.0,0.0,0.0,0.0,0.0,0.0,0.0,0.0,0.0,0.0,0.0,0.0,0.0,0.0,-0.0455,-0.101,-0.1765,-0.3073,-0.4329,-0.5484,-0.6539,0.0,0.0,0.0,0.0,0.0,-0.7988,-0.7988,-0.7988,-0.7988,-0.7988,-0.7988,-0.7988,-0.7988,-0.7988,0.0,0.0,0.0,0.0,0.0,0.0,0.0,0.3275,0.3579,0.4016,0.4166,0.4302,0.4416,0.4374,0.4311,0.424,0.4232,0.0,0.0,0.0,0.0,0.0,0.0,0.0,0.0,0.0,0.0,0.0,0.0,0.0,0.0,0.0,0.0,0.0,0.0,0.0,0.0,0.0,0.0,0.0,0.4491,0.4491,0.4491,0.0,0.0,0.0,0.0,0.0,0.0,0.0,0.0,0.0,0.0,0.0,0.0,0.0,0.4911,0.5294,0.0,0.5732,0.5921,0.5728,0.5552,0.5338,0.5033,0.4823,0.4675,0.4522,0.4491,0.4491,0.4491,0.4371,0.4172,0.3921,0.0,0.0,0.0,0.0,0.0,0.0,0.0,0.0,0.0,0.0,0.0,0.0,0.0,0.0,0.0,0.0,0.0,0.0,0.0,0.0,0.0,-0.0253,-0.0757,-0.1463,-0.252,-0.3728,-0.5081,-0.6137,0.0,0.0,0.0,0.0,0.0,-0.7988,-0.7988,-0.7988,-0.7988,-0.7988,-0.7988,-0.7988,-0.7988,-0.7988,0.0,0.0,0.0,0.0,0.0,0.0,0.0,0.3168,0.3442,0.3699,0.3914,0.4161,0.4483,0.457,0.4666,0.4801,0.0,0.0,0.0,0.0,0.0,0.0,0.0,0.0,0.0,0.0,0.0,0.4491,0.4491,0.4491,0.4491,0.0,0.0,0.0,0.0,0.0,0.0,0.0,0.0,0.0,0.4491,0.4491,0.0,0.0,0.0,0.0,0.0,0.0,0.0,0.0,0.0,0.0,0.0,0.0,0.0,0.0,0.0,0.0,0.0,0.5203,0.5327,0.512,0.5076,0.4995,0.4752,0.468,0.0,0.4518,0.4491,0.4494,0.4505,0.439,0.421,0.3811,0.0,0.0,0.0,0.0,0.0,0.0,0.0,0.0,0.0,0.0,0.0,0.0,0.0,0.0,0.0,0.0,0.0,0.0,0.0,0.0,0.0,-0.0253,-0.0606,-0.1162,-0.2221,-0.3428,-0.4734,-0.5834,0.0,0.0,0.0,0.0,0.0,-0.7988,-0.7988,-0.7988,-0.7988,-0.7988,-0.7988,-0.7988,-0.7988,-0.7988,0.0,0.0,0.0,0.0,0.0,0.0,0.0,0.0,0.0,0.0,0.4277,0.4518,0.4631,0.471,0.4801,0.0,0.0,0.0,0.0,0.0,0.0,0.0,0.0,0.0,0.0,0.0,0.0,0.4491,0.4491,0.4491,0.4491,0.4491,0.0,0.0,0.0,0.0,0.0,0.0,0.0,0.0,0.4491,0.4491,0.0,0.0,0.0,0.0,0.4271,0.4271,0.0,0.0,0.0,0.0,0.0,0.0,0.0,0.0,0.4515,0.4559,0.4631,0.0,0.5016,0.4948,0.488,0.4775,0.0,0.4627,0.0,0.0,0.0,0.4306,0.4409,0.3998,0.3585,0.0,0.0,0.0,0.0,0.0,0.0,0.0,0.0,0.0,0.0,0.0,0.0,0.0,0.0,0.0,0.0,0.0,0.0,0.0,0.0,0.0,0.0,-0.0051,-0.0253,-0.0606,-0.1463,-0.247,-0.3626,-0.4878,0.0,0.0,0.0,0.0,-0.7988,-0.7988,-0.7988,-0.7988,-0.7988,-0.7988,-0.7988,-0.7988,-0.7988,-0.7988,0.0,0.0,0.0,0.0,0.0,0.0,0.0,0.0,0.0,0.0,0.0,0.0,0.0,0.0,0.0,0.0,0.0,0.0,0.0,0.0,0.0,0.0,0.0,0.0,0.0,0.0,0.0,0.0,0.0,0.4597,0.0,0.0,0.0,0.0,0.0,0.0,0.0,0.0,0.0,0.0,0.4491,0.0,0.0,0.0,0.0,0.0,0.4115,0.4137,0.0,0.4338,0.4433,0.4491,0.0,0.0,0.0,0.0,0.4491,0.4505,0.4576,0.4687,0.4813,0.4813,0.4752,0.4691,0.4691,0.0,0.0,0.0,0.0,0.0,0.4297,0.0,0.0,0.0,0.0,0.0,0.0,0.0,0.0,0.0,0.0,0.0,0.0,0.0,0.0,0.0,0.0,0.0,0.0,0.0,0.0,0.0,0.0,0.0,0.0,0.0,-0.0152,-0.0404,-0.111,-0.1967,-0.3075,-0.4429,-0.5584,0.0,0.0,0.0,-0.7988,-0.7988,-0.7988,-0.7988,-0.7988,-0.7988,-0.7988,-0.7988,-0.7988,-0.7988,0.0,0.0,0.0,0.0,0.0,0.0,0.0,0.0,0.0,0.0,0.0,0.0,0.0,0.0,0.0,0.0,0.0,0.0,0.0,0.0,0.0,0.0,0.0,0.0,0.0,0.0,0.0,0.0,0.0,0.0,0.0,0.0,0.4677,0.0,0.0,0.0,0.0,0.0,0.0,0.4487,0.4467,0.0,0.0,0.0,0.0,0.0,0.0,0.0,0.0,0.418,0.4301,0.446,0.4484,0.0,0.0,0.0,0.0,0.0,0.4592,0.4674,0.4724,0.4724,0.4724,0.4724,0.0,0.0,0.0,0.0,0.0,0.0,0.0,0.0,0.0,0.0,0.0,0.0,0.0,0.0,0.0,0.0,0.0,0.0,0.0,0.0,0.0,0.0,0.0,0.0,0.0,0.0,0.0,0.0,0.0,0.0,0.0,0.0,-0.0101,-0.0354,-0.0859,-0.1615,-0.2674,-0.3979,-0.5183,-0.6284,0.0,0.0,-0.7939,-0.7988,-0.7988,-0.7988,-0.7988,-0.7988,-0.7988,-0.7988,-0.7988,-0.7988,0.0,0.0,0.0,0.0,0.0,0.0,0.0,0.0,0.0,0.0,0.0,0.0,0.0,0.0,0.0,0.0,0.0,0.0,0.0,0.0,0.0,0.0,0.0,0.0,0.0,0.0,0.0,0.0,0.0,0.0,0.4691,0.4691,0.4651,0.4525,0.0,0.0,0.0,0.0,0.0,0.4481,0.0,0.0,0.0,0.0,0.0,0.0,0.0,0.0,0.0,0.4136,0.421,0.4274,0.4453,0.0,0.0,0.0,0.0,0.0,0.4314,0.4567,0.4884,0.4884,0.4884,0.4884,0.0,0.0,0.0,0.0,0.0,0.0,0.0,0.0,0.0,0.0,0.0,0.0,0.0,0.0,0.0,0.0,0.0,0.0,0.0,0.0,0.0,0.0,0.0,0.0,0.0,0.0,0.0,0.0,0.0,0.0,0.0,0.0,0.0,-0.0051,-0.0354,-0.0959,-0.1815,-0.2922,-0.4176,-0.5432,0.0,-0.7194,-0.7696,-0.7892,-0.7988,-0.7988,-0.7988,-0.7988,-0.7988,-0.7988,-0.7988,-0.7988,0.0,0.0,0.0,0.0,0.0,0.0,0.0,0.0,0.0,0.0,0.0,0.0,0.0,0.0,0.0,0.0,0.0,0.0,0.0,0.0,0.0,0.0,0.0,0.0,0.0,0.0,0.0,0.0,0.0,0.4891,0.4813,0.4728,0.4638,0.4491,0.0,0.0,0.0,0.0,0.0,0.4477,0.0,0.0,0.0,0.0,0.0,0.0,0.0,0.0,0.0,0.0,0.4085,0.4207,0.4297,0.0,0.0,0.0,0.0,0.0,0.4382,0.4636,0.4908,0.4982,0.5002,0.5002,0.0,0.0,0.0,0.0,0.0,0.0,0.0,0.0,0.0,0.0,0.0,0.0,0.0,0.0,0.0,0.0,0.0,0.0,0.0,0.0,0.0,0.0,0.0,0.0,0.0,0.0,0.0,0.0,0.0,0.0,0.0,0.0,0.0,0.0,-0.0253,-0.0757,-0.1413,-0.2471,-0.3728,-0.5033,0.0,-0.6992,-0.7646,-0.7892,-0.7988,-0.7988,-0.7988,-0.7988,-0.7988,-0.7988,-0.7988,-0.7988,0.0,0.0,0.0,0.0,0.0,0.0,0.0,0.0,0.0,0.0,0.0,0.0,0.0,0.0,0.0,0.0,0.0,0.0,0.0,0.0,0.0,0.0,0.0,0.0,0.0,0.0,0.46,0.4691,0.4921,0.4975,0.4863,0.4745,0.4638,0.0,0.0,0.0,0.0,0.0,0.447,0.4426,0.0,0.0,0.0,0.0,0.0,0.0,0.0,0.0,0.0,0.0,0.0,0.0,0.0,0.0,0.0,0.4213,0.4321,0.4474,0.4406,0.4633,0.4914,0.5022,0.0,0.0,0.0,0.0,0.0,0.0,0.0,0.0,0.0,0.0,0.0,0.0,0.0,0.0,0.0,0.0,0.0,0.0,0.0,0.0,0.0,0.0,0.0,0.0,0.0,0.0,0.0,0.0,0.0,0.0,0.0,0.0,0.0,0.0,0.0,0.0,-0.0202,-0.0556,-0.1061,-0.2069,-0.3226,-0.4481,-0.5634,-0.6589,-0.7447,-0.7793,-0.7939,-0.7988,-0.7988,-0.7988,-0.7988,-0.7988,-0.7988,-0.7988,0.0,0.0,0.0,0.0,0.0,0.0,0.0,0.0,0.0,0.0,0.0,0.0,0.0,0.0,0.0,0.0,0.0,0.0,0.0,0.0,0.0,0.0,0.0,0.0,0.0,0.4528,0.468,0.4691,0.4853,0.4857,0.4707,0.4697,0.4638,0.4491,0.0,0.0,0.0,0.0,0.0,0.4197,0.4072,0.0,0.0,0.0,0.0,0.0,0.0,0.0,0.0,0.0,0.0,0.0,0.0,0.0,0.418,0.4055,0.4239,0.4429,0.4128,0.4449,0.4891,0.4901,0.0,0.0,0.0,0.0,0.0,0.0,0.0,0.0,0.0,0.0,0.0,0.0,0.0,0.0,0.0,0.0,0.0,0.0,0.0,0.0,0.0,0.0,0.0,0.0,0.0,0.0,0.0,0.0,0.0,0.0,0.0,0.0,0.0,0.0,0.0,0.0,0.0,-0.0202,-0.0505,-0.1312,-0.2267,-0.3374,-0.4728,-0.5884,-0.6895,-0.7394,-0.7793,-0.7988,-0.7988,-0.7988,-0.7988,-0.7988,-0.7988,-0.7988,0.0,0.0,0.0,0.0,0.0,0.0,0.0,0.0,0.0,0.0,0.0,0.0,0.0,0.0,0.0,0.0,0.0,0.0,0.0,0.0,0.0,0.0,0.0,0.3967,0.419,0.4538,0.4691,0.4691,0.4748,0.4748,0.4687,0.4624,0.0,0.0,0.0,0.0,0.0,0.0,0.0,0.4442,0.4383,0.4198,0.0,0.0,0.0,0.0,0.0,0.0,0.0,0.0,0.3744,0.3812,0.3927,0.4068,0.4167,0.4041,0.4229,0.4447,0.419,0.4503,0.4887,0.4887,0.0,0.0,0.0,0.0,0.0,0.0,0.0,0.0,0.0,0.0,0.0,0.0,0.0,0.0,0.0,0.0,0.0,0.0,0.0,0.0,0.0,0.0,0.0,0.0,0.0,0.0,0.0,0.0,0.0,0.0,0.0,0.0,0.0,0.0,0.0,0.0,0.0,-0.0152,-0.0404,-0.106,-0.1917,-0.3025,-0.4178,-0.5334,-0.6342,-0.6895,-0.7344,-0.7743,-0.7942,-0.7988,-0.7988,-0.7988,-0.7988,-0.7988,0.0,0.0,0.0,0.0,0.0,0.0,0.0,0.0,0.0,0.0,0.0,0.0,0.0,0.0,0.0,0.0,0.0,0.0,0.0,0.0,0.0,0.0,0.0,0.3914,0.4146,0.4395,0.4596,0.4691,0.4691,0.4667,0.4644,0.0,0.0,0.0,0.0,0.0,0.0,0.0,0.0,0.0,0.4529,0.4265,0.0,0.0,0.0,0.0,0.0,0.0,0.0,0.0,0.3668,0.3734,0.3778,0.3934,0.4068,0.4011,0.4199,0.4372,0.4247,0.4547,0.4897,0.0,0.0,0.0,0.0,0.0,0.0,0.0,0.0,0.0,0.0,0.0,0.0,0.0,0.0,0.0,0.0,0.0,0.0,0.0,0.0,0.0,0.0,0.0,0.0,0.0,0.0,0.0,0.0,0.0,0.0,0.0,0.0,0.0,0.0,0.0,0.0,0.0,0.0,-0.0101,-0.0303,-0.0758,-0.1464,-0.2471,-0.3376,-0.4481,-0.5639,-0.6189,-0.6892,-0.7646,-0.7892,-0.7988,-0.7988,-0.7988,-0.7988,-0.7988,0.0,0.0,0.0,0.0,0.0,0.0,0.0,0.0,0.0,0.0,0.0,0.0,0.0,0.0,0.0,0.0,0.0,0.0,0.0,0.0,0.0,0.0,0.0,0.3863,0.3991,0.4142,0.4362,0.4687,0.4687,0.4638,0.4487,0.4491,0.0,0.0,0.0,0.0,0.0,0.0,0.0,0.0,0.4376,0.4066,0.37,0.0,0.0,0.0,0.0,0.0,0.0,0.0,0.3604,0.3628,0.3744,0.3788,0.3822,0.395,0.4102,0.4197,0.42,0.455,0.0,0.0,0.0,0.0,0.0,0.0,0.0,0.0,0.0,0.0,0.0,0.0,0.0,0.0,0.0,0.0,0.0,0.0,0.0,0.0,0.0,0.0,0.0,0.0,0.0,0.0,0.0,0.0,0.0,0.0,0.0,0.0,0.0,0.0,0.0,0.0,0.0,0.0,0.0,0.0,0.0,-0.0253,-0.0858,-0.1613,-0.2169,-0.3325,-0.4834,-0.5386,-0.6389,-0.7596,-0.7892,-0.7988,-0.7988,-0.7988,-0.7988,-0.7988,0.0,0.0,0.0,0.0,0.0,0.0,0.0,0.0,0.0,0.0,0.0,0.0,0.0,0.0,0.0,0.0,0.0,0.0,0.0,0.0,0.0,0.0,0.0,0.0,0.0,0.0,0.4156,0.4351,0.448,0.4536,0.0,0.0,0.0,0.4991,0.0,0.0,0.0,0.0,0.0,0.0,0.4752,0.448,0.4118,0.0,0.0,0.0,0.0,0.0,0.0,0.0,0.0,0.0,0.3651,0.3733,0.3822,0.395,0.4102,0.4241,0.4476,0.4779,0.0,0.0,0.0,0.0,0.0,0.0,0.0,0.0,0.0,0.0,0.0,0.0,0.0,0.0,0.0,0.0,0.0,0.0,0.0,0.0,0.0,0.0,0.0,0.0,0.0,0.0,0.0,0.0,0.0,0.0,0.0,0.0,0.0,0.0,0.0,0.0,0.0,0.0,0.0,0.0,0.0,-0.0253,-0.0656,-0.106,-0.1614,-0.2421,-0.353,-0.4983,-0.6189,-0.7095,-0.7543,-0.7842,-0.7988,-0.7988,-0.7988,-0.7988,0.0,0.0,0.0,0.0,0.0,0.0,0.0,0.0,0.0,0.0,0.0,0.3521,0.0,0.0,0.0,0.0,0.0,0.0,0.0,0.0,0.0,0.0,0.0,0.0,0.0,0.3941,0.4036,0.0,0.0,0.0,0.0,0.0,0.0,0.5293,0.0,0.5443,0.0,0.0,0.0,0.0,0.4806,0.4593,0.4294,0.0,0.0,0.0,0.0,0.0,0.0,0.0,0.0,0.0,0.3663,0.37,0.3791,0.3958,0.4058,0.421,0.4592,0.0,0.0,0.0,0.0,0.0,0.0,0.0,0.0,0.0,0.0,0.0,0.0,0.0,0.0,0.0,0.0,0.0,0.0,0.0,0.0,0.0,0.0,0.0,0.0,0.0,0.0,0.0,0.0,0.0,0.0,0.0,0.0,0.0,0.0,0.0,0.0,0.0,0.0,0.0,0.0,0.0,0.0,-0.015,-0.0404,-0.0707,-0.1412,-0.2169,-0.2927,-0.4582,-0.5737,-0.6542,-0.7194,-0.7593,-0.7842,-0.7942,-0.7988,-0.7988,0.0,0.0,0.3577,0.356,0.0,0.0,0.0,0.0,0.0,0.0,0.0,0.3629,0.0,0.0,0.0,0.3963,0.0,0.0,0.0,0.0,0.0,0.0,0.0,0.0,0.0,0.0,0.0,0.0,0.0,0.0,0.0,0.0,0.5196,0.565,0.0,0.5681,0.0,0.0,0.0,0.0,0.4644,0.4491,0.4364,0.4478,0.0,0.0,0.0,0.0,0.0,0.0,0.0,0.0,0.3788,0.3697,0.3734,0.3938,0.3984,0.4092,0.0,0.0,0.0,0.0,0.0,0.0,0.0,0.0,0.0,0.0,0.0,0.0,0.0,0.0,0.0,0.0,0.0,0.0,0.0,0.0,0.0,0.0,0.0,0.0,0.0,0.0,0.0,0.0,0.0,0.0,0.0,0.0,0.0,0.0,0.0,0.0,0.0,0.0,0.0,0.0,0.0,0.0,0.0,0.0,-0.0151,-0.0402,-0.1408,-0.2163,-0.2767,-0.4119,-0.5172,-0.5974,-0.681,-0.7304,-0.7608,-0.7865,-0.7968,-0.7971,0.0,0.0,0.4237,0.4075,0.0,0.0,0.0,0.0,0.359,0.359,0.3643,0.381,0.4197,0.4156,0.0,0.4283,0.403,0.0,0.0,0.0,0.0,0.0,0.0,0.0,0.0,0.0,0.0,0.0,0.0,0.0,0.0,0.0,0.0,0.6059,0.0,0.5598,0.0,0.0,0.0,0.4794,0.4657,0.4644,0.4692,0.46,0.4552,0.0,0.0,0.0,0.0,0.0,0.0,0.0,0.3788,0.3697,0.3713,0.3808,0.3924,0.4092,0.0,0.0,0.0,0.0,0.0,0.0,0.0,0.0,0.0,0.0,0.0,0.0,0.0,0.0,0.0,0.0,0.0,0.0,0.0,0.0,0.0,0.0,0.0,0.0,0.0,0.0,0.0,0.0,0.0,0.0,0.0,0.0,0.0,0.0,0.0,0.0,0.0,0.0,0.0,0.0,0.0,0.0,0.0,0.0,-0.0048,-0.0097,-0.054,-0.1185,-0.1923,-0.3005,-0.4186,-0.5361,-0.6291,-0.6923,-0.7318,-0.7721,-0.7862,-0.7879,0.0,0.0,0.0,0.0,0.0,0.0,0.0,0.0,0.4086,0.4086,0.4086,0.4165,0.4369,0.4308,0.0,0.0,0.4027,0.3778,0.0,0.0,0.0,0.0,0.0,0.0,0.0,0.0,0.0,0.0,0.0,0.0,0.0,0.0,0.0,0.6273,0.0,0.5514,0.0,0.0,0.0,0.4653,0.4688,0.4677,0.466,0.4655,0.4596,0.4514,0.4514,0.0,0.0,0.0,0.0,0.0,0.0,0.0,0.3799,0.3794,0.39,0.4092,0.0,0.0,0.0,0.0,0.0,0.0,0.0,0.0,0.0,0.0,0.0,0.0,0.0,0.0,0.0,0.0,0.0,0.0,0.0,0.0,0.0,0.0,0.0,0.0,0.0,0.0,0.0,0.0,0.0,0.0,0.0,0.0,0.0,0.0,0.0,0.0,0.0,0.0,0.0,0.0,0.0,0.0,0.0,0.0,0.0,0.0,-0.0289,-0.0774,-0.1499,-0.2368,-0.3429,-0.4632,-0.5583,-0.6319,-0.6938,-0.7343,-0.7654,-0.7821,0.0,0.0,0.0,0.0,0.0,0.0,0.0,0.0,0.0,0.4638,0.4628,0.4601,0.4541,0.4452,0.4296,0.0,0.0,0.0,0.3392,0.0,0.0,0.0,0.0,0.0,0.0,0.0,0.0,0.0,0.0,0.0,0.0,0.0,0.0,0.6376,0.0,0.0,0.0,0.0,0.4721,0.45,0.4679,0.4622,0.4423,0.4573,0.4481,0.4289,0.4289,0.4411,0.4515,0.4307,0.0,0.0,0.0,0.0,0.3829,0.3779,0.3843,0.4043,0.0,0.0,0.0,0.0,0.0,0.0,0.0,0.0,0.0,0.0,0.0,0.0,0.0,0.0,0.0,0.0,0.0,0.0,0.0,0.0,0.0,0.0,0.0,0.0,0.0,0.0,0.0,0.0,0.0,0.0,0.009,0.009,0.0045,0.0,0.0,0.0,0.0,0.0,0.0,0.0,0.0,0.0,0.0,0.0,0.0,0.0,-0.0237,-0.0617,-0.1185,-0.1848,-0.2746,-0.3833,-0.481,-0.5647,-0.6348,-0.6839,-0.7297,-0.7644,0.0,0.0,0.0,0.0,0.0,0.0,0.0,0.0,0.0,0.0,0.514,0.5095,0.5101,0.4677,0.4285,0.4023,0.3782,0.3529,0.0,0.0,0.0,0.0,0.0,0.0,0.0,0.0,0.0,0.0,0.0,0.0,0.0,0.0,0.0,0.6381,0.0,0.0,0.0,0.0,0.4617,0.4414,0.4573,0.4411,0.4078,0.421,0.4098,0.3878,0.3878,0.3895,0.3918,0.3939,0.3966,0.0,0.0,0.0,0.0,0.0,0.0,0.0,0.0,0.0,0.0,0.0,0.0,0.0,0.0,0.0,0.0,0.0,0.0,0.0,0.0,0.0,0.0,0.0,0.0,0.0,0.0,0.0,0.0,0.0,0.0,0.0,0.0,0.0,0.0,0.0,0.0,0.0,0.0359,0.0359,0.0224,0.0,0.0,0.0,0.0,0.0,0.0,0.0,0.0,0.0,0.0,0.0,0.0,0.0,-0.0046,-0.0372,-0.0882,-0.1347,-0.2136,-0.315,-0.4093,-0.4921,-0.5607,-0.6213,-0.6728,-0.7128,0.0,0.0,0.0,0.0,0.0,0.0,0.0,0.0,0.0,0.0,0.0,0.5288,0.5207,0.478,0.436,0.3982,0.3728,0.0,0.0,0.0,0.0,0.0,0.0,0.0,0.0,0.0,0.0,0.0,0.0,0.0,0.0,0.6688,0.6757,0.0,0.0,0.0,0.0,0.0,0.0,0.4359,0.4483,0.4316,0.4011,0.4065,0.3938,0.374,0.374,0.0,0.3911,0.3861,0.3909,0.397,0.367,0.0,0.0,0.0,0.0,0.0,0.0,0.0,0.0,0.0,0.0,0.0,0.0,0.0,0.0,0.0,0.0,0.0,0.0,0.0,0.0,0.0,0.0,0.0,0.0,0.0,0.0,0.0,0.0,0.0,0.0,0.0,0.0,0.0,0.0,0.1345,0.0987,0.0852,0.0628,0.0224,0.0224,0.0135,0.0,0.0,0.0,0.0,0.0,0.0,0.0,0.0,0.0,0.0,0.0,-0.0228,-0.0591,-0.0909,-0.15,-0.2361,-0.3012,-0.3805,-0.4614,-0.5198,-0.5753,-0.6233,0.0,0.0,0.0,0.0,0.0,0.0,0.0,0.0,0.0,0.0,0.0,0.5492,0.5369,0.0,0.0,0.0,0.3814,0.0,0.0,0.0,0.0,0.0,0.0,0.0,0.0,0.0,0.0,0.0,0.0,0.0,0.5963,0.6699,0.6827,0.0,0.6093,0.0,0.0,0.0,0.0,0.4302,0.4418,0.4239,0.3921,0.4011,0.3916,0.372,0.372,0.0,0.0,0.0,0.0,0.0,0.0,0.0,0.0,0.0,0.0,0.0,0.0,0.0,0.0,0.0,0.0,0.0,0.0,0.0,0.0,0.0,0.0,0.0,0.0,0.0,0.0,0.0,0.0,0.0,0.0,0.0,0.0,0.0,0.0,0.0,0.0,0.0,0.0,0.0,0.0,0.2241,0.1793,0.1569,0.121,0.0673,0.0583,0.0448,0.018,0.0135,0.009,0.009,0.0045,0.0,0.0,0.0,0.0,0.0,0.0,-0.0135,-0.0403,-0.0583,-0.1031,-0.166,-0.2061,-0.2776,-0.358,-0.4071,-0.4696,-0.5307,0.0,0.0,0.0,0.0,0.0,0.0,0.0,0.0,0.0,0.0,0.0,0.5918,0.5788,0.5359,0.4814,0.4149,0.408,0.0,0.0,0.0,0.0,0.0,0.0,0.0,0.0,0.0,0.0,0.0,0.0,0.0,0.5813,0.6379,0.6532,0.6319,0.6354,0.6133,0.5728,0.0,0.0,0.0,0.4298,0.4077,0.374,0.4072,0.4014,0.3804,0.0,0.0,0.0,0.0,0.0,0.0,0.0,0.0,0.0,0.0,0.0,0.0,0.0,0.0,0.0,0.0,0.0,0.0,0.0,0.0,0.0,0.0,0.0,0.0,0.0,0.0,0.0,0.0,0.0,0.0,0.0,0.0,0.0,0.0,0.0,0.0,0.0,0.0,0.0,0.0,0.0,0.3762,0.2867,0.2553,0.2105,0.139,0.1166,0.0942,0.0673,0.0493,0.0359,0.0359,0.0135,0.0,0.0,0.0,0.0,0.0,0.0,-0.0135,-0.0403,-0.0403,-0.0718,-0.1166,-0.139,-0.1927,-0.2597,-0.2911,-0.3585,-0.435,0.0,0.0,0.0,0.0,0.0,0.0,0.0,0.0,0.0,0.0,0.0,0.0,0.0,0.5701,0.524,0.4791,0.4498,0.0,0.0,0.0,0.0,0.0,0.0,0.0,0.0,0.0,0.0,0.0,0.0,0.5661,0.5565,0.6452,0.6691,0.6363,0.6359,0.6013,0.5449,0.5171,0.0,0.0,0.4317,0.4221,0.0,0.4308,0.4323,0.4249,0.0,0.0,0.0,0.0,0.0,0.0,0.0,0.3365,0.322,0.3125,0.0,0.0,0.0,0.0,0.0,0.0,0.0,0.0,0.0,0.0,0.0,0.0,0.0,0.0,0.0,0.0,0.0,0.0,0.0,0.0,0.0,0.0,0.0,0.0,0.0,0.0,0.0,0.0,0.0,0.0,0.0,0.0,0.3824,0.3439,0.2795,0.1937,0.1722,0.1463,0.1076,0.0861,0.0646,0.0517,0.0306,0.0132,0.0,0.0,0.0,0.0,0.0,-0.0045,-0.0135,-0.0135,-0.0359,-0.0673,-0.0718,-0.1121,-0.1613,-0.1837,-0.2241,-0.2734,0.0,0.0,0.0,0.6358,0.0,0.5816,0.5621,0.5755,0.5983,0.6303,0.0,0.0,0.0,0.0,0.572,0.5284,0.4941,0.4765,0.4736,0.0,0.0,0.0,0.0,0.0,0.0,0.0,0.0,0.0,0.0,0.0,0.0,0.6234,0.6478,0.6168,0.6217,0.5991,0.0,0.0,0.0,0.4368,0.0,0.0,0.4395,0.0,0.4795,0.0,0.0,0.0,0.0,0.0,0.0,0.0,0.0,0.3562,0.3373,0.34,0.0,0.0,0.0,0.0,0.0,0.0,0.0,0.0,0.0,0.0,0.0,0.0,0.0,0.0,0.0,0.0,0.0,0.0,0.0,0.0,0.0,0.0,0.0,0.0,0.0,0.0,0.0,0.0,0.0,0.0,0.0,0.0,0.474,0.4323,0.3652,0.2689,0.2438,0.2185,0.1848,0.1514,0.1221,0.0926,0.0556,0.0301,0.0086,0.0044,0.0,0.0,0.0,0.0,0.0,0.0,-0.009,-0.0269,-0.0269,-0.0494,-0.0897,-0.1031,-0.1256,-0.1569,0.7,0.6794,0.66,0.6606,0.6391,0.6203,0.6196,0.6203,0.631,0.6573,0.0,0.0,0.0,0.0,0.0,0.5589,0.5391,0.5232,0.5039,0.5014,0.0,0.0,0.0,0.0,0.0,0.0,0.0,0.0,0.0,0.0,0.0,0.0,0.5897,0.0,0.597,0.6102,0.6043,0.0,0.5076,0.4715,0.0,0.4713,0.4758,0.0,0.0,0.0,0.5542,0.5311,0.0,0.0,0.0,0.0,0.0,0.3789,0.3597,0.3928,0.4019,0.0,0.0,0.0,0.0,0.0,0.0,0.0,0.0,0.0,0.0,0.0,0.0,0.0,0.0,0.0,0.0,0.0,0.0,0.0,0.0,0.0,0.0,0.0,0.0,0.0,0.0,0.0,0.0,0.0,0.0,0.6111,0.5654,0.523,0.4562,0.3648,0.3395,0.3143,0.2932,0.2475,0.2014,0.1636,0.0967,0.0505,0.0295,0.0086,0.0,0.0,0.0,0.0,0.0,0.0,0.0,0.0,0.0,-0.018,-0.0403,-0.0403,-0.0673,-0.1076,0.7,0.6933,0.6834,0.6627,0.6546,0.6419,0.623,0.6371,0.6519,0.0,0.0,0.0,0.7208,0.7013,0.6713,0.6322,0.5869,0.5569,0.5514,0.5333,0.523,0.5277,0.5277,0.5277,0.0,0.0,0.0,0.0,0.0,0.0,0.0,0.0,0.0,0.0,0.5915,0.5878,0.5493,0.5319,0.0,0.0,0.4944,0.5064,0.0,0.0,0.0,0.0,0.0,0.5596,0.0,0.0,0.5133,0.493,0.0,0.0,0.0,0.4384,0.4537,0.0,0.5094,0.0,0.0,0.0,0.0,0.0,0.0,0.0,0.0,0.0,0.0,0.0,0.0,0.0,0.0,0.0,0.0,0.0,0.0,0.0,0.0,0.0,0.0,0.0,0.0,0.0,0.0,0.0,0.6304,0.6146,0.5823,0.5303,0.4827,0.4393,0.4192,0.3951,0.375,0.3315,0.2798,0.224,0.1628,0.1026,0.0493,0.0294,0.0129,0.0,0.0,0.0,0.0,0.0,0.0,0.0,0.0,-0.0045,-0.009,-0.009,-0.018,-0.0314,0.7,0.7,0.6986,0.6981,0.6975,0.6961,0.6921,0.7041,0.7148,0.0,0.0,0.0,0.7642,0.7479,0.7206,0.6807,0.6434,0.6081,0.5721,0.5551,0.542,0.53,0.5293,0.5293,0.5293,0.0,0.0,0.0,0.0,0.0,0.0,0.0,0.0,0.0,0.5698,0.5653,0.5338,0.526,0.0,0.0,0.5118,0.0,0.0,0.5572,0.5769,0.0,0.0,0.0,0.5759,0.5671,0.5521,0.0,0.0,0.0,0.487,0.512,0.0,0.0,0.0,0.0,0.0,0.0,0.0,0.0,0.0,0.0,0.0,0.0,0.0,0.0,0.0,0.0,0.0,0.0,0.0,0.0,0.0,0.0,0.0,0.0,0.0,0.0,0.0,0.0,0.0,0.63,0.63,0.618,0.5902,0.555,0.5279,0.509,0.4971,0.4813,0.4616,0.4148,0.3643,0.302,0.2306,0.1682,0.1123,0.0739,0.0502,0.0381,0.0214,0.013,0.0133,0.0044,0.0,0.0,0.0,0.0,0.0,0.0,0.0,0.0,0.0,0.7047,0.7154,0.7444,0.7517,0.7638,0.7866,0.7905,0.7905,0.0,0.7939,0.7952,0.7952,0.7952,0.7739,0.72,0.706,0.6673,0.5894,0.5748,0.5598,0.5353,0.5313,0.5313,0.534,0.0,0.0,0.0,0.0,0.0,0.0,0.0,0.0,0.0,0.5426,0.5475,0.5389,0.5413,0.0,0.4937,0.528,0.5327,0.0,0.0,0.5922,0.0,0.6248,0.6173,0.6051,0.6017,0.5835,0.0,0.0,0.5518,0.544,0.5849,0.6033,0.0,0.0,0.0,0.0,0.0,0.0,0.0,0.7209,0.7047,0.0,0.0,0.0,0.0,0.0,0.0,0.0,0.0,0.0,0.0,0.0,0.0,0.0,0.0,0.0,0.0,0.0,0.63,0.63,0.63,0.63,0.618,0.5941,0.5941,0.5867,0.5676,0.5676,0.5595,0.5359,0.4973,0.4504,0.388,0.3057,0.2431,0.1961,0.1364,0.1055,0.0937,0.0582,0.0382,0.0347,0.013,0.0,0.0,0.0,0.0,0.0,0.0,0.0,0.0,0.7167,0.7286,0.7424,0.75,0.7675,0.7839,0.7899,0.7905,0.7905,0.7905,0.8136,0.8315,0.8315,0.8315,0.8261,0.8147,0.7442,0.6926,0.676,0.6087,0.5668,0.5631,0.542,0.5407,0.5625,0.5397,0.0,0.0,0.0,0.0,0.0,0.0,0.0,0.0,0.5479,0.5539,0.5358,0.5881,0.0,0.5601,0.5576,0.0,0.5913,0.5945,0.6081,0.6259,0.6289,0.6279,0.6218,0.0,0.5859,0.5585,0.0,0.0,0.0,0.5871,0.0,0.6726,0.7104,0.7392,0.757,0.76,0.0,0.0,0.0,0.7088,0.0,0.0,0.0,0.0,0.0,0.0,0.0,0.0,0.0,0.0,0.0,0.0,0.0,0.0,0.0,0.0,0.0,0.63,0.63,0.63,0.63,0.6261,0.6219,0.6219,0.6222,0.6183,0.6145,0.6025,0.5786,0.5556,0.5129,0.4504,0.4031,0.3368,0.2628,0.2326,0.1916,0.1463,0.1224,0.0995,0.0764,0.0389,0.0132,0.0,0.0,0.0,0.0,0.0,0.0,0.0,0.7209,0.7362,0.7538,0.7669,0.7949,0.8196,0.8325,0.8345,0.8345,0.8345,0.8624,0.8864,0.9038,0.9059,0.8938,0.8617,0.8176,0.7639,0.704,0.6593,0.6239,0.5963,0.5826,0.5735,0.5694,0.5571,0.5498,0.0,0.0,0.0,0.0,0.0,0.0,0.0,0.0,0.5901,0.0,0.0,0.6367,0.642,0.6007,0.0,0.6103,0.6045,0.6136,0.63,0.63,0.63,0.629,0.6131,0.5994,0.0,0.0,0.5918,0.61,0.0,0.6793,0.7219,0.0,0.0,0.832,0.8626,0.0,0.0,0.0,0.0,0.7528,0.0,0.0,0.0,0.0,0.0,0.0,0.0,0.0,0.0,0.0,0.0,0.0,0.0,0.0,0.0,0.0,0.6295,0.6146,0.6067,0.6067,0.6064,0.6142,0.6146,0.6179,0.6296,0.63,0.6219,0.6099,0.5867,0.5556,0.5129,0.4732,0.4265,0.3724,0.3331,0.2999,0.2673,0.2115,0.178,0.1491,0.1005,0.06,0.0265,0.0089,0.0,0.0,0.0,0.0,0.0,0.7377,0.754,0.7743,0.7906,0.8272,0.8588,0.8771,0.8804,0.8831,0.0,0.0,0.0,0.0,0.0,0.0,0.0,0.8978,0.8517,0.0,0.0,0.6874,0.6365,0.6256,0.609,0.5885,0.5754,0.5625,0.0,0.0,0.0,0.0,0.0,0.0,0.0,0.0,0.0,0.0,0.0,0.0,0.7144,0.0,0.6286,0.6205,0.6154,0.621,0.63,0.63,0.63,0.629,0.6094,0.0,0.609,0.6061,0.6229,0.0,0.0,0.0,0.0,0.0,0.0,0.0,0.0,0.0,0.9002,0.0,0.0,0.0,0.799,0.0,0.0,0.0,0.0,0.0,0.0,0.0,0.0,0.0,0.0,0.0,0.0,0.0,0.0,0.0,0.6335,0.6072,0.586,0.5813,0.5849,0.5972,0.6,0.6088,0.6252,0.6282,0.63,0.63,0.6099,0.5867,0.5637,0.5318,0.5046,0.4815,0.4309,0.4036,0.3919,0.3136,0.2656,0.238,0.1743,0.1203,0.0731,0.0265,0.0045,0.0,0.0,0.0,0.0,0.7891,0.8128,0.8315,0.8105,0.8559,0.8895,0.8804,0.8804,0.8871,0.0,0.0,0.0,0.0,0.0,0.0,0.0,0.0,0.0,0.8644,0.0,0.729,0.692,0.6452,0.6297,0.6486,0.5979,0.5825,0.6095,0.0,0.0,0.0,0.0,0.5852,0.6169,0.6593,0.0,0.0,0.0,0.761,0.0,0.7315,0.6964,0.0,0.6346,0.6297,0.63,0.63,0.63,0.6252,0.0,0.595,0.6076,0.0,0.6252,0.0,0.0,0.0,0.0,0.0,0.0,0.0,0.0,0.9352,0.0,0.0,0.0,0.8195,0.8162,0.0,0.0,0.0,0.0,0.0,0.0,0.0,0.0,0.0,0.0,0.0,0.0,0.0,0.0,0.0,0.0,0.6203,0.5992,0.5874,0.5821,0.5839,0.5921,0.6,0.6016,0.619,0.63,0.63,0.6261,0.6138,0.5864,0.5822,0.5592,0.5243,0.5165,0.4932,0.4582,0.4109,0.3684,0.3192,0.2416,0.1874,0.1398,0.0601,0.0177,0.0,0.0,0.0,0.0,0.8332,0.8445,0.8616,0.8419,0.878,0.9087,0.8929,0.8971,0.9257,0.0,0.0,0.0,0.0,0.0,0.0,0.0,0.0,1.0301,0.0,0.0,0.0,0.7829,0.7408,0.7081,0.6847,0.658,0.6267,0.5916,0.5651,0.0,0.0,0.0,0.6231,0.6687,0.7244,0.0,0.8184,0.0,0.0,0.0,0.0,0.0,0.0,0.6487,0.6309,0.63,0.63,0.63,0.6265,0.0,0.6042,0.0,0.0,0.0,0.0,0.0,0.0,0.0,0.0,0.0,0.0,0.0,0.0,0.0,0.9414,0.0,0.854,0.0,0.0,0.0,0.0,0.0,0.0,0.0,0.0,0.0,0.0,0.0,0.0,0.0,0.0,0.0,0.0,0.0,0.0,0.0,0.0,0.569,0.5686,0.5731,0.5854,0.5986,0.6091,0.6169,0.63,0.63,0.6257,0.6141,0.6141,0.606,0.5867,0.5709,0.5553,0.5359,0.4968,0.454,0.4114,0.3523,0.2924,0.2236,0.1618,0.0891,0.0173,0.0173,0.0087,0.0,0.9182,0.0,0.0,0.8906,0.9112,0.9265,0.9091,0.9361,0.9833,0.0,0.0,0.0,1.1503,1.1884,0.0,0.0,0.0,1.1236,0.0,0.0,0.9231,0.8784,0.8297,0.0,0.0,0.7126,0.6687,0.6054,0.5912,0.0,0.0,0.0,0.0,0.7168,0.0,0.8352,0.8931,0.0,0.0,0.8953,0.863,0.8118,0.7421,0.6653,0.6364,0.6374,0.6338,0.63,0.6276,0.6081,0.6176,0.0,0.6605,0.0,0.0,0.0,0.0,0.0,0.9858,0.0,0.0,0.0,0.0,0.0,0.0,0.0,0.0,0.0,0.0,0.0,0.0,0.0,0.0,0.0,0.0,0.0,0.0,0.0,0.0,0.0,0.0,0.0,0.0,0.0,0.0,0.0,0.0,0.0,0.5589,0.5591,0.5699,0.5922,0.5973,0.6105,0.6296,0.63,0.63,0.63,0.63,0.63,0.63,0.6099,0.6018,0.598,0.5631,0.5282,0.4935,0.4499,0.3872,0.3132,0.2774,0.1911,0.0869,0.0587,0.0383,0.0216,1.0746,1.0301,0.0,0.0,0.0,0.9487,0.9233,0.996,1.0559,0.0,0.0,0.0,0.0,0.0,0.0,0.0,0.0,1.2017,1.1375,0.0,0.9953,0.9682,0.8844,0.8375,0.0,0.7468,0.6986,0.696,0.6432,0.6176,0.0,0.0,0.0,0.0,0.0,0.8684,0.9223,0.9751,0.9786,0.9458,0.9338,0.867,0.7689,0.0,0.6591,0.6563,0.6377,0.0,0.0,0.6081,0.6254,0.0,0.0,0.0,0.0,0.0,0.0,0.0,0.0,0.0,0.0,1.0942,0.0,0.0,0.0,0.0,0.8804,0.0,0.0,0.0,0.0,0.0,0.0,0.0,0.0,0.0,0.0,0.0,0.0,0.0,0.0,0.0,0.0,0.0,0.0,0.0,0.0,0.0,0.5612,0.5596,0.5678,0.58,0.5915,0.6105,0.6296,0.63,0.63,0.63,0.63,0.63,0.63,0.63,0.63,0.6261,0.598,0.5747,0.5559,0.5124,0.4616,0.4034,0.3843,0.3219,0.2293,0.1284,0.0885,0.0803,0.0,0.0,0.0,0.0,0.0,0.9656,0.9771,1.0408,0.0,0.0,0.0,0.0,0.0,0.0,1.3801,0.0,0.0,1.3146,1.2388,1.1692,0.0,0.0,0.0,0.9439,0.0,0.0,0.7985,0.7599,0.7243,0.6941,0.0,0.0,0.0,0.0,0.0,0.9092,0.0,0.0,0.0,0.0,0.0,0.977,0.9329,0.0,0.0,0.7119,0.6913,0.6845,0.0,0.6581,0.6729,0.7007,0.6991,0.753,0.8282,0.8689,0.9371,0.0,0.0,0.0,1.0758,1.0962,0.0,0.0,0.0,0.0,0.0,0.0,0.0,0.0,0.0,0.0,0.0,0.0,0.0,0.0,0.0,0.0,0.0,0.0,0.0,0.0,0.0,0.0,0.0,0.0,0.0,0.0,0.0,0.5459,0.5505,0.5539,0.5749,0.5952,0.6105,0.6248,0.63,0.63,0.63,0.63,0.63,0.63,0.63,0.63,0.6219,0.6022,0.5786,0.5667,0.5315,0.489,0.4654,0.4345,0.3808,0.2436,0.1705,0.1323,1.1988,0.0,0.0,0.0,0.0,0.0,0.0,0.0,0.0,0.0,1.308,0.0,1.388,0.0,1.4603,0.0,1.4302,1.3955,1.3306,1.271,0.0,1.1672,1.0949,0.0,0.0,0.0,0.8831,0.8218,0.796,0.7635,0.0,0.0,0.0,0.0,0.0,0.0,0.0,0.0,1.0976,0.0,0.0,1.0762,0.0,0.0,0.8053,0.7855,0.0,0.7453,0.7435,0.7221,0.7324,0.7496,0.7431,0.7906,0.8561,0.8837,0.9501,1.0244,1.0653,1.083,0.0,1.1235,1.0788,0.0,1.0274,0.0,0.0,0.0,0.0,0.0,0.0,0.0,0.0,0.0,0.0,0.0,0.0,0.0,0.0,0.0,0.0,0.0,0.0,0.0,0.7366,0.6775,0.0,0.0,0.0,0.0,0.547,0.5455,0.5634,0.5823,0.599,0.6129,0.6245,0.63,0.63,0.63,0.63,0.63,0.63,0.63,0.63,0.6219,0.606,0.606,0.5825,0.5512,0.5354,0.5162,0.4737,0.3448,0.2508,0.1878,0.0,0.0,0.0,0.0,1.0731,0.0,0.0,0.0,1.2167,0.0,1.3621,1.4242,1.4529,1.483,1.5055,1.5055,1.4736,0.0,1.4148,1.3581,0.0,0.0,1.1957,1.1356,1.1062,0.0,0.0,0.0,0.859,0.0,0.0,0.0,0.0,0.0,0.8938,0.0,0.978,1.0692,1.1325,1.1686,1.1754,1.1613,1.1291,1.0438,0.9641,0.8896,0.837,0.8201,0.8168,0.7962,0.8007,0.8159,0.7932,0.8289,0.878,0.9003,0.9609,1.0368,1.0962,1.1211,1.14,1.1799,0.0,0.0,0.0,0.0,0.9773,0.0,0.0,0.0,0.0,0.0,0.0,0.0,0.0,0.0,0.0,0.0,0.0,0.0,0.0,0.0,0.0,0.0,0.7443,0.7289,0.679,0.0,0.0,0.0,0.5604,0.5599,0.5607,0.5764,0.6013,0.6023,0.6105,0.63,0.63,0.63,0.63,0.63,0.63,0.63,0.63,0.63,0.63,0.63,0.6141,0.5902,0.5902,0.567,0.5204,0.4231,0.3304,0.2568,1.359,1.3314,1.2972,0.0,1.1806,1.1149,0.0,0.0,0.0,0.0,1.4372,1.485,1.5144,1.5431,1.5605,1.5605,1.5337,0.0,0.0,0.0,0.0,1.3427,1.2766,1.2308,1.1971,1.1102,0.0,0.975,0.0,0.0,0.8263,0.0,0.0,0.0,0.0,0.0,1.0053,1.0724,1.1713,1.279,1.2866,1.2876,0.0,0.0,1.1793,1.1313,0.9909,0.9597,0.9748,0.9368,0.923,0.9242,0.8866,0.9058,0.9392,0.9614,1.0137,1.0738,1.1186,1.143,1.1585,1.1835,1.153,1.1202,0.0,0.0,0.0,0.0,0.0,0.0,0.0,0.0,0.0,0.0,0.0,0.0,0.0,0.0,0.0,0.0,0.0,0.0,0.0,0.7402,0.7312,0.6895,0.6729,0.0,0.0,0.0,0.0,0.5612,0.5826,0.6063,0.6295,0.6264,0.6328,0.6525,0.6377,0.63,0.63,0.63,0.63,0.63,0.63,0.63,0.63,0.63,0.6261,0.618,0.618,0.6022,0.5628,0.4776,0.4214,0.3826,1.426,0.0,0.0,1.3786,0.0,0.0,1.2256,0.0,0.0,1.4162,1.4676,0.0,1.5538,1.5732,1.5784,1.5784,1.5678,0.0,1.517,0.0,0.0,1.4235,1.3654,1.3172,1.2705,1.183,0.0,1.0083,0.0,0.0,0.8402,0.0,0.0,0.0,0.0,0.9225,0.0,1.1096,1.2204,1.3207,1.3415,0.0,0.0,1.3052,1.2875,1.2705,1.1671,1.1193,1.1064,1.0669,1.0553,1.0506,1.0056,1.0136,1.0357,1.0283,1.0663,1.1149,1.1446,1.1665,1.1804,1.2021,1.1837,1.1617,1.1617,1.1516,1.1389,0.0,0.0,0.0,0.0,0.0,0.0,0.0,0.0,0.0,0.0,0.0,0.0,0.0,0.0,0.0,0.0,0.723,0.7131,0.6896,0.6828,0.0,0.0,0.0,0.0,0.5992,0.6125,0.627,0.6409,0.6432,0.6448,0.6457,0.6454,0.6374,0.63,0.63,0.63,0.63,0.63,0.63,0.63,0.63,0.63,0.63,0.63,0.6219,0.6022,0.5556,0.5165,0.4799,0.0,0.0,0.0,0.0,0.0,0.0,0.0,1.3258,0.0,1.4522,0.0,1.5224,1.5772,1.5784,1.5784,1.5784,0.0,1.5718,1.5471,1.5418,1.5284,1.5075,1.4539,1.3928,1.334,1.2485,0.0,0.0,0.0,0.0,0.0,0.0,0.0,0.0,0.0,0.0,0.0,1.159,1.2652,0.0,1.3592,1.3737,1.3695,1.3355,1.3355,1.3483,1.3313,1.279,1.2151,1.1943,1.1886,1.1781,1.1368,1.1298,1.1358,1.1087,1.1216,1.1521,1.1706,1.1892,1.2077,1.2261,1.2111,1.196,1.196,1.173,1.1502,1.1502,1.1502,1.1369,0.0,0.0,0.0,0.0,0.0,0.0,0.0,0.0,0.0,0.0,0.0,0.0,0.0,0.7148,0.6955,0.7074,0.0,0.0,0.0,0.0,0.0,0.6648,0.6515,0.6481,0.6573,0.0,0.6571,0.6396,0.6523,0.649,0.63,0.63,0.63,0.63,0.63,0.63,0.63,0.63,0.63,0.63,0.63,0.63,0.63,0.63,0.6011,0.5635,0.0,0.0,0.0,0.0,0.0,1.5308,1.4705,1.4227,1.4249,1.5124,1.5284,1.5451,1.5792,1.5784,1.5784,1.5784,1.5784,0.0,0.0,0.0,0.0,1.5324,1.5035,1.4579,1.3948,1.3307,1.2392,0.0,1.0421,0.9684,0.0,0.0,0.0,0.0,0.0,0.0,1.0519,1.1764,0.0,1.326,1.3806,1.4046,1.3997,1.3955,1.3962,1.3962,1.3955,1.3568,1.313,1.2911,1.2835,1.2719,1.2496,1.2242,1.203,1.1979,1.1941,1.1892,1.1929,1.2077,1.2261,1.2298,1.2265,1.2225,1.2225,1.2184,1.2151,1.2151,1.2151,1.2044,1.1739,0.0,0.0,0.0,0.0,0.0,0.0,0.0,0.0,0.0,0.0,0.0,0.0,0.0,0.0,0.0,0.0,0.0,0.0,0.0,0.0,0.0,0.7251,0.0,0.0,0.0,0.6997,0.6808,0.6676,0.649,0.63,0.63,0.63,0.63,0.63,0.63,0.63,0.63,0.63,0.63,0.63,0.63,0.63,0.63,0.6391,0.6458,0.0,0.0,0.0,0.0,0.0,0.0,0.0,1.5116,0.0,1.5344,1.5398,1.5504,1.5751,1.5784,1.5784,1.5784,1.5784,1.5784,1.5784,1.5698,1.5618,1.5618,1.5344,0.0,1.4322,1.3587,1.2625,1.1389,1.0548,0.971,0.0,0.0,0.0,0.0,0.0,1.0053,0.0,0.0,0.0,1.3433,1.3908,1.4088,1.4088,1.4088,1.4088,1.4088,1.4088,1.3955,1.3743,1.3652,1.361,1.3509,1.3235,1.3043,1.2916,1.2772,1.2587,1.2419,1.2419,1.2344,1.2305,1.2305,1.2305,1.2305,1.2305,1.2305,1.2305,1.2305,1.2305,1.2164,1.1717,1.1082,0.0,0.0,0.0,0.0,0.0,0.0,0.0,0.0,0.0,0.0,0.0,0.0,0.0,0.0,0.0,0.0,0.0,0.0,0.0,0.0,0.0,0.0,0.0,0.0,0.0,0.7038,0.6938,0.6756,0.6451,0.6335,0.63,0.63,0.63,0.63,0.63,0.63,0.63,0.63,0.63,0.63,0.63,0.63,0.6487,0.6698,0.0,1.9231,0.0,0.0,1.688,0.0,1.6144,1.5768,1.5491,1.5491,1.5491,1.5578,1.5758,1.5784,1.5784,1.5784,1.5784,1.5784,1.5784,1.5784,1.5784,1.5784,1.5611,1.5244,1.4716,1.3908,1.2939,0.0,1.0823,0.0,0.0,0.0,0.871,0.8817,0.0,0.0,0.0,0.0,1.3153,1.3626,1.3968,1.4088,1.4088,1.4088,1.4088,1.4088,1.4088,1.4088,1.4088,1.4088,1.4088,1.4048,1.3808,1.3653,1.356,1.3367,1.3086,1.2871,1.2804,1.2616,1.2378,1.2318,1.2305,1.2305,1.2305,1.2305,1.2305,1.2305,1.2305,1.2124,1.1502,1.1049,0.0,0.0,0.0,0.0,0.0,0.0,0.0,0.0,0.0,0.0,0.0,0.0,0.0,0.0,0.0,0.0,0.0,0.0,0.0,0.0,0.0,0.8273,0.8163,0.0,0.8007,0.7371,0.7273,0.7026,0.6637,0.6451,0.6338,0.63,0.63,0.63,0.63,0.63,0.63,0.63,0.63,0.63,0.63,0.63,0.6487,0.6702,0.0,0.0,0.0,0.0,0.0,0.0,1.6425,1.6039,1.5744,1.5744,1.5744,1.5751,1.5778,1.5784,1.5784,1.5784,1.5784,1.5784,1.5784,1.5784,1.5784,1.5784,1.5758,1.5638,1.5317,1.471,1.3955,0.0,0.0,0.0,0.0,0.0,0.9699,0.9993,0.0,0.0,0.0,1.2786,1.3313,1.3626,1.3968,1.4088,1.4088,1.4088,1.4088,1.4088,1.4088,1.4088,1.4088,1.4088,1.4088,1.4082,1.4055,1.382,1.36,1.3573,1.3353,1.3106,1.2857,1.2764,1.2677,1.2371,1.2305,1.2305,1.2305,1.2305,1.2305,1.2305,1.2305,1.2124,1.1502,1.1349,1.1076,0.0,0.0,0.0,0.0,0.0,0.0,0.0,0.0,0.0,0.0,0.0,0.0,0.0,0.0,0.0,0.0,0.0,0.0,0.8925,0.0,0.8669,0.873,0.8553,0.8309,0.7934,0.7546,0.7209,0.6865,0.6676,0.649,0.63,0.63,0.63,0.63,0.63,0.63,0.63,0.63,0.63,0.63,0.63,0.6487,0.6702,0.0,0.0,0.0,0.0,0.0,0.0,0.0,1.5994,1.5784,1.5784,1.5784,1.5784,1.5784,1.5784,1.5784,1.5784,1.5784,1.5784,1.5784,1.5784,1.5784,1.5784,1.5784,1.5691,1.5404,1.4997,1.4355,0.0,0.0,0.0,0.0,0.0,1.0461,0.0,0.0,1.2225,1.2712,1.32,1.3641,1.3921,1.4041,1.4088,1.4088,1.4088,1.4088,1.4088,1.4088,1.4088,1.4088,1.4088,1.4088,1.4088,1.4088,1.4008,1.3908,1.3908,1.366,1.34,1.332,1.3065,1.2757,1.2636,1.2438,1.2305,1.2305,1.2305,1.2305,1.2305,1.2305,1.2124,1.1502,1.1389,1.1162,0.0,0.0,0.0,0.0,0.0,0.0,0.0,0.0,0.0,0.0,0.0,0.0,0.0,0.0,0.7266,0.7872,0.0,0.0,0.9223,0.0,0.9214,0.9411,0.9255,0.9008,0.8639,0.8184,0.7834,0.7599,0.718,0.6795,0.649,0.649,0.6412,0.63,0.63,0.63,0.63,0.63,0.63,0.63,0.63,0.6487,0.6702,2.2087,0.0,1.9754,0.0,1.7761,1.6843,1.651,1.613,1.5879,1.5832,1.5784,1.5784,1.5784,1.5784,1.5784,1.5784,1.5784,1.5784,1.5784,1.5784,1.5784,1.5784,1.5784,0.0,1.5531,1.5237,1.4743,1.3993,1.3133,0.0,0.0,1.153,1.1557,0.0,1.2652,1.3193,1.3614,1.3908,1.4155,1.4349,1.4349,1.4349,1.4349,1.4349,1.4349,1.4329,1.4249,1.4215,1.4202,1.4115,1.4088,1.4088,1.4088,1.4088,1.4088,1.4088,1.3941,1.3713,1.3626,1.3333,1.3005,1.2831,1.2623,1.2412,1.2318,1.2305,1.2305,1.2305,1.2305,1.2124,1.1502,1.1389,1.1236,1.0687,0.0,0.0,0.0,0.0,0.0,0.0,0.0,0.8691,0.0,0.0,0.0,0.0,0.0,0.7453,0.7885,0.0,0.0,0.0,0.0,0.0,0.0,0.9798,0.9627,0.9346,0.8975,0.8612,0.8327,0.7676,0.7176,0.6868,0.6753,0.6563,0.6374,0.6338,0.63,0.63,0.63,0.63,0.63,0.63,0.6487,0.6702,2.299,2.2046,2.1052,2.0047,1.8933,1.7938,1.7189,1.66,1.6123,1.5832,1.5784,1.5784,1.5784,1.5784,1.5784,1.5784,1.5784,1.5784,1.5784,1.5784,1.5784,0.0,0.0,1.5784,1.5778,1.5538,1.5244,1.4995,0.0,0.0,1.3186,1.318,1.318,1.3227,1.4102,1.4496,1.4522,1.4823,1.4995,1.4995,1.4995,1.4995,1.4995,1.4995,1.4995,1.4961,1.4623,1.4516,1.4469,1.4182,1.4088,1.4088,1.4088,1.4088,1.4088,1.4088,1.4082,1.4015,1.3686,1.36,1.3447,1.2931,1.2784,1.2703,1.2371,1.2305,1.2305,1.2305,1.2305,1.2124,1.1502,1.1389,1.1236,1.0687,0.0,0.0,0.0,0.0,0.0,0.0,0.8804,0.8691,0.8429,0.0,0.0,0.0,0.0,0.0,0.7905,0.0,0.0,0.9198,0.9326,0.0,0.9884,1.0096,1.0135,0.9985,0.9909,0.9564,0.896,0.8165,0.7672,0.7484,0.7057,0.6788,0.6563,0.6374,0.63,0.63,0.63,0.63,0.63,0.63,0.6487,0.6702,2.3064,2.212,2.1069,2.0063,1.919,1.8341,1.7506,1.7036,1.6735,1.6426,1.6253,1.6132,1.6132,1.5952,1.5784,0.0,1.5784,1.5784,0.0,1.5784,1.5784,1.5784,1.5784,1.5784,1.5784,1.5738,1.5545,1.5257,0.0,0.0,0.0,1.4008,1.4102,1.4122,1.4609,1.4823,1.4874,1.4968,1.5008,1.5008,1.5008,1.5008,1.5008,1.5008,1.5008,1.4995,1.4901,1.4823,1.481,1.476,1.4727,1.4649,1.4442,1.4249,1.4088,1.4088,1.4088,1.4068,1.3975,1.376,1.3553,1.3407,1.3053,1.2757,1.2663,1.2445,1.2305,1.2305,1.2305,1.2184,1.1797,1.1563,1.1262,1.0915,1.072,0.0,0.0,0.0,0.0,0.0,0.0,0.8771,0.0,0.8844,0.0,0.0,0.0,0.0,0.0,0.0,0.0,0.0,0.9767,0.0,1.0644,1.0574,1.0668,1.0883,1.0605,1.0163,0.9614,0.9198,0.8703,0.8097,0.7706,0.7326,0.6988,0.6641,0.6486,0.649,0.6335,0.63,0.63,0.63,0.6487,0.6702,2.3774,2.294,2.1971,2.104,2.0146,1.922,1.8275,1.7725,1.7256,1.6907,1.6603,1.6433,1.6433,1.6266,0.0,1.5798,1.5784,1.5784,1.5784,1.5784,1.5784,1.5784,1.5784,1.5784,1.5784,1.5784,0.0,1.5558,1.5264,1.4928,1.4422,1.471,1.485,1.4863,1.5157,1.5291,1.5291,1.5291,1.5291,1.5291,1.5291,1.5291,1.5291,1.5291,1.5291,1.5277,1.5209,1.5169,1.511,1.5042,1.5008,1.4975,1.4743,1.4489,1.4229,1.4122,1.4088,1.4088,1.4088,1.3948,1.374,1.3633,1.336,1.3065,1.2837,1.2556,1.2305,1.2305,1.2305,1.2211,1.196,1.1623,1.1295,1.1042,1.078,1.0385,0.9796,0.0,0.0,0.0,0.0,0.0,0.0,0.9299,0.0,0.0,0.0,0.0,0.0,0.0,0.0,0.9833,1.0127,0.0,1.0989,1.1108,1.1227,1.1407,1.1106,1.0807,1.0443,1.0105,0.9614,0.9046,0.8508,0.8012,0.7599,0.7138,0.6911,0.6795,0.6528,0.6412,0.6419,0.6397,0.6491,0.6709,2.4981,2.4282,2.3479,0.0,2.1637,0.0,1.9462,1.8597,1.7811,1.7275,1.6954,1.674,1.674,1.672,1.6486,1.5891,0.0,0.0,0.0,1.5784,1.5784,1.5784,1.5784,1.5784,1.5784,1.5784,1.5784,1.5784,1.5558,1.5291,1.5075,1.5297,1.5424,1.5438,1.5712,1.5784,1.5784,1.5784,1.5784,1.5784,1.5784,1.5784,1.5784,1.5784,1.5784,1.5792,1.5524,1.5424,1.5384,1.5162,1.5068,1.5068,1.5042,1.4803,1.4522,1.4208,1.4102,1.4088,1.4088,1.4088,1.4021,1.37,1.362,1.3453,1.2951,1.2583,1.2331,1.2331,1.2318,1.2218,1.1986,1.1637,1.1336,1.1069,1.0794,1.0392,0.9822,0.0,0.0,0.0,0.0,0.0,0.0,0.9729,0.9742,0.0,0.0,0.0,0.0,0.0,0.9893,1.014,1.0466,1.0774,1.1049,1.1631,1.1806,1.1654,1.1512,1.1446,1.1409,1.085,1.0481,1.0218,0.942,0.8851,0.8441,0.7825,0.7446,0.7261,0.6834,0.6644,0.6634,0.6543,0.6617,0.6736,0.0,0.0,2.3877,2.3479,2.25,2.1484,2.0613,1.9793,1.9082,1.8457,1.7798,1.7411,1.7411,1.6999,1.6653,1.6513,1.6293,1.6072,1.5798,1.5784,1.5784,1.5784,1.5784,1.5784,1.5784,1.5784,1.5784,1.5784,1.5758,1.5691,1.5625,1.5698,1.5732,1.5732,1.5751,1.5784,1.5784,1.5784,1.5784,1.5784,1.5784,1.5784,1.5784,1.5784,1.5784,1.5771,1.5752,1.5732,1.5718,1.5651,1.5625,1.5585,1.5364,1.5244,1.5084,1.4569,1.4262,1.4088,1.4088,1.4088,1.4068,1.4001,1.3808,1.3507,1.318,1.2904,1.2683,1.2683,1.2496,1.2278,1.2211,1.1777,1.1369,1.1336,1.0895,1.0466,1.0067,1.0013,0.0,0.0,0.9579,0.9606,0.9708,0.9886,1.0013,0.0,0.0,0.0,0.0,1.0593,1.0646,1.0492,1.0774,1.1176,1.1692,1.1832,1.1984,1.2125,1.2081,1.2003,1.1855,1.1558,1.1223,1.085,1.0212,0.9765,0.9501,0.8737,0.8284,0.8059,0.7522,0.7254,0.7173,0.6864,0.6891,0.713,2.5489,2.503,2.4578,2.4282,2.3479,2.2627,2.1903,2.1046,2.0225,1.9657,1.9,1.8442,1.8177,1.787,1.7507,1.713,1.6619,1.6206,1.6046,1.5905,1.5784,1.5784,1.5784,1.5784,1.5784,1.5784,1.5784,1.5784,1.5784,1.5784,1.5784,1.5784,1.5784,1.5784,1.5784,1.5784,1.5784,1.5784,1.5784,1.5784,1.5784,1.5784,1.5784,1.5784,1.5784,1.5784,1.5784,1.5784,1.5784,1.5784,1.5784,1.5751,1.5645,1.5504,1.5337,1.501,1.4623,1.4255,1.4122,1.4088,1.4088,1.4088,1.3868,1.356,1.3407,1.3173,1.2958,1.2811,1.2656,1.2465,1.2325,1.1817,1.1389,1.1389,1.0942,1.0486,1.016,1.0083,0.0,1.0117,1.0117,1.0218,1.0454,1.0621,1.0683,1.0683,1.0862,0.0,1.0955,1.1102,1.1056,1.0801,1.1209,1.1584,1.1899,1.2033,1.2144,1.2305,1.2305,1.2224,1.212,1.1929,1.1706,1.1484,1.0962,1.0625,1.04,0.9685,0.9273,0.9008,0.8322,0.8013,0.7951,0.76,0.7552,0.7614,2.5693,2.5489,2.5235,2.4981,2.4332,2.3628,2.3179,2.2207,2.1336,2.0893,2.0285,1.9665,1.919,1.9034,1.8674,1.797,1.7177,1.6582,1.6444,1.6155,1.5994,1.5994,1.5899,1.5879,1.5879,1.5825,1.5784,1.5784,1.5784,1.5784,1.5784,1.5784,1.5784,1.5784,1.5784,1.5784,1.5784,1.5784,1.5784,1.5784,1.5784,1.5784,1.5784,1.5784,1.5784,1.5784,1.5784,1.5784,1.5784,1.5784,1.5784,1.5784,1.5784,1.5658,1.5451,1.5411,1.5044,1.4583,1.4242,1.4122,1.4088,1.4088,1.3901,1.3666,1.3666,1.3447,1.32,1.2978,1.2851,1.2703,1.2418,1.185,1.1389,1.1389,1.0942,1.0506,1.0221,0.0,1.0341,1.0626,1.07,1.0882,1.1342,1.1389,1.1389,1.1389,1.1389,1.1389,1.1389,1.1435,1.1383,1.1129,1.1645,1.1926,1.1973,1.2178,1.2305,1.2305,1.2305,1.2305,1.2298,1.2114,1.204,1.2003,1.1632,1.1409,1.1186,1.0625,1.0255,0.9997,0.9266,0.8985,0.8958,0.8633,0.8413,0.8294,2.5693,2.5489,2.5284,2.5235,2.4784,2.4282,2.3985,2.322,2.2518,2.2224,2.1353,2.0688,2.0577,1.9975,1.9502,1.9398,1.8804,1.8017,1.7016,1.6911,1.6884,1.6884,1.6402,1.613,1.613,1.5927,1.5784,1.5784,1.5784,1.5784,1.5784,1.5784,1.5784,1.5784,1.5784,1.5784,1.5784,1.5784,1.5784,1.5784,1.5784,1.5784,1.5784,1.5784,1.5784,1.5784,1.5784,1.5784,1.5784,1.5784,1.5784,1.5784,1.5784,1.5751,1.5712,1.5471,1.5331,1.5144,1.4603,1.4275,1.4088,1.4088,1.4055,1.4015,1.4015,1.3788,1.3527,1.3473,1.31,1.277,1.2723,1.1991,1.1389,1.1389,1.0942,1.0579,1.0526,0.0,1.0875,1.0922,1.1142,1.1295,1.1382,1.1389,1.1389,1.1389,1.1389,1.1389,1.1389,1.1663,1.1819,1.1772,1.1859,1.2027,1.2231,1.2278,1.2305,1.2305,1.2305,1.2305,1.2305,1.2268,1.2268,1.2224,1.2003,1.1892,1.1818,1.1409,1.1111,1.0873,1.0478,1.0313,1.0262,0.9668,0.9545,0.9509,2.5693,2.5586,2.5538,2.5538,2.5186,2.4883,2.4784,2.4183,2.3678,2.3379,2.282,2.2257,2.181,2.1404,2.1003,2.038,2.035,2.0042,1.9216,1.8449,1.803,1.803,1.758,1.7096,1.665,1.6218,1.6028,1.6028,1.5879,1.5784,1.5784,1.5784,1.5784,1.5784,1.5784,1.5784,1.5784,1.5784,1.5784,1.5784,1.5784,1.5784,1.5784,1.5784,1.5784,1.5784,1.5784,1.5784,1.5784,1.5784,1.5784,1.5784,1.5784,1.5784,1.5758,1.5671,1.5404,1.507,1.4636,1.4422,1.4282,1.4128,1.4088,1.4088,1.4088,1.3981,1.3834,1.3633,1.338,1.3133,1.2844,1.2285,1.1844,1.169,1.1303,0.0,0.0,1.1142,1.1283,1.1443,1.1583,1.173,1.1884,1.1897,1.1897,1.1897,1.1897,1.1897,1.1897,1.2024,1.2104,1.2104,1.2104,1.2164,1.2305,1.2305,1.2305,1.2305,1.2305,1.2305,1.2305,1.2305,1.2305,1.2298,1.2187,1.2157,1.215,1.1855,1.1669,1.1583,1.1369,1.1319,1.1255,1.101,1.0826,1.0587,2.5859,2.584,2.581,2.5703,2.5538,2.5382,2.5382,2.4981,2.4627,2.443,2.4075,2.3628,2.3029,2.2828,2.2467,2.1599,2.1869,2.192,2.1548,2.0542,1.9771,1.9349,1.8921,1.8258,1.733,1.6843,1.6523,1.6414,1.6076,1.5879,1.5879,1.5832,1.5784,1.5784,1.5784,1.5784,1.5784,1.5784,1.5784,1.5784,1.5784,1.5784,1.5784,1.5784,1.5784,1.5784,1.5784,1.5784,1.5784,1.5784,1.5784,1.5784,1.5784,1.5784,1.5784,1.5784,1.5518,1.5097,1.4803,1.4623,1.4469,1.4242,1.4135,1.4088,1.4088,1.4088,1.4021,1.3753,1.3646,1.346,1.3079,1.2652,1.2311,1.2053,0.0,0.0,0.0,1.1483,1.1617,1.1879,1.1966,1.2058,1.2278,1.2305,1.2305,1.2305,1.2305,1.2305,1.2305,1.2305,1.2305,1.2305,1.2305,1.2305,1.2305,1.2305,1.2305,1.2305,1.2305,1.2305,1.2305,1.2305,1.2305,1.2305,1.2305,1.2305,1.2298,1.212,1.2123,1.217,1.2158,1.217,1.2249,1.2271,1.2024,1.1714,2.6416,2.6338,2.6211,2.5762,2.5684,2.5684,2.5684,2.544,2.5235,2.5235,2.4784,2.443,2.4381,2.3935,2.3578,2.3479,2.3279,2.3279,2.3479,2.3425,2.2635,2.1098,2.0297,1.9356,1.8218,1.7916,1.7483,1.6932,1.6407,1.6177,1.6177,1.5927,1.5784,1.5784,1.5784,1.5784,1.5784,1.5784,1.5784,1.5784,1.5784,1.5784,1.5784,1.5784,1.5784,1.5784,1.5784,1.5784,1.5784,1.5784,1.5784,1.5784,1.5784,1.5784,1.5784,1.5784,1.5751,1.5705,1.5411,1.4937,1.4516,1.4496,1.4282,1.4088,1.4088,1.4088,1.4082,1.4055,1.3834,1.3586,1.3547,1.3106,1.2656,1.2318,0.0,0.0,1.1429,1.1663,1.1879,1.1899,1.2104,1.2278,1.2298,1.2305,1.2305,1.2305,1.2305,1.2305,1.2305,1.2305,1.2305,1.2305,1.2305,1.2305,1.2305,1.2305,1.2305,1.2305,1.2305,1.2305,1.2305,1.2305,1.2305,1.2305,1.2305,1.2305,1.2305,1.2268,1.2465,1.2746,1.2818,1.2993,1.319,1.3048,1.2991,1.2924,2.6807,2.6777,2.6641,2.6211,2.6143,2.6055,2.5732,2.5586,2.5538,2.5538,2.5382,2.5186,2.503,2.4833,2.4578,2.4233,2.4282,2.4282,2.4183,2.4332,2.3843,2.2509,2.1669,2.093,2.0278,1.9549,1.9005,1.8601,1.768,1.706,1.6731,1.6259,1.5974,1.5784,1.5784,1.5784,1.5784,1.5784,1.5784,1.5784,1.5784,1.5784,1.5784,1.5784,1.5784,1.5784,1.5784,1.5784,1.5784,1.5784,1.5784,1.5784,1.5784,1.5784,1.5784,1.5784,1.5784,1.5758,1.5698,1.5371,1.5023,1.4843,1.4576,1.4355,1.4355,1.4215,1.4088,1.4088,1.4001,1.3861,1.3633,1.3413,1.3206,1.2913,0.0,1.2592,1.2321,1.2382,1.2382,1.2158,1.2231,1.2305,1.2305,1.2305,1.2305,1.2305,1.2305,1.2305,1.2305,1.2305,1.2305,1.2305,1.2305,1.2305,1.2305,1.2305,1.2305,1.2305,1.2305,1.2305,1.2305,1.2305,1.2305,1.2305,1.2305,1.2305,1.2318,1.2536,1.2683,1.2837,1.3207,1.3385,1.3517,1.3681,1.361,1.3434,2.7246,2.7217,2.709,2.666,2.6592,2.6484,2.6132,2.6025,2.5947,2.5947,2.5771,2.5635,2.544,2.544,2.5284,2.4883,2.5039,2.5079,2.4883,2.5039,2.4701,2.3624,2.3077,2.2549,2.2057,2.1172,2.054,2.0087,1.898,1.8197,1.7719,1.7077,1.6587,1.6348,1.6252,1.615,1.6069,1.6069,1.6069,1.6015,1.5974,1.5927,1.5927,1.5832,1.5784,1.5784,1.5784,1.5784,1.5784,1.5784,1.5784,1.5784,1.5784,1.5784,1.5784,1.5784,1.5784,1.5784,1.5784,1.5685,1.5464,1.517,1.4877,1.4636,1.4543,1.4362,1.4202,1.4108,1.4088,1.4021,1.378,1.374,1.3646,1.3353,1.3347,1.324,1.2971,1.2931,1.2817,1.2478,1.2445,1.2405,1.2311,1.2305,1.2305,1.2305,1.2305,1.2305,1.2305,1.2305,1.2305,1.2305,1.2305,1.2305,1.2305,1.2305,1.2305,1.2305,1.2305,1.2305,1.2305,1.2305,1.2305,1.2305,1.2305,1.2351,1.2458,1.2697,1.2898,1.3105,1.344,1.366,1.3766,1.4015,1.3997,1.3828,2.7806,2.7718,2.7539,2.71,2.7021,2.7021,2.7012,2.666,2.6396,2.6387,2.6006,2.5693,2.5693,2.5693,2.5693,2.5693,2.5693,2.5693,2.5693,2.5693,2.5333,2.4529,2.4538,2.4088,2.3238,2.2695,2.1968,2.1109,2.0095,1.947,1.9184,1.839,1.7829,1.752,1.7244,1.693,1.6595,1.6588,1.6588,1.6588,1.6319,1.6224,1.6177,1.5927,1.5784,1.5784,1.5784,1.5784,1.5784,1.5784,1.5784,1.5784,1.5784,1.5784,1.5784,1.5784,1.5784,1.5784,1.5784,1.5784,1.5758,1.5471,1.5177,1.4934,1.4596,1.4522,1.4442,1.4155,1.4088,1.4088,1.4088,1.4088,1.3988,1.3653,1.3606,1.3507,1.3253,1.3213,1.31,1.2824,1.279,1.267,1.2338,1.2305,1.2305,1.2305,1.2305,1.2305,1.2305,1.2305,1.2305,1.2305,1.2305,1.2305,1.2305,1.2305,1.2305,1.2305,1.2305,1.2305,1.2305,1.2305,1.2305,1.2305,1.2305,1.2472,1.2784,1.279,1.3106,1.36,1.3606,1.3828,1.4088,1.4088,1.4088,1.4088,2.8135,2.8105,2.7969,2.7549,2.7471,2.7373,2.706,2.6904,2.6728,2.6426,2.6279,2.6074,2.5723,2.5693,2.5693,2.5693,2.5693,2.5693,2.5693,2.5693,2.5586,2.5333,2.5137,2.4924,2.4694,2.4147,2.3542,2.2925,2.2016,2.1146,2.0358,1.9719,1.9066,1.8397,1.8356,1.8108,1.786,1.7765,1.7622,1.7471,1.7098,1.6878,1.6697,1.6265,1.6076,1.6076,1.5879,1.5784,1.5784,1.5784,1.5784,1.5784,1.5784,1.5784,1.5784,1.5784,1.5784,1.5784,1.5784,1.5784,1.5758,1.5718,1.5484,1.5244,1.5157,1.4977,1.4743,1.4456,1.4389,1.4329,1.4122,1.4088,1.4055,1.3968,1.3955,1.3854,1.352,1.3473,1.3367,1.3106,1.3073,1.3039,1.2946,1.2739,1.265,1.265,1.2418,1.2305,1.2305,1.2305,1.2305,1.2305,1.2305,1.2305,1.2305,1.2305,1.2305,1.2305,1.2305,1.2305,1.2305,1.2305,1.2305,1.2311,1.2563,1.2703,1.2817,1.32,1.344,1.3626,1.3874,1.4008,1.4088,1.4088,1.4088,1.4088,2.8291,2.8291,2.8213,2.7959,2.792,2.7822,2.7559,2.7383,2.7187,2.6934,2.6748,2.6543,2.6269,2.6094,2.5996,2.5996,2.5791,2.5693,2.5693,2.5693,2.5693,2.5693,2.5538,2.544,2.544,2.5039,2.4587,2.4183,2.3435,2.2719,2.1968,2.1304,2.0581,1.9919,1.968,1.9413,1.9177,1.9051,1.9007,1.8951,1.8544,1.8231,1.7945,1.7146,1.6818,1.6661,1.6164,1.5974,1.5927,1.5832,1.5879,1.5981,1.6218,1.6258,1.6258,1.6258,1.6258,1.6211,1.6028,1.5974,1.5927,1.5832,1.5698,1.5538,1.5424,1.5257,1.505,1.4756,1.4603,1.4469,1.4289,1.4162,1.4088,1.4088,1.4088,1.4021,1.3841,1.3814,1.3673,1.3373,1.334,1.334,1.322,1.3039,1.2965,1.2965,1.2759,1.2665,1.2665,1.2728,1.2766,1.2766,1.2879,1.2879,1.2766,1.2766,1.2607,1.2305,1.2305,1.2305,1.2305,1.2425,1.2516,1.2492,1.2837,1.3032,1.3133,1.3453,1.3673,1.3834,1.4015,1.4088,1.4088,1.4088,1.4088,1.4088,2.8291,2.8291,2.8291,2.8291,2.8291,2.8291,2.8291,2.7969,2.7757,2.7718,2.7324,2.706,2.7021,2.667,2.6445,2.6445,2.6045,2.5742,2.5742,2.5713,2.5693,2.5693,2.5693,2.5693,2.5693,2.544,2.5186,2.4932,2.443,2.4084,2.3777,2.3029,2.2338,2.1717,2.1222,2.0843,2.0484,2.05,2.0628,2.0814,2.0337,1.999,1.9667,1.8527,1.7941,1.7568,1.6695,1.6353,1.6306,1.6028,1.6069,1.6366,1.6885,1.7066,1.7073,1.7073,1.7073,1.6972,1.6454,1.6319,1.6218,1.5974,1.5927,1.5805,1.5498,1.5438,1.5357,1.5109,1.4834,1.4589,1.4606,1.4365,1.4206,1.4164,1.4144,1.413,1.4088,1.4088,1.3988,1.3673,1.364,1.354,1.3313,1.3267,1.324,1.3213,1.3213,1.3213,1.3213,1.3391,1.3495,1.3495,1.3784,1.3784,1.3541,1.3541,1.3144,1.2385,1.2385,1.2385,1.2392,1.2703,1.2831,1.2844,1.3113,1.336,1.3606,1.3633,1.38,1.4088,1.4088,1.4088,1.4088,1.4088,1.4088,1.4088,2.8291,2.8291,2.8291,2.8291,2.8291,2.8291,2.8291,2.8213,2.8037,2.7767,2.764,2.7393,2.7051,2.6934,2.6875,2.6875,2.6494,2.625,2.625,2.5879,2.5693,2.5693,2.5693,2.5693,2.5693,2.5635,2.5489,2.5235,2.5088,2.4784,2.4332,2.4134,2.3683,2.2947,2.2798,2.2455,2.2012,2.2207,2.2174,2.2002,2.1652,2.134,2.0996,1.995,1.9394,1.9016,1.8159,1.7721,1.7493,1.7091,1.6918,1.6925,1.738,1.7559,1.7606,1.7807,1.7707,1.7512,1.7419,1.7232,1.7012,1.6784,1.6744,1.6581,1.5893,1.5684,1.5705,1.5647,1.5584,1.5506,1.5438,1.5184,1.489,1.4754,1.4513,1.4279,1.413,1.4088,1.4062,1.4001,1.3988,1.3968,1.3901,1.3687,1.3413,1.3227,1.3213,1.3213,1.3213,1.3391,1.3495,1.3495,1.3902,1.4027,1.3824,1.3988,1.3682,1.3013,1.3013,1.3013,1.3013,1.308,1.3113,1.3126,1.338,1.3547,1.362,1.3895,1.4028,1.4088,1.4088,1.4088,1.4088,1.4088,1.4088,1.4088,2.8291,2.8291,2.8291,2.8291,2.8291,2.8291,2.8291,2.8291,2.8213,2.7998,2.7969,2.7881,2.7646,2.7451,2.7236,2.7031,2.6816,2.6689,2.6689,2.6475,2.621,2.6055,2.6045,2.5947,2.5693,2.5693,2.5635,2.5489,2.5489,2.5342,2.5088,2.4932,2.4587,2.4084,2.3935,2.3728,2.347,2.3551,2.3617,2.355,2.3235,2.296,2.2642,2.1527,2.0981,2.059,1.9508,1.8868,1.8483,1.8193,1.8135,1.8199,1.862,1.8842,1.8996,1.9096,1.9042,1.885,1.838,1.8102,1.7924,1.7621,1.7434,1.7099,1.6211,1.6069,1.6163,1.6199,1.6239,1.6358,1.6451,1.6198,1.5893,1.5638,1.5161,1.4752,1.4496,1.4253,1.4088,1.4088,1.4159,1.4286,1.437,1.4227,1.4028,1.3791,1.3777,1.3743,1.3627,1.3899,1.4129,1.4258,1.4797,1.5039,1.4959,1.5152,1.4951,1.4379,1.3812,1.3476,1.3358,1.3507,1.3494,1.3393,1.3728,1.3854,1.3868,1.4021,1.4088,1.4088,1.4088,1.4088,1.4088,1.4088,1.4088,1.4088,2.8291,2.8291,2.8291,2.8291,2.8291,2.8291,2.8291,2.8291,2.8291,2.8291,2.8291,2.8291,2.8291,2.7978,2.7627,2.7266,2.7168,2.7129,2.7129,2.7051,2.6865,2.6514,2.6494,2.6328,2.5918,2.583,2.5762,2.5693,2.5693,2.5693,2.5693,2.5489,2.5235,2.4981,2.4735,2.4627,2.4578,2.4637,2.4784,2.4941,2.4735,2.448,2.4196,2.3162,2.2597,2.2201,2.098,2.0143,1.9569,1.9526,1.9566,1.9738,2.0067,2.0323,2.0514,2.0536,2.0518,2.0329,1.9484,1.9201,1.9072,1.8581,1.8303,1.7878,1.6864,1.6683,1.677,1.6817,1.7028,1.725,1.7568,1.7332,1.7016,1.6714,1.6053,1.546,1.5142,1.4593,1.424,1.424,1.4355,1.4566,1.4817,1.4817,1.4776,1.4643,1.4608,1.4482,1.4334,1.4657,1.4992,1.5257,1.5922,1.6286,1.6245,1.6484,1.6394,1.5974,1.498,1.4248,1.3819,1.4115,1.4117,1.3933,1.4184,1.425,1.425,1.4208,1.4208,1.4208,1.4257,1.425,1.425,1.425,1.425,1.425,2.8291,2.8291,2.8291,2.8291,2.8291,2.8291,2.8291,2.8291,2.8291,2.8291,2.8291,2.8291,2.8291,2.8242,2.8184,2.8125,2.7793,2.763,2.763,2.7226,2.6992,2.6934,2.6934,2.6904,2.6846,2.6484,2.6113,2.5693,2.5693,2.5693,2.5693,2.5635,2.5489,2.5235,2.5186,2.5088,2.4883,2.5079,2.5235,2.5235,2.5186,2.5186,2.5079,2.4473,2.4051,2.3741,2.3001,2.2097,2.1236,2.1423,2.1215,2.0917,2.1264,2.1382,2.1458,2.1473,2.1374,2.1221,2.1078,2.0898,2.0583,2.0102,1.9965,1.9683,1.8657,1.7785,1.7333,1.7807,1.8079,1.8364,1.8832,1.868,1.8305,1.7858,1.7128,1.6426,1.5985,1.5285,1.4788,1.4788,1.4725,1.4817,1.5269,1.5311,1.5352,1.5526,1.5352,1.5269,1.5235,1.5443,1.5699,1.5963,1.6615,1.6927,1.6878,1.7326,1.7408,1.7155,1.7009,1.632,1.5139,1.5182,1.5204,1.517,1.5019,1.4964,1.4964,1.4699,1.4615,1.4657,1.4873,1.4964,1.4964,1.4964,1.4964,1.4922,2.8291,2.8291,2.8291,2.8291,2.8291,2.8291,2.8291,2.8291,2.8291,2.8291,2.8291,2.8291,2.8291,2.8291,2.8291,2.8291,2.8125,2.8018,2.8018,2.7832,2.7627,2.7393,2.7373,2.7266,2.7021,2.6836,2.6641,2.6455,2.5918,2.5693,2.5693,2.5693,2.5635,2.5538,2.5538,2.544,2.5333,2.5489,2.5538,2.5538,2.5538,2.5538,2.5489,2.5079,2.4883,2.4716,2.4128,2.3505,2.2925,2.2847,2.2775,2.2664,2.2739,2.2695,2.261,2.2659,2.2443,2.2122,2.1856,2.1687,2.1553,2.115,2.1006,2.0817,2.0348,1.9666,1.908,1.8765,1.8996,1.9455,2.0093,2.0002,1.9766,1.9479,1.8548,1.7702,1.7212,1.6485,1.5908,1.5698,1.5589,1.5683,1.6087,1.6221,1.6296,1.6255,1.6173,1.6049,1.5809,1.5974,1.6229,1.6607,1.7131,1.761,1.7965,1.8264,1.8385,1.8304,1.8304,1.7521,1.6124,1.6124,1.6008,1.5809,1.5692,1.5567,1.545,1.5318,1.5193,1.511,1.5367,1.5533,1.565,1.565,1.5575,1.5409]}]]